     2              OBSERVATION DATA    G (GPS)             RINEX VERSION / TYPE
ASRINEXO V2.9.9 LH AIUB 01-FEB- 1 16:32                     PGM / RUN BY / DATE
BERN ASHTECH Z-12                                           COMMENT
BIT 2 OF LLI (+4) FLAGS DATA COLLECTED UNDER "AS" CONDITION COMMENT
USNB                                                        MARKER NAME
                                                            OBSERVER / AGENCY
? ASHTECH Z-XII3 1D15                                       REC # / TYPE / VERS
? CHOKE RING                                                ANT # / TYPE
  1112165.2000 -4842867.3200  3985511.5400                  APPROX POSITION XYZ
        0.0000        0.0000        0.0000                  ANTENNA: DELTA H/E/N
     1     1                                                WAVELENGTH FACT L1/2
     5    C1    L1    L2    P1    P2                        # / TYPES OF OBSERV
  2000     5    15     0     0   30.000000                  TIME OF FIRST OBS
                                                            END OF HEADER
 00  5 15  0  0 30.0000000  0  7 09 17 26 21 03 23 29
  21221168.160   -16884379.951 9 -13141821.30347  21221169.802    21221179.7114
  20176514.752   -24709892.448 9 -19235636.89948  20176517.797    20176527.1994
  21910901.222   -16384977.482 8 -12754047.76947  21910904.465    21910913.1254
  24139435.840    -4819958.526 8  -3738440.41345  24139437.330    24139451.0684
  24376530.045    -3124287.093 7  -2425982.25445  24376535.196    24376549.1424
  21307829.287   -18760565.037 9 -14601800.97147  21307832.778    21307841.6944
  23765981.378    -5619881.552 7  -4365423.44645  23765983.113    23765998.3474
 00  5 15  0  1  0.0000000  0  7 09 17 26 21 03 23 29
  21210696.479   -16939396.874 9 -13184691.55847  21210700.682    21210710.1774
  20182570.116   -24678068.806 9 -19210839.27348  20182573.632    20182582.9604
  21927329.591   -16298645.283 8 -12686775.95347  21927333.068    21927342.6194
  24124431.178    -4898794.944 8  -3799871.27145  24124433.596    24124446.8404
  24375236.120    -3131082.563 7  -2431277.39645  24375241.883    24375254.6714
  21300758.542   -18797727.907 9 -14630759.00947  21300760.700    21300769.9764
  23749468.760    -5706644.604 8  -4433030.78445  23749473.513    23749487.6364
 00  5 15  0  1 30.0000000  0  7 09 17 26 21 03 23 29
  21200332.069   -16993870.791 9 -13227138.68847  21200334.335    21200344.1724
  20188740.985   -24645644.799 9 -19185573.83348  20188743.618    20188753.0964
  21943790.637   -16212136.261 8 -12619366.34547  21943795.606    21943803.9124
  24109426.045    -4977651.338 7  -3861317.69545  24109427.714    24109440.8584
  24374044.958    -3137359.226 7  -2436168.30645  24374050.026    24374062.0104
  21293713.745   -18834746.389 9 -14659604.54547  21293716.298    21293725.2234
  23732996.757    -5793218.456 8  -4500490.70745  23733000.018    23733013.4574
 00  5 15  0  2  0.0000000  0  7 09 17 26 21 03 23 29
  21190070.041   -17047799.397 9 -13269160.90247  21190072.082    21190082.2054
  20195024.369   -24612620.546 9 -19159840.67048  20195028.202    20195037.3134
  21960289.221   -16125452.686 8 -12551820.73047  21960290.653    21960299.8474
  24094411.133    -5056527.257 8  -3922779.26845  24094418.671    24094432.8094
  24372952.248    -3143117.311 7  -2440655.13545  24372952.596    24372966.7944
  21286697.311   -18871619.851 9 -14688337.07347  21286699.514    21286708.5434
  23716559.283    -5879602.282 8  -4567802.55945  23716560.704    23716574.9524
 00  5 15  0  2 30.0000000  0  7 09 17 26 21 03 23 29
  21179911.925   -17101180.532 9 -13310756.52747  21179913.993    21179923.6974
  20201422.351   -24578996.405 9 -19133640.06348  20201426.536    20201435.6514
  21976816.725   -16038596.735 8 -12484140.79347  21976819.207    21976827.8764
  24079404.482    -5135421.889 8  -3984255.45345  24079405.913    24079420.1074
  24371953.751    -3148357.171 7  -2444738.13745  24371955.087    24371968.8074
  21279706.233   -18908347.497 9 -14716955.98747  21279710.143    21279719.5124
  23700152.966    -5965795.262 8  -4634965.67545  23700158.053    23700172.2104
 00  5 15  0  3  0.0000000  0  7 09 17 26 21 03 23 29
  21169855.994   -17154011.983 9 -13351923.81547  21169860.013    21169869.9264
  20207935.424   -24544772.762 9 -19106972.31048  20207939.274    20207948.1324
  21993377.644   -15951570.566 8 -12416328.22747  21993379.209    21993388.4274
  24064387.890    -5214335.339 8  -4045746.31345  24064388.859    24064402.1224
  24371054.467    -3153079.041 7  -2448417.45645  24371056.247    24371071.6184
  21272746.671   -18944928.479 9 -14745460.60547  21272748.698    21272758.0644
  23683788.648    -6051796.617 8  -4701979.47745  23683791.191    23683806.1304
 00  5 15  0  3 30.0000000  0  7 09 17 26 21 03 23 29
  21159908.113   -17206291.416 9 -13392660.97547  21159911.592    21159921.4814
  20214561.951   -24509949.997 9 -19079837.71248  20214565.449    20214574.9804
  22009965.307   -15864376.297 8 -12348384.67546  22009971.457    22009980.3514
  24049366.910    -5293266.931 8  -4107251.28345  24049369.248    24049381.9714
  24370249.562    -3157283.714 7  -2451693.82245  24370254.125    24370271.4844
  21265811.233   -18981362.442 9 -14773850.65147  21265815.289    21265825.4464
  23667460.507    -6137605.646 7  -4768843.44445  23667462.169    23667477.2194
 00  5 15  0  4  0.0000000  0  7 09 17 26 21 03 23 29
  21150064.251   -17258016.930 9 -13432966.50047  21150068.621    21150078.6324
  20221301.409   -24474528.804 9 -19052236.80548  20221305.717    20221315.6504
  22026591.758   -15777016.169 8 -12280311.89746  22026595.771    22026605.0954
  24034344.518    -5372216.138 8  -4168769.98745  24034345.932    24034358.0964
  24369539.900    -3160971.502 7  -2454567.42145  24369553.463    24369568.3174
  21258908.486   -19017648.490 9 -14802125.44147  21258910.330    21258920.2054
  23651165.739    -6223221.504 8  -4835556.86445  23651170.377    23651186.0294
 00  5 15  0  4 30.0000000  0  7 09 17 26 21 03 23 29
  21140329.019   -17309186.359 9 -13472838.70747  21140331.658    21140341.7814
  20228158.172   -24438509.313 9 -19024169.69748  20228160.312    20228169.9014
  22043250.309   -15689492.348 8 -12212111.54546  22043251.004    22043259.9934
  24019319.140    -5451182.559 8  -4230302.12945  24019318.224    24019331.5914
  24368943.432    -3164143.122 7  -2457038.80445  24368950.365    24368964.9674
  21252030.416   -19053786.051 9 -14830284.53347  21252033.954    21252043.2144
  23634912.283    -6308643.447 8  -4902119.20045  23634915.772    23634930.5944
 00  5 15  0  5  0.0000000  0  7 09 17 26 21 03 23 29
  21130696.242   -17359797.644 9 -13512276.00247  21130700.114    21130710.2084
  20235125.311   -24401891.945 9 -18995636.70348  20235128.536    20235138.1254
  22059933.839   -15601806.971 8 -12143785.29347  22059937.453    22059946.6224
  24004282.297    -5530165.845 8  -4291847.40845  24004288.154    24004300.9554
  24368445.855    -3166798.948 7  -2459108.32445  24368447.203    24368460.4984
  21245181.650   -19089774.360 9 -14858327.32047  21245185.608    21245194.9464
  23618695.861    -6393870.795 8  -4968529.92045  23618696.787    23618711.1854
 00  5 15  0  5 30.0000000  0  7 09 17 26 21 03 23 29
  21121171.293   -17409848.238 9 -13551276.37547  21121175.564    21121185.9894
  20242205.271   -24364677.439 9 -18966638.41348  20242210.398    20242219.8684
  22076649.462   -15513962.337 8 -12075334.95347  22076654.338    22076663.1684
  23989254.490    -5609165.522 8  -4353405.44145  23989254.816    23989267.7424
  24368034.711    -3168939.657 7  -2460776.39645  24368040.074    24368053.3154
  21238363.326   -19125612.764 9 -14886253.29547  21238365.830    21238374.8714
  23602513.290    -6478902.620 8  -5034788.26945  23602516.127    23602529.5054
 00  5 15  0  6  0.0000000  0  7 09 17 26 21 03 23 29
  21111755.521   -17459336.267 9 -13589838.37847  21111758.496    21111768.2834
  20249403.420   -24326866.275 9 -18937175.19348  20249405.431    20249414.8234
  22093398.773   -15425960.226 8 -12006761.91847  22093399.978    22093409.1474
  23974216.059    -5688181.300 8  -4414976.00345  23974217.363    23974232.6154
  24367728.380    -3170565.737 7  -2462043.50045  24367728.785    24367743.0944
  21231570.155   -19161300.716 9 -14914062.03947  21231574.210    21231583.3024
  23586366.739    -6563738.147 8  -5100893.65845  23586372.908    23586386.4244
 00  5 15  0  6 30.0000000  0  7 09 17 26 21 03 23 29
  21102447.701   -17508259.759 9 -13627960.48947  21102448.957    21102458.4164
  20256710.578   -24288459.078 9 -18907247.53048  20256713.904    20256723.5614
  22110173.172   -15337803.124 8 -11938068.10347  22110175.859    22110185.2264
  23959175.262    -5767212.856 8  -4476558.87245  23959178.955    23959192.9694
  24367507.328    -3171677.851 7  -2462910.12945  24367517.700    24367530.9644
  21224810.030   -19196837.413 9 -14941752.92047  21224812.465    21224821.1814
  23570263.851    -6648377.026 8  -5166845.80745  23570265.794    23570279.8124
 00  5 15  0  7  0.0000000  0  7 09 17 26 21 03 23 29
  21093241.961   -17556616.496 9 -13665640.98947  21093246.617    21093256.6134
  20264131.795   -24249456.385 9 -18876855.84348  20264135.977    20264145.4854
  22126977.526   -15249493.053 8 -11869255.09946  22126980.266    22126989.4584
  23944134.072    -5846259.156 8  -4538153.27045  23944137.643    23944151.0444
  24367394.930    -3172276.328 7  -2463376.49845  24367402.850    24367416.0244
  21218075.543   -19232222.121 9 -14969325.37147  21218078.431    21218088.0204
  23554196.811    -6732818.035 8  -5232643.79345  23554197.164    23554211.0714
 00  5 15  0  7 30.0000000  0  7 09 17 26 21 03 23 29
  21084148.892   -17604404.572 9 -13702878.37347  21084152.349    21084162.6004
  20271667.262   -24209858.696 9 -18846000.52548  20271671.458    20271680.7084
  22143809.061   -15161031.993 8 -11800324.43646  22143814.089    22143823.2474
  23929090.640    -5925320.189 8  -4599759.11145  23929092.351    23929105.3954
  24367382.586    -3172361.953 7  -2463443.22245  24367386.202    24367401.8164
  21211370.274   -19267454.016 9 -14996778.74948  21211373.977    21211383.5534
  23538158.184    -6817060.753 8  -5298287.25545  23538165.579    23538179.9764
 00  5 15  0  8  0.0000000  0  7 09 17 26 21 03 23 29
  21075163.219   -17651622.225 9 -13739671.27947  21075167.440    21075177.5564
  20279317.547   -24169666.821 9 -18814682.19648  20279319.823    20279328.8924
  22160673.878   -15072422.203 8 -11731277.87746  22160675.966    22160684.8334
  23914041.770    -6004395.438 8  -4661376.06145  23914044.292    23914058.1624
  24367467.569    -3171935.428 7  -2463110.87645  24367470.061    24367481.1654
  21204696.885   -19302532.494 9 -15024112.57048  21204699.000    21204708.3604
  23522167.543    -6901104.382 8  -5363775.58545  23522172.074    23522185.9984
 00  5 15  0  8 30.0000000  0  7 09 17 26 21 03 23 29
  21066289.941   -17698267.428 9 -13776018.11347  21066291.337    21066300.8934
  20287076.842   -24128881.359 9 -18782901.33748  20287080.955    20287090.0204
  22177560.592   -14983665.814 8 -11662117.07546  22177566.193    22177575.3134
  23898990.625    -6083484.762 8  -4723003.96446  23898994.209    23899006.7944
  24367644.379    -3170997.060 7  -2462379.68945  24367645.863    24367660.4914
  21198048.415   -19337456.682 9 -15051326.17948  21198053.278    21198062.5254
  23506216.631    -6984948.196 8  -5429108.25845  23506219.040    23506230.1214
 00  5 15  0  9  0.0000000  0  7 09 17 26 21 03 23 29
  21057521.036   -17744337.843 9 -13811917.06847  21057524.277    21057533.7084
  20294953.494   -24087502.801 9 -18750658.33248  20294954.732    20294964.2814
  22194477.656   -14894764.732 8 -11592843.53846  22194483.383    22194492.5774
  23883939.893    -6162587.474 8  -4784642.31246  23883942.263    23883953.9684
  24367917.364    -3169547.861 7  -2461250.47045  24367924.495    24367935.4684
  21191434.963   -19372225.878 9 -15078419.01948  21191437.158    21191445.8214
  23490298.955    -7068591.528 8  -5494284.71545  23490301.374    23490312.9954
 00  5 15  0  9 30.0000000  0  7 09 17 26 21 03 23 29
  21048864.055   -17789831.788 9 -13847366.81647  21048867.064    21048876.7564
  20302936.848   -24045532.181 9 -18717953.98348  20302941.321    20302951.2744
  22211427.424   -14805721.105 8 -11523458.92646  22211427.527    22211436.9234
  23868882.695    -6241703.363 8  -4846290.92846  23868886.831    23868898.8584
  24368292.040    -3167588.672 7  -2459723.85945  24368295.618    24368309.7874
  21184846.742   -19406839.379 9 -15105390.54648  21184850.036    21184859.2184
  23474415.258    -7152033.808 8  -5559304.45745  23474421.921    23474435.8414
 00  5 15  0 10  0.0000000  0  7 09 17 26 21 03 23 29
  21040316.899   -17834747.340 9 -13882365.87447  21040320.139    21040329.4814
  20311035.282   -24002970.313 9 -18684788.91848  20311040.686    20311050.6274
  22228395.180   -14716537.021 8 -11453964.87646  22228398.532    22228407.9234
  23853825.176    -6320830.980 8  -4907948.69745  23853828.674    23853840.9274
  24368760.426    -3165120.098 7  -2457800.33945  24368766.311    24368779.7364
  21178290.692   -19441296.362 9 -15132240.11348  21178293.092    21178302.2454
  23458579.817    -7235274.122 8  -5624166.85546  23458582.594    23458595.3134
 00  5 15  0 10 30.0000000  0  7 09 17 26 21 03 23 29
  21031878.111   -17879082.495 9 -13916912.67447  21031882.934    21031892.3314
  20319249.174   -23959817.876 9 -18651163.67048  20319252.223    20319262.3584
  22245394.460   -14627214.521 8 -11384362.96446  22245396.127    22245406.5614
  23838764.687    -6399970.113 8  -4969615.45645  23838768.276    23838781.5424
  24369323.317    -3162143.115 7  -2455480.61345  24369332.631    24369345.0324
  21171762.630   -19475596.043 9 -15158967.10748  21171766.517    21171775.1584
  23442773.644    -7318311.851 8  -5688871.38445  23442779.959    23442794.0894
 00  5 15  0 11  0.0000000  0  7 09 17 26 21 03 23 29
  21023554.870   -17922835.658 9 -13951005.97647  21023557.082    21023566.5094
  20327573.770   -23916075.615 9 -18617078.81748  20327576.466    20327586.0654
  22262419.394   -14537755.656 8 -11314654.79646  22262420.002    22262429.3714
  23823700.612    -6479120.878 8  -5031291.28045  23823707.051    23823718.4164
  24369993.754    -3158658.107 7  -2452765.00145  24369993.522    24370007.3784
  21165265.392   -19509737.679 9 -15185570.95048  21165269.007    21165278.0564
  23427017.244    -7401146.291 8  -5753417.51046  23427018.224    23427030.6414
 00  5 15  0 11 30.0000000  0  7 09 17 26 21 03 23 29
  21015341.602   -17966004.801 9 -13984644.19147  21015342.524    21015352.1084
  20336007.048   -23871744.385 9 -18582535.02548  20336012.294    20336022.1444
  22279463.336   -14448162.455 8 -11244841.95446  22279468.835    22279478.0724
  23808639.723    -6558282.798 8  -5092975.81945  23808643.123    23808653.9144
  24370753.073    -3154665.992 7  -2449654.24845  24370754.952    24370768.0124
  21158798.336   -19543720.426 9 -15212050.98048  21158802.181    21158811.2904
  23411288.849    -7483776.860 8  -5817804.75646  23411293.199    23411306.9644
 00  5 15  0 12  0.0000000  0  7 09 17 26 21 03 23 29
  21007236.600   -18008588.407 9 -14017826.15648  21007239.318    21007248.3854
  20344555.689   -23826825.113 9 -18547533.02648  20344560.377    20344570.2004
  22296536.202   -14358436.976 8 -11174926.02146  22296542.702    22296551.7304
  23793576.960    -6637454.553 8  -5154667.99945  23793575.671    23793589.4094
  24371605.824    -3150167.692 7  -2446149.06445  24371610.535    24371625.6844
  21152363.540   -19577543.381 9 -15238406.49448  21152365.683    21152374.9804
  23395603.823    -7566202.906 8  -5882032.65546  23395608.173    23395621.6754
 00  5 15  0 12 30.0000000  0  7 09 17 26 21 03 23 29
  20999243.157   -18050584.456 9 -14050550.27547  20999247.240    20999256.6314
  20353216.672   -23781318.518 9 -18512073.37148  20353219.991    20353229.6014
  22313641.697   -14268581.203 8 -11104908.55846  22313642.224    22313650.5304
  23778508.407    -6716635.480 8  -5216367.32945  23778509.235    23778521.7034
  24372565.772    -3145164.085 7  -2442250.18545  24372563.014    24372574.9584
  21145957.418   -19611205.892 9 -15264636.99048  21145960.039    21145969.5364
  23379960.140    -7648423.741 8  -5946100.65046  23379962.098    23379975.4624
 00  5 15  0 13  0.0000000  0  7 09 17 26 21 03 23 29
  20991365.684   -18091991.295 9 -14082815.26447  20991367.725    20991377.5004
  20361988.071   -23735225.537 9 -18476156.78648  20361991.300    20362000.8754
  22330761.083   -14178597.262 8 -11034791.23946  22330765.741    22330774.3784
  23763439.542    -6795826.072 8  -5278074.19146  23763440.054    23763452.5054
  24373608.756    -3139655.908 7  -2437958.06945  24373610.971    24373624.8894
  21139581.576   -19644707.271 9 -15290741.93048  21139584.846    21139593.9494
  23364353.703    -7730438.733 8  -6010008.26946  23364355.434    23364367.7454
 00  5 15  0 13 30.0000000  0  7 09 17 26 21 03 23 29
  20983599.095   -18132807.177 9 -14114619.77447  20983600.736    20983610.0374
  20370872.642   -23688547.280 9 -18439784.14448  20370873.609    20370883.4804
  22347913.089   -14088487.056 8 -10964575.52946  22347912.335    22347922.0524
  23748365.455    -6875025.655 8  -5339788.07146  23748368.841    23748380.9054
  24374751.060    -3133644.075 7  -2433273.53845  24374755.201    24374769.8294
  21133238.722   -19678046.784 9 -15316720.73748  21133240.363    21133249.5924
  23348782.589    -7812247.352 8  -6073755.08846  23348788.083    23348800.3574
 00  5 15  0 14  0.0000000  0  7 09 17 26 21 03 23 29
  20975945.534   -18173030.393 9 -14145962.47447  20975946.687    20975955.6834
  20379863.452   -23641284.600 9 -18402956.10848  20379867.301    20379877.1034
  22365078.181   -13998252.605 8 -10894262.98846  22365084.038    22365092.4714
  23733286.311    -6954233.163 8  -5401508.15546  23733294.026    23733308.8814
  24375991.846    -3127129.651 7  -2428197.30945  24375995.340    24376008.8384
  21126924.788   -19711223.433 9 -15342572.64248  21126927.694    21126936.8024
  23333255.779    -7893848.624 8  -6137340.28146  23333258.932    23333272.1464
 00  5 15  0 14 30.0000000  0  7 09 17 26 21 03 23 29
  20968400.530   -18212658.974 9 -14176841.81747  20968405.166    20968414.0644
  20388968.570   -23593438.356 9 -18365673.34348  20388972.497    20388981.9114
  22382274.961   -13907895.909 8 -10823855.20446  22382278.213    22382288.1604
  23718221.566    -7033448.247 8  -5463234.11646  23718221.894    23718234.8464
  24377317.942    -3120113.621 7  -2422730.32045  24377328.093    24377343.9474
  21120641.941   -19744236.443 9 -15368297.04348  21120645.251    21120654.0634
  23317765.957    -7975242.377 8  -6200763.80546  23317768.864    23317783.1594
 00  5 15  0 15  0.0000000  0  7 09 17 26 21 03 23 29
  20960974.958   -18251691.150 9 -14207256.42547  20960977.742    20960986.9494
  20398184.882   -23545009.630 9 -18327936.69248  20398187.912    20398197.7424
  22399490.581   -13817418.819 8 -10753353.60946  22399495.205    22399504.9564
  23703142.328    -7112670.527 8  -5524965.69446  23703145.656    23703157.9964
  24378750.125    -3112596.739 7  -2416872.94444  24378757.814    24378770.9024
  21114391.842   -19777085.056 9 -15393893.33948  21114394.325    21114403.2314
  23302314.300    -8056427.728 8  -6264024.92146  23302320.092    23302333.9534
 00  5 15  0 15 30.0000000  0  7 09 17 26 21 03 23 29
  20953658.440   -18290125.681 9 -14237205.34548  20953663.701    20953673.1574
  20407511.223   -23495999.236 9 -18289746.80748  20407514.594    20407523.9384
  22416730.104   -13726823.521 8 -10682759.91046  22416735.216    22416744.9674
  23688068.132    -7191898.769 8  -5586701.90446  23688069.806    23688081.9054
  24380273.458    -3104580.064 7  -2410626.20744  24380282.512    24380299.9114
  21108169.007   -19809768.516 9 -15419360.95748  21108174.661    21108183.9614
  23286905.380    -8137404.212 8  -6327123.29746  23286911.136    23286924.8404
 00  5 15  0 16  0.0000000  0  7 09 17 26 21 03 23 29
  20946459.143   -18327961.018 9 -14266687.34947  20946463.544    20946473.4144
  20416949.252   -23446408.229 9 -18251104.49048  20416951.667    20416960.7794
  22433993.332   -13636111.789 8 -10612075.46146  22433996.919    22434006.8734
  23672991.447    -7271132.935 8  -5648442.74546  23672991.437    23673003.4934
  24381901.644    -3096064.397 7  -2403990.61844  24381906.589    24381920.1214
  21101985.673   -19842285.744 9 -15444699.03148  21101987.207    21101996.1664
  23271542.138    -8218170.991 8  -6390058.27146  23271542.290    23271554.7274
 00  5 15  0 16 30.0000000  0  7 09 17 26 21 03 23 29
  20939374.313   -18365195.561 9 -14295701.19047  20939377.986    20939387.8574
  20426495.718   -23396237.676 9 -18212010.57448  20426498.576    20426507.8004
  22451275.555   -13545285.655 8 -10541301.89046  22451281.104    22451291.0354
  23657910.612    -7350372.250 8  -5710187.60546  23657911.944    23657924.0014
  24383618.801    -3087051.135 7  -2396967.27645  24383622.112    24383633.5634
  21095827.628   -19874635.925 9 -15469906.93448  21095830.491    21095840.2794
  23256208.964    -8298727.723 8  -6452829.59246  23256211.803    23256224.6094
 00  5 15  0 17  0.0000000  0  7 09 17 26 21 03 23 29
  20932403.014   -18401827.885 9 -14324245.77547  20932406.956    20932416.9984
  20436152.776   -23345488.703 9 -18172465.94248  20436155.716    20436165.4314
  22468584.949   -13454347.043 8 -10470440.65846  22468586.416    22468595.7124
  23642828.636    -7429616.281 8  -5771936.15046  23642832.544    23642844.5544
  24385432.876    -3077541.090 7  -2389556.84245  24385432.094    24385445.6794
  21089701.457   -19906818.262 9 -15494984.04148  21089706.514    21089715.8774
  23240917.329    -8379073.628 8  -6515436.60746  23240922.352    23240934.8064
 00  5 15  0 17 30.0000000  0  7 09 17 26 21 03 23 29
  20925549.935   -18437856.188 9 -14352319.71147  20925551.081    20925560.2324
  20445919.484   -23294162.444 9 -18132471.47548  20445922.679    20445932.5374
  22485906.030   -13363297.920 8 -10399493.30746  22485911.947    22485921.8614
  23627747.487    -7508864.252 8  -5833687.72446  23627752.481    23627764.3674
  24387326.100    -3067535.245 7  -2381760.06644  24387332.547    24387349.3894
  21083611.952   -19938831.979 9 -15519929.76948  21083614.459    21083623.6534
  23225670.405    -8459208.276 8  -6577879.02446  23225672.638    23225685.2344
 00  5 15  0 18  0.0000000  0  7 09 17 26 21 03 23 29
  20918804.891   -18473278.856 9 -14379921.71747  20918810.547    20918819.4994
  20455794.556   -23242259.992 9 -18092028.03448  20455799.411    20455809.0334
  22503254.190   -13272140.132 8 -10328461.30846  22503259.171    22503268.1514
  23612665.251    -7588115.342 8  -5895441.70146  23612670.978    23612683.3654
  24389327.755    -3057035.087 7  -2373578.15744  24389330.508    24389347.3114
  21077550.135   -19970676.177 9 -15544743.39747  21077554.396    21077563.8184
  23210457.902    -8539130.980 8  -6640156.30046  23210463.881    23210476.7794
 00  5 15  0 18 30.0000000  0  7 09 17 26 21 03 23 29
  20912182.292   -18508094.551 9 -14407050.76047  20912185.337    20912194.5344
  20465782.988   -23189782.527 9 -18051136.53048  20465785.823    20465795.3694
  22520617.123   -13180875.667 8 -10257346.15346  22520625.790    22520634.9014
  23597583.983    -7667369.065 8  -5957197.74546  23597589.644    23597601.3514
  24391421.680    -3046041.511 7  -2365011.75644  24391422.900    24391441.4164
  21071523.659   -20002350.082 9 -15569424.33647  21071527.419    21071536.1454
  23195291.343    -8618841.167 8  -6702267.97146  23195295.069    23195308.4804
 00  5 15  0 19  0.0000000  0  7 09 17 26 21 03 23 29
  20905673.396   -18542301.648 9 -14433705.56847  20905675.609    20905684.9974
  20475877.000   -23136731.440 9 -18009798.03948  20475880.817    20475890.7184
  22538005.938   -13089506.443 8 -10186149.36946  22538012.891    22538021.2324
  23582505.047    -7746625.137 8  -6018955.59446  23582508.424    23582519.9394
  24393613.029    -3034555.327 7  -2356061.54245  24393611.640    24393624.2534
  21065531.076   -20033852.757 9 -15593971.84747  21065532.679    21065541.4654
  23180166.875    -8698338.410 8  -6764213.69846  23180167.156    23180180.4094
 00  5 15  0 19 30.0000000  0  7 09 17 26 21 03 23 29
  20899279.742   -18575899.141 9 -14459885.36747  20899282.328    20899291.7564
  20486082.874   -23083107.646 9 -17968013.28348  20486085.645    20486094.8964
  22555419.656   -12998034.235 8 -10114872.35946  22555419.226    22555428.5854
  23567422.767    -7825882.681 8  -6080714.58846  23567426.306    23567437.7704
  24395890.977    -3022578.063 7  -2346728.57044  24395892.245    24395903.5754
  21059566.465   -20065183.203 9 -15618385.15647  21059570.427    21059579.4864
  23165079.644    -8777622.082 8  -6825992.98646  23165079.683    23165092.9114
 00  5 15  0 20  0.0000000  0  7 09 17 26 21 03 23 29
  20893001.645   -18608885.214 9 -14485588.73748  20893005.566    20893014.7654
  20496394.136   -23028912.708 9 -17925783.48148  20496398.419    20496408.1754
  22572840.150   -12906460.974 8 -10043516.61446  22572845.288    22572854.2204
  23552338.906    -7905141.362 8  -6142474.45846  23552342.419    23552355.2664
  24398264.827    -3010110.774 7  -2337013.79244  24398262.511    24398276.1734
  21053639.554   -20096340.688 9 -15642663.68547  21053641.023    21053650.1524
  23150033.704    -8856691.832 8  -6887605.61246  23150033.730    23150046.4964
 00  5 15  0 20 30.0000000  0  7 09 17 26 21 03 23 29
  20886840.570   -18641258.451 9 -14510814.57248  20886844.829    20886853.9174
  20506816.399   -22974147.692 9 -17883109.46748  20506819.687    20506829.8244
  22590287.816   -12814788.572 8  -9972083.60346  22590289.462    22590299.2524
  23537258.946    -7984400.163 8  -6204234.39446  23537260.870    23537272.9534
  24400715.794    -2997154.807 7  -2326918.28644  24400726.520    24400741.5154
  21047741.429   -20127324.292 9 -15666806.72848  21047745.652    21047754.3844
  23135023.604    -8935546.712 8  -6949050.81046  23135027.658    23135041.3094
 00  5 15  0 21  0.0000000  0  7 09 17 26 21 03 23 29
  20880799.038   -18673017.766 9 -14535562.02547  20880800.655    20880810.1074
  20517346.444   -22918814.078 9 -17839992.38548  20517349.176    20517359.0834
  22607749.747   -12723018.807 8  -9900574.72646  22607753.631    22607763.0984
  23522173.476    -8063658.110 8  -6265993.70646  23522178.885    23522190.5484
  24403285.890    -2983711.090 7  -2316442.62145  24403285.250    24403300.9534
  21041879.185   -20158132.999 9 -15690813.48748  21041882.384    21041892.0264
  23120061.638    -9014186.523 8  -7010328.40446  23120062.634    23120075.7564
 00  5 15  0 21 30.0000000  0  7 09 17 26 21 03 23 29
  20874872.221   -18704161.997 9 -14559830.18147  20874874.483    20874883.4134
  20527984.180   -22862913.011 9 -17796433.13448  20527986.866    20527996.6504
  22625231.637   -12631153.589 8  -9828991.50146  22625234.639    22625244.1284
  23507091.145    -8142915.031 8  -6327752.17446  23507095.172    23507107.9224
  24405932.680    -2969781.109 7  -2305588.10344  24405935.513    24405951.2544
  21036050.358   -20188765.951 9 -15714683.29648  21036053.515    21036062.8684
  23105133.154    -9092610.535 8  -7071437.86246  23105138.560    23105152.2024
 00  5 15  0 22  0.0000000  0  6 09 17 26 21 23 29
  20869061.209   -18734689.487 9 -14583617.75748  20869065.653    20869074.6614
  20538727.111   -22806445.702 9 -17752432.65348  20538732.313    20538742.1964
  22642731.469   -12539194.755 8  -9757335.28346  22642733.880    22642742.8954
  23492011.164    -8222170.308 8  -6389509.39146  23492013.062    23492026.1894
  21030254.306   -20219222.321 9 -15738415.51648  21030258.109    21030266.8794
  23090251.472    -9170818.324 8  -7132378.80646  23090256.418    23090269.7464
 00  5 15  0 22 30.0000000  0  6 09 17 26 21 23 29
  20863369.653   -18764599.102 9 -14606923.87448  20863373.657    20863382.8684
  20549581.675   -22749413.398 9 -17707991.92048  20549585.418    20549594.8794
  22660244.243   -12447144.129 8  -9685607.52446  22660250.914    22660259.3434
  23476931.193    -8301422.797 8  -6451264.43846  23476933.052    23476945.5994
  21024492.706   -20249501.301 9 -15762009.49048  21024496.204    21024505.0084
  23075417.289    -9248809.440 8  -7193150.92546  23075416.302    23075427.5054
 00  5 15  0 23  0.0000000  0  7 09 17 26 21 03 23 29
  20857798.295   -18793889.587 9 -14629747.55948  20857800.175    20857808.7124
  20560542.524   -22691817.676 9 -17663112.14848  20560545.589    20560555.0564
  22677779.306   -12355003.492 8  -9613809.64146  22677783.752    22677793.9574
  23461845.981    -8380671.745 8  -6513016.72346  23461851.347    23461865.0074
  24414436.336        9400.72917
  21018766.412   -20279601.962 9 -15785464.50548  21018767.872    21018777.1684
  23060613.626    -9326583.166 8  -7253753.66446  23060615.917    23060626.8814
 00  5 15  0 23 30.0000000  0  7 09 17 26 21 03 23 29
  20852342.499   -18822559.647 9 -14652087.79748  20852344.217    20852353.0604
  20571609.444   -22633659.904 9 -17617794.42148  20571612.217    20571622.1934
  22695333.335   -12262774.697 8  -9541943.09046  22695335.209    22695343.6794
  23446770.956    -8459916.708 8  -6574765.89646  23446771.385    23446784.8334
  24417465.900       25263.019 7     18113.11155  24417463.711    24417472.7764
  21013071.943   -20309523.251 9 -15808779.77548  21013074.315    21013083.5844
  23045853.856    -9404139.237 8  -7314186.76046  23045856.103    23045868.2034
 00  5 15  0 24  0.0000000  0  7 09 17 26 21 03 23 29
  20847005.379   -18850608.269 9 -14673943.80347  20847006.373    20847015.1734
  20582783.333   -22574941.525 9 -17572039.86048  20582786.111    20582796.2714
  22712902.222   -12170459.589 8  -9470009.21646  22712901.752    22712910.9594
  23431689.196    -8539156.941 8  -6636511.37746  23431692.654    23431704.7104
  24420562.925       41605.283 7     30847.39945  24420571.909    24420584.8244
  21007411.129   -20339264.293 9 -15831954.59348  21007414.969    21007424.2554
  23031131.798    -9481476.897 8  -7374449.69445  23031138.433    23031151.0584
 00  5 15  0 24 30.0000000  0  7 09 17 26 21 03 23 29
  20841783.477   -18878034.364 9 -14695314.73647  20841787.422    20841795.7844
  20594062.004   -22515663.946 9 -17525849.56948  20594066.252    20594076.3094
  22730477.887   -12078059.910 8  -9398009.50146  22730485.151    22730494.5274
  23416611.219    -8618391.894 8  -6698252.75346  23416614.905    23416627.1164
  24423763.580       58426.247 7     43954.61445  24423772.618    24423786.2824
  21001786.763   -20368824.054 9 -15854988.16148  21001789.833    21001798.8234
  23016462.236    -9558596.039 8  -7434542.35646  23016465.099    23016474.8514
 00  5 15  0 25  0.0000000  0  7 09 17 26 21 03 23 29
  20836683.261   -18904836.910 9 -14716199.77248  20836687.161    20836695.8384
  20605447.478   -22455828.657 9 -17479224.68948  20605452.377    20605462.4454
  22748078.442   -11985577.463 8  -9325945.29246  22748083.745    22748093.3184
  23401536.562    -8697620.666 8  -6759989.31446  23401538.106    23401550.3794
  24427061.529       75724.541 7     57433.76545  24427063.538    24427079.1384
  20996195.177   -20398201.633 9 -15877879.74048  20996199.125    20996208.4784
  23001830.807    -9635496.070 8  -7494464.28646  23001830.653    23001841.0104
 00  5 15  0 25 30.0000000  0  7 09 17 26 21 03 23 29
  20831702.606   -18931014.271 9 -14736597.65048  20831705.552    20831714.7594
  20616941.758   -22395436.925 9 -17432166.20948  20616944.855    20616954.9814
  22765692.040   -11893013.980 8  -9253817.95146  22765697.872    22765707.3874
  23386459.215    -8776842.770 8  -6821720.69946  23386462.667    23386474.4964
  24430448.990       93498.487 7     71283.58845  24430447.006    24430459.7444
  20990640.865   -20427396.125 9 -15900628.64148  20990643.825    20990652.9334
  22987232.503    -9712176.422 8  -7554215.05646  22987239.084    22987249.6694
 00  5 15  0 26  0.0000000  0  7 09 17 26 21 03 23 29
  20826842.071   -18956565.569 9 -14756507.69548  20826843.381    20826852.4534
  20628538.761   -22334490.578 9 -17384675.56048  20628542.479    20628552.7124
  22783323.686   -11800371.316 8  -9181628.88646  22783327.456    22783336.9234
  23371386.120    -8856057.205 8  -6883446.10546  23371388.615    23371400.2714
  24433917.100      111746.649 7     85502.90144  24433918.969    24433932.3914
  20985120.752   -20456406.540 9 -15923234.11648  20985122.960    20985132.3924
  22972683.773    -9788636.685 8  -7613794.28746  22972689.073    22972699.9944
 00  5 15  0 26 30.0000000  0  7 09 17 26 21 03 23 29
  20822096.560   -18981490.032 9 -14775929.28548  20822100.321    20822109.4244
  20640242.109   -22272990.962 9 -17336753.79048  20640245.395    20640255.5234
  22800964.346   -11707651.179 8  -9109379.45746  22800971.351    22800980.6574
  23356314.319    -8935262.549 8  -6945164.40846  23356316.539    23356327.5874
  24437476.312      130467.698 7    100090.70144  24437481.235    24437494.6504
  20979634.616   -20485231.924 9 -15945695.41448  20979637.902    20979647.0844
  22958178.723    -9864876.440 8  -7673201.72646  22958181.268    22958192.3434
 00  5 15  0 27  0.0000000  0  7 09 17 26 21 03 23 29
  20817474.179   -19005786.492 9 -14794861.52248  20817476.603    20817485.6424
  20652049.109   -22210939.661 9 -17288402.14147  20652053.470    20652063.4474
  22818624.606   -11614855.272 8  -9037071.01446  22818629.708    22818638.8524
  23341242.924    -9014458.944 8  -7006875.72046  23341245.397    23341256.4874
  24441131.495      149660.310 7    115045.99444  24441134.307    24441145.1964
  20974186.387   -20513871.354 9 -15968011.80748  20974187.975    20974197.1234
  22943713.149    -9940895.096 8  -7732436.87146  22943715.280    22943727.1404
 00  5 15  0 27 30.0000000  0  7 09 17 26 21 03 23 29
  20812970.415   -19029453.870 9 -14813303.58048  20812972.682    20812981.8094
  20663964.331   -22148338.153 9 -17239621.77347  20663966.274    20663975.8334
  22836296.474   -11521985.389 8  -8964704.90846  22836302.377    22836311.5164
  23326176.695    -9093645.727 8  -7068579.56946  23326177.673    23326187.6204
  24444875.741      169323.110 7    130367.64845  24444877.667    24444887.9594
  20968769.937   -20542323.953 9 -15990182.61848  20968773.544    20968782.6354
  22929288.906   -10016692.372 8  -7791499.52046  22929291.131    22929303.6544
 00  5 15  0 28  0.0000000  0  7 09 17 26 21 03 23 29
  20808586.318   -19052491.264 9 -14831254.74148  20808588.912    20808597.8484
  20675978.985   -22085188.157 9 -17190414.00548  20675983.218    20675993.1114
  22853985.570   -11429043.190 8  -8892282.43246  22853988.399    22853997.6614
  23311106.036    -9172821.987 8  -7130275.20146  23311110.668    23311120.8784
  24448701.579      189454.344 7    146054.32445  24448707.573    24448718.5764
  20963393.546   -20570588.685 9 -16012207.02948  20963394.935    20963403.9674
  22914903.682   -10092267.912 8  -7850389.39346  22914909.374    22914921.1884
 00  5 15  0 28 30.0000000  0  7 09 17 26 21 03 23 29
  20804321.987   -19074897.677 9 -14848714.22048  20804325.286    20804334.0474
  20688102.432   -22021491.427 9 -17140780.22747  20688104.397    20688114.5324
  22871681.847   -11336030.372 8  -8819804.95146  22871688.590    22871697.7944
  23296038.165    -9251986.705 8  -7191961.86846  23296044.591    23296055.6704
  24452626.829      210052.765 7    162104.98645  24452623.704    24452639.0834
  20958049.552   -20598664.503 9 -16034084.23648  20958052.007    20958061.1284
  22900567.915   -10167620.998 8  -7909105.91746  22900570.474    22900581.4124
 00  5 15  0 29  0.0000000  0  7 09 17 26 21 03 23 29
  20800178.279   -19096672.025 9 -14865681.18248  20800181.755    20800190.3584
  20700325.600   -21957249.247 9 -17090721.41847  20700329.351    20700339.0764
  22889397.985   -11242948.674 8  -8747273.80346  22889401.252    22889411.3914
  23280977.183    -9331139.265 8  -7253639.03746  23280981.188    23280994.1084
  24456631.270      231116.584 7    178518.33944  24456634.264    24456646.2044
  20952742.684   -20626550.438 9 -16055813.47648  20952745.475    20952754.4274
  22886269.566   -10242751.350 8  -7967648.90846  22886272.679    22886285.3194
 00  5 15  0 29 30.0000000  0  7 09 17 26 21 03 23 29
  20796155.057   -19117813.710 9 -14882155.16848  20796158.178    20796167.3714
  20712653.701   -21892463.317 9 -17040238.91247  20712657.731    20712667.4154
  22907122.459   -11149799.893 8  -8674690.37346  22907127.286    22907136.2254
  23265919.790    -9410278.223 8  -7315305.62146  23265923.171    23265934.6264
  24460726.449      252644.207 7    195293.08345  24460731.630    24460743.6294
  20947473.245   -20654245.540 9 -16077394.01048  20947475.074    20947484.1684
  22872013.245   -10317658.635 8  -8026018.07246  22872019.080    22872030.1614
 00  5 15  0 30  0.0000000  0  7 09 17 26 21 03 23 29
  20792252.551   -19138322.033 9 -14898135.62048  20792255.645    20792264.6794
  20725086.758   -21827135.422 9 -16989334.10547  20725089.246    20725098.5934
  22924863.325   -11056585.640 8  -8602055.94746  22924865.223    22924874.9454
  23250861.661    -9489403.474 8  -7376961.57946  23250866.029    23250876.7554
  24464912.147      274634.053 7    212428.00345  24464916.743    24464928.8884
  20942237.275   -20681748.769 9 -16098825.04948  20942241.377    20942250.3704
  22857801.115   -10392342.341 8  -8084213.02146  22857807.377    22857818.2324
 00  5 15  0 30 30.0000000  0  7 09 17 26 21 03 23 29
  20788471.282   -19158195.865 9 -14913621.67148  20788473.846    20788482.9634
  20737620.106   -21761267.207 9 -16938008.27447  20737623.312    20737633.1164
  22942613.169   -10963307.436 8  -8529371.65946  22942615.681    22942626.0584
  23235805.985    -9568514.290 8  -7438606.25746  23235810.417    23235822.9114
  24469180.372      297084.470 7    229921.80544  24469185.454    24469198.7224
  20937041.659   -20709059.087 9 -16120105.76048  20937044.761    20937053.5174
  22843635.285   -10466802.193 8  -8142233.54246  22843637.952    22843648.3064
 00  5 15  0 31  0.0000000  0  7 09 17 26 21 03 23 29
  20784807.481   -19177434.624 9 -14928612.85948  20784812.713    20784821.8154
  20750256.974   -21694860.412 9 -16886262.76847  20750260.366    20750270.1994
  22960376.441   -10869967.085 8  -8456638.97046  22960377.802    22960387.6694
  23220757.714    -9647609.121 8  -7500238.50546  23220759.656    23220771.1784
  24473545.573      319993.952 7    247773.29945  24473544.878    24473560.6714
  20931882.087   -20736175.548 9 -16141235.40648  20931884.451    20931893.2274
  22829506.737   -10541037.624 8  -8200079.18846  22829510.892    22829521.8214
 00  5 15  0 31 30.0000000  0  7 09 17 26 21 03 23 29
  20781269.990   -19196037.508 9 -14943108.55848  20781272.815    20781281.8464
  20762993.561   -21627916.728 9 -16834098.90847  20762999.083    20763009.4994
  22978151.699   -10776566.295 8  -8383859.18046  22978151.957    22978161.8004
  23205707.725    -9726687.549 8  -7561857.98246  23205711.743    23205723.2124
  24477991.604      343360.751 7    265981.12745  24477992.055    24478007.3744
  20926759.105   -20763097.245 9 -16162213.29948  20926761.485    20926770.1114
  22815424.621   -10615048.212 8  -8257749.60946  22815426.767    22815438.0964
 00  5 15  0 32  0.0000000  0  7 09 17 26 21 03 23 29
  20777849.173   -19214003.565 9 -14957108.02448  20777853.651    20777862.3324
  20775837.821   -21560437.998 9 -16781518.16747  20775840.023    20775850.3734
  22995933.693   -10683106.572 8  -8311033.44046  22995935.902    22995946.2344
  23190661.076    -9805748.863 8  -7623464.12946  23190666.168    23190678.5444
  24482519.930      367183.492 7    284544.27545  24482527.568    24482540.9574
  20921672.456   -20789823.330 9 -16183038.77248  20921674.996    20921684.2264
  22801378.997   -10688833.888 8  -8315244.77646  22801385.170    22801397.6544
 00  5 15  0 32 30.0000000  0  7 09 17 26 21 03 23 29
  20774551.529   -19231332.109 9 -14970610.72948  20774556.430    20774565.2094
  20788775.960   -21492426.028 9 -16728521.92147  20788782.308    20788792.4234
  23013724.672   -10589589.670 8  -8238163.15946  23013731.676    23013742.2904
  23175623.498    -9884792.022 8  -7685056.09746  23175623.825    23175636.7844
  24487141.328      391460.628 7    303461.43745  24487146.621    24487159.6784
  20916624.151   -20816352.608 9 -16203710.87948  20916626.798    20916636.1204
  22787384.351   -10762394.036 8  -8372564.18446  22787386.937    22787399.3324
 00  5 15  0 33  0.0000000  0  7 09 17 26 21 03 23 29
  20771377.504   -19248022.597 9 -14983616.25948  20771380.111    20771389.3034
  20801823.470   -21423882.576 9 -16675111.53847  20801825.838    20801835.7364
  23031533.931   -10496016.998 8  -8165249.39046  23031538.419    23031548.1414
  23160581.892    -9963815.961 8  -7746633.08146  23160586.310    23160598.9794
  24491846.248      416190.385 7    322731.32645  24491852.910    24491866.9994
  20911613.849   -20842683.968 9 -16224228.75948  20911616.370    20911625.1344
  22773426.734   -10835728.373 8  -8429707.65146  22773431.763    22773443.6094
 00  5 15  0 33 30.0000000  0  7 09 17 26 21 03 23 29
  20768323.436   -19264074.280 9 -14996124.01748  20768325.962    20768334.3384
  20814967.442   -21354809.372 9 -16621288.34647  20814970.437    20814979.6714
  23049350.402   -10402390.404 8  -8092293.61846  23049354.492    23049365.2204
  23145546.590   -10042819.762 8  -7808194.39946  23145553.495    23145564.9224
  24496649.499      441371.188 7    342352.60745  24496645.395    24496659.6934
  20906642.924   -20868816.354 9 -16244591.60248  20906643.667    20906652.3574
  22759515.319   -10908836.518 8  -8486674.84846  22759520.016    22759531.7254
 00  5 15  0 34  0.0000000  0  7 09 17 26 21 03 23 29
  20765391.983   -19279486.609 9 -15008133.57648  20765392.671    20765401.2564
  20828212.817   -21285208.431 9 -16567053.91847  20828215.121    20828225.0764
  23067172.075   -10308711.396 8  -8019297.02646  23067181.507    23067191.0704
  23130516.062   -10121802.854 8  -7869739.60146  23130522.784    23130534.6954
  24501514.553      467000.756 7    362323.66045  24501521.740    24501536.3284
  20901706.866   -20894748.960 9 -16264798.79348  20901708.688    20901717.1844
  22745646.577   -10981718.044 8  -8543465.48046  22745651.132    22745663.3294
 00  5 15  0 34 30.0000000  0  7 09 17 26 21 03 23 29
  20762577.530   -19294259.028 9 -15019644.49848  20762581.404    20762590.5504
  20841557.032   -21215081.428 9 -16512409.55347  20841559.882    20841569.5624
  23085016.304   -10214981.660 8  -7946260.88646  23085017.441    23085026.3954
  23115491.900   -10200764.038 8  -7931267.70246  23115497.257    23115509.4794
  24506486.634      493077.754 7    382643.30845  24506483.651    24506496.5754
  20896807.774   -20920480.802 9 -16284849.54848  20896811.745    20896820.6724
  22731822.833   -11054372.867 8  -8600079.45946  22731824.592    22731836.7854
 00  5 15  0 35  0.0000000  0  7 09 17 26 21 03 23 29
  20759888.443   -19308390.970 9 -15030656.35248  20759892.282    20759901.5764
  20855001.940   -21144430.466 9 -16457356.88747  20855004.532    20855014.3844
  23102863.580   -10121202.668 8  -7873186.36546  23102863.590    23102872.5014
  23100475.399   -10279702.633 8  -7992778.21946  23100476.511    23100488.0444
  24511530.532      519600.420 7    403310.21545  24511530.794    24511545.8314
  20891950.741   -20946010.615 9 -16304742.87048  20891953.580    20891962.6804
  22718034.171   -11126800.458 8  -8656516.38446  22718041.092    22718053.5184
 00  5 15  0 35 30.0000000  0  7 09 17 26 21 03 23 29
  20757321.936   -19321881.870 9 -15041168.68748  20757324.938    20757333.9104
  20868545.953   -21073257.352 9 -16401897.35147  20868547.873    20868558.2764
  23120713.894   -10027375.969 8  -7800074.67146  23120717.955    23120726.5464
  23085457.003   -10358617.572 8  -8054270.27046  23085459.702    23085470.6394
  24516660.585      546566.981 7    424323.04445  24516662.757    24516677.0954
  20887129.714   -20971337.359 9 -16324477.96748  20887134.377    20887143.5284
  22704299.763   -11199000.586 8  -8712776.07446  22704302.546    22704315.2884
 00  5 15  0 36  0.0000000  0  7 09 17 26 21 03 23 29
  20754875.915   -19334731.124 9 -15051181.05048  20754879.986    20754888.4524
  20882188.376   -21001563.935 9 -16346032.38647  20882190.530    20882201.1604
  23138580.523    -9933503.203 8  -7726927.07146  23138580.728    23138590.3094
  23070446.114   -10437508.054 8  -8115743.28446  23070447.966    23070457.9444
  24521879.140      573975.748 7    445680.44845  24521878.797    24521892.1154
  20882348.789   -20996459.961 9 -16344054.01248  20882353.469    20882362.6664
  22690605.479   -11270972.698 8  -8768858.09446  22690607.443    22690619.5254
 00  5 15  0 36 30.0000000  0  7 09 17 26 21 03 23 29
  20752554.937   -19346938.358 9 -15060693.13448  20752557.050    20752565.2014
  20895928.155   -20929352.089 9 -16289763.39347  20895932.074    20895942.6064
  23156449.686    -9839585.898 8  -7653744.78446  23156453.556    23156461.9134
  23055434.528   -10516373.084 8  -8177196.49246  23055439.973    23055450.5084
  24527173.025      601824.928 7    467380.98845  24527178.009    24527192.2004
  20877608.452   -21021377.676 9 -16363470.44048  20877612.253    20877620.9654
  22676947.329   -11342716.643 8  -8824762.31546  22676953.848    22676966.3994
 00  5 15  0 37  0.0000000  0  7 09 17 26 21 03 23 29
  20750353.336   -19358503.033 9 -15069704.52348  20750356.058    20750364.7494
  20909768.193   -20856623.784 9 -16233091.97047  20909771.881    20909781.8574
  23174329.891    -9745625.481 8  -7580528.88446  23174333.341    23174342.3144
  23040433.346   -10595211.539 8  -8238628.95146  23040436.458    23040448.2874
  24532557.551      630112.475 7    489423.16344  24532561.311    24532574.2014
  20872907.982   -21046089.258 9 -16382726.23748  20872909.861    20872918.5064
  22663345.058   -11414231.996 8  -8880488.39346  22663345.554    22663357.3004
 00  5 15  0 37 30.0000000  0  7 09 17 26 21 03 23 29
  20748273.500   -19369424.872 9 -15078215.00248  20748277.535    20748286.6674
  20923707.339   -20783381.006 9 -16176019.67247  20923709.470    20923719.6684
  23192219.639    -9651623.673 8  -7507280.72946  23192221.173    23192231.1644
  23025436.995   -10674022.963 8  -8300040.37046  23025439.158    23025450.7834
  24538018.983      658836.617 7    511805.52344  24538025.351    24538041.7644
  20868242.500   -21070593.241 9 -16401820.26848  20868246.662    20868255.4594
  22649778.912   -11485518.465 8  -8936036.07046  22649780.776    22649790.8754
 00  5 15  0 38  0.0000000  0  7 09 17 26 21 03 23 29
  20746318.231   -19379703.251 9 -15086224.08348  20746321.981    20746330.8104
  20937740.144   -20709625.866 9 -16118548.12647  20937744.514    20937754.7714
  23210113.341    -9557581.996 8  -7434001.52546  23210116.568    23210126.2234
  23010443.330   -10752806.096 8  -8361429.72546  23010447.167    23010459.1534
  24543574.371      687995.492 7    534526.62544  24543574.583    24543589.7164
  20863620.437   -21094888.870 9 -16420751.95048  20863623.047    20863632.2024
  22636254.668   -11556575.978 8  -8991405.34946  22636258.380    22636270.1844
 00  5 15  0 38 30.0000000  0  7 09 17 26 21 03 23 29
  20744482.778   -19389338.058 9 -15093731.66848  20744488.310    20744496.9874
  20951872.821   -20635360.534 9 -16060679.07447  20951876.899    20951887.0994
  23228015.164    -9463501.781 8  -7360692.29246  23228019.969    23228029.2154
  22995456.466   -10831560.136 8  -8422796.42046  22995460.368    22995473.4274
  24549210.337      717587.118 7    557584.96644  24549205.566    24549221.1724
  20859036.997   -21118975.183 9 -16439520.51948  20859039.678    20859048.4124
  22622777.278   -11627404.057 8  -9046595.87746  22622779.618    22622792.2594
 00  5 15  0 39  0.0000000  0  7 09 17 26 21 03 23 29
  20742773.477   -19398329.018 9 -15100737.56148  20742777.438    20742785.9344
  20966101.530   -20560586.856 9 -16002413.90247  20966105.682    20966116.0144
  23245925.587    -9369384.584 8  -7287354.22146  23245929.829    23245938.6954
  22980476.028   -10910284.067 8  -8484139.65146  22980479.736    22980491.5894
  24554918.832      747609.768 7    580979.11644  24554921.512    24554933.0004
  20854494.639   -21142851.043 9 -16458125.09848  20854496.455    20854505.1954
  22609341.182   -11698002.595 8  -9101607.57046  22609345.498    22609356.5334
 00  5 15  0 39 30.0000000  0  7 09 17 26 21 03 23 29
  20741185.717   -19406675.683 9 -15107241.40948  20741189.121    20741197.5084
  20980429.278   -20485306.871 9 -15943754.22847  20980431.443    20980440.9864
  23263846.778    -9275231.977 8  -7213988.56746  23263846.428    23263855.9404
  22965501.121   -10988976.723 8  -8545458.50646  22965505.541    22965516.6564
  24560714.840      778061.520 7    604707.65244  24560715.810    24560731.1254
  20849990.547   -21166515.177 9 -16476564.68148  20849993.255    20850002.1054
  22595953.070   -11768371.168 8  -9156440.09746  22595955.686    22595965.7414
 00  5 15  0 40  0.0000000  0  7 09 17 26 21 03 23 29
  20739721.672   -19414377.751 9 -15113242.97248  20739723.472    20739731.8754
  20994849.544   -20409522.616 9 -15884701.61447  20994852.824    20994862.8224
  23281766.836    -9181045.432 8  -7140596.47346  23281770.033    23281778.8864
  22950532.054   -11067637.140 8  -8606752.25046  22950537.253    22950548.6804
  24566586.100      808940.368 7    628768.97144  24566591.739    24566604.1974
  20845526.809   -21189966.544 9 -16494838.49948  20845530.639    20845539.4834
  22582607.217   -11838509.432 8  -9211093.15946  22582608.342    22582618.5304
 00  5 15  0 40 30.0000000  0  8 09 17 26 21 03 23 15 29
  20738377.885   -19421435.058 9 -15118742.12948  20738380.686    20738389.2024
  21009367.087   -20333236.012 9 -15825257.55547  21009369.542    21009379.2914
  23299694.168    -9086826.376 8  -7067179.04946  23299698.827    23299707.3464
  22935575.006   -11146264.296 8  -8668020.06846  22935573.514    22935585.8124
  24572552.345      840244.402 7    653161.67144  24572545.514    24572560.8964
  20841105.649   -21213204.093 9 -16512945.68348  20841108.667    20841117.5884
  24183448.780     -361105.50317   -239024.71455  24183459.865    24183474.9534
  22569302.249   -11908417.305 8  -9265566.70346  22569304.383    22569315.1294
 00  5 15  0 41  0.0000000  0  8 09 17 26 21 03 23 15 29
  20737157.293   -19427847.275 9 -15123738.62148  20737160.502    20737168.9074
  21023978.122   -20256449.265 9 -15765423.74747  21023981.620    21023991.4264
  23317626.442    -8992576.301 8  -6993737.43546  23317633.863    23317643.1394
  22920613.219   -11224857.125 8  -8729261.14046  22920617.610    22920631.0084
  24578566.375      871971.672 7    677884.07644  24578584.282    24578596.5574
  20836724.087   -21236226.909 9 -16530885.52348  20836727.489    20836736.3604
  24163225.400     -467399.166 7   -321850.87845  24163233.151    24163247.3694
  22556041.704   -11978094.481 8  -9319860.47646  22556045.295    22556055.8524
 00  5 15  0 41 30.0000000  0  8 09 17 26 21 03 23 15 29
  20736060.402   -19433614.146 9 -15128232.24148  20736062.881    20736071.3004
  21038684.866   -20179164.530 9 -15705201.88647  21038688.533    21038698.4224
  23335570.582    -8898296.622 8  -6920272.77646  23335574.956    23335584.4084
  22905667.734   -11303414.297 8  -8790474.40846  22905669.303    22905681.1454
  24584698.665      904120.492 7    702935.04344  24584701.627    24584717.4064
  20832385.400   -21259033.799 9 -16548657.10148  20832387.886    20832396.2964
  24143042.154     -573500.610 7   -404527.28645  24143042.584    24143056.0334
  22542824.079   -12047540.443 8  -9373974.09346  22542830.136    22542841.2374
 00  5 15  0 42  0.0000000  0  8 09 17 26 21 03 23 15 29
  20735083.658   -19438735.516 9 -15132222.86848  20735088.111    20735096.6014
  21053486.213   -20101383.856 9 -15644593.54347  21053489.591    21053499.8234
  23353520.886    -8803988.874 8  -6846786.23046  23353520.259    23353530.6224
  22890719.579   -11381935.425 8  -8851659.61846  22890726.814    22890738.3414
  24590900.025      936688.525 7    728312.66644  24590899.975    24590916.2094
  20828086.371   -21281623.683 9 -16566259.58048  20828089.182    20828097.4354
  24122885.162     -679406.943 7   -487051.70045  24122889.883    24122902.6004
  22529655.942   -12116755.313 8  -9427907.63446  22529659.315    22529669.0504
 00  5 15  0 42 30.0000000  0  8 09 17 26 21 03 23 15 29
  20734232.515   -19443211.133 9 -15135710.31948  20734236.549    20734245.2044
  21068380.738   -20023109.813 9 -15583600.73947  21068384.435    21068395.1914
  23371463.616    -8709654.376 8  -6773278.86046  23371471.848    23371481.4904
  22875788.928   -11460419.196 8  -8912815.72846  22875792.257    22875803.2264
  24597174.982      969673.887 7    754015.47944  24597181.068    24597190.1104
  20823828.750   -21303995.578 9 -16583692.20448  20823831.507    20823840.2714
  24102774.087     -785115.579 7   -569421.99945  24102774.529    24102785.7144
  22516527.106   -12185738.903 8  -9481660.96346  22516531.328    22516542.4414
 00  5 15  0 43  0.0000000  0  8 09 17 26 21 03 23 15 29
  20733503.702   -19447041.342 9 -15138694.86148  20733506.902    20733516.0674
  21083370.366   -19944344.308 9 -15522225.09647  21083373.161    21083383.5294
  23389424.586    -8615294.613 8  -6699751.78046  23389427.772    23389437.9814
  22860861.647   -11538864.942 8  -8973942.22846  22860864.510    22860875.6454
  24603536.246     1003074.515 7    780041.87744  24603532.028    24603550.8844
  20819613.450   -21326148.282 9 -16600954.02948  20819615.997    20819624.9224
  24082695.020     -890623.491 7   -651635.88045  24082698.194    24082708.0494
  22503444.576   -12254490.455 8  -9535233.47846  22503448.295    22503459.8114
 00  5 15  0 43 30.0000000  0  7 09 17 26 21 23 15 29
  20732895.290   -19450226.106 9 -15141176.44048  20732900.937    20732909.9914
  21098452.126   -19865089.443 9 -15460468.04547  21098455.017    21098465.1324
  23407381.834    -8520910.940 8  -6626206.09946  23407388.553    23407399.0464
  22845945.445   -11617271.173 8  -9035037.89546  22845945.326    22845955.3724
  20815438.692   -21348080.613 9 -16618044.10648  20815442.497    20815451.2684
  24062655.160     -995927.782 7   -733691.12245  24062658.794    24062669.4294
  22490408.016   -12323010.245 8  -9588625.41646  22490409.979    22490419.1274
 00  5 15  0 44  0.0000000  0  7 09 17 26 21 23 15 29
  20732416.415   -19452765.239 9 -15143154.93848  20732418.313    20732426.5354
  21113625.487   -19785347.558 9 -15398331.53847  21113629.448    21113639.2534
  23425351.501    -8426504.814 8  -6552642.92046  23425352.607    23425362.9394
  22831029.584   -11695636.503 8  -9096101.71846  22831033.073    22831042.3344
  20811307.455   -21369791.483 9 -16634961.58948  20811310.658    20811319.9844
  24042660.636    -1101025.527 7   -815585.43645  24042658.735    24042670.6354
  22477412.213   -12391297.704 8  -9641836.32546  22477415.607    22477424.9794
 00  5 15  0 44 30.0000000  0  7 09 17 26 21 23 15 29
  20732053.416   -19454658.507 9 -15144630.16448  20732057.596    20732066.4134
  21128891.817   -19705120.659 9 -15335817.10347  21128895.864    21128905.6184
  23443313.955    -8332077.570 8  -6479063.27646  23443322.231    23443331.2814
  22816124.755   -11773959.907 8  -9157132.83846  22816127.236    22816138.2454
  20807219.643   -21391279.847 9 -16651705.70148  20807221.754    20807230.5314
  24022697.016    -1205914.010 7   -897316.65945  24022698.096    24022711.8244
  22464458.901   -12459352.991 8  -9694866.28646  22464464.326    22464475.0364
 00  5 15  0 45  0.0000000  0  7 09 17 26 21 23 15 29
  20731814.596   -19455905.994 9 -15145602.18248  20731820.195    20731828.7634
  21144251.241   -19624411.169 9 -15272926.62547  21144254.628    21144264.8054
  23461294.180    -8237630.654 8  -6405468.27246  23461295.185    23461304.6404
  22801228.424   -11852240.693 8  -9218130.76546  22801230.385    22801241.1404
  20803173.375   -21412544.549 9 -16668275.54748  20803175.631    20803183.9274
  24002775.413    -1310590.409 7   -978882.53545  24002778.053    24002793.1624
  22451553.711   -12527175.511 8  -9747714.90046  22451557.323    22451569.0244
 00  5 15  0 45 30.0000000  0  7 09 17 26 21 23 15 29
  20731701.744   -19456507.939 9 -15146071.18648  20731705.792    20731714.3444
  21159700.490   -19543221.280 9 -15209661.83147  21159704.296    21159714.4324
  23479266.246    -8143165.272 8  -6331858.92246  23479271.480    23479281.0934
  22786336.313   -11930477.717 8  -9279094.58046  22786342.437    22786353.6624
  20799167.177   -21433584.431 9 -16684670.21148  20799171.270    20799180.1504
  23982899.465    -1415052.004 7  -1060281.10545  23982900.393    23982914.1974
  22438693.739   -12594765.198 8  -9800382.07446  22438696.235    22438706.1594
 00  5 15  0 46  0.0000000  0  7 09 17 26 21 23 15 29
  20731711.282   -19456464.179 9 -15146037.04048  20731713.867    20731722.9974
  21175243.564   -19461553.457 9 -15146024.58847  21175245.554    21175255.3674
  23497251.239    -8048683.105 8  -6258236.48846  23497250.496    23497260.4314
  22771461.916   -12008669.887 8  -9340023.49446  22771463.892    22771473.7954
  20795207.322   -21454398.505 9 -16700888.91948  20795210.645    20795219.3234
  23963056.830    -1519296.188 7  -1141510.25545  23963063.280    23963077.1174
  22425874.269   -12662122.052 8  -9852867.84246  22425878.106    22425888.9064
 00  5 15  0 46 30.0000000  0  7 09 17 26 21 23 15 29
  20731840.537   -19455774.868 9 -15145499.87048  20731845.213    20731853.7094
  21190874.896   -19379409.771 9 -15082016.55247  21190876.889    21190887.0334
  23515226.430    -7954185.163 8  -6184601.75145  23515233.410    23515242.9084
  22756587.987   -12086815.999 8  -9400916.44346  22756591.720    22756602.6504
  20791290.318   -21474985.587 9 -16716930.75048  20791293.057    20791301.6944
  23943263.421    -1623319.796 7  -1222567.54845  23943268.762    23943281.1564
  22413100.652   -12729245.644 8  -9905171.83046  22413105.721    22413115.7564
 00  5 15  0 47  0.0000000  0  7 09 17 26 21 23 15 29
  20732097.466   -19454440.005 9 -15144459.67448  20732099.376    20732107.8254
  21206590.966   -19296792.475 9 -15017639.48047  21206598.266    21206608.0524
  23533213.124    -7859672.947 8  -6110955.86745  23533218.334    23533227.9164
  22741726.235   -12164914.829 8  -9461772.55846  22741730.306    22741740.5184
  20787416.557   -21495344.575 9 -16732794.86948  20787418.858    20787427.4594
  23923518.383    -1727120.042 8  -1303450.78445  23923516.110    23923530.2614
  22400375.018   -12796135.754 8  -9957293.87346  22400376.111    22400387.3304
 00  5 15  0 47 30.0000000  0  7 09 17 26 21 23 15 29
  20732472.498   -19452459.934 9 -15142916.71948  20732475.977    20732484.3694
  21222406.817   -19213703.994 9 -14952895.24147  21222409.798    21222419.4524
  23551205.306    -7765147.747 8  -6037299.93845  23551204.975    23551215.8114
  22726875.872   -12242965.331 8  -9522591.03846  22726878.289    22726888.7474
  20783585.262   -21515474.209 9 -16748480.26348  20783588.243    20783597.0124
  23903806.927    -1830694.001 7  -1384157.70145  23903807.400    23903820.0564
  22387684.376   -12862792.480 8 -10009234.05946  22387691.363    22387703.1534
 00  5 15  0 48  0.0000000  0  7 09 17 26 21 23 15 29
  20732974.842   -19449835.033 9 -15140871.30348  20732975.527    20732983.6914
  21238309.142   -19130146.741 9 -14887785.72547  21238310.288    21238319.7714
  23569187.121    -7670610.934 8  -5963634.90545  23569194.944    23569204.9184
  22712031.117   -12320966.126 8  -9583370.78746  22712035.504    22712046.0144
  20779796.785   -21535373.199 9 -16763985.93148  20779801.767    20779810.3134
  23884144.362    -1934038.987 7  -1464686.20545  23884142.374    23884152.6654
  22375046.950   -12929215.329 8 -10060992.00846  22375051.884    22375062.3364
 00  5 15  0 48 30.0000000  0  7 09 17 26 21 23 15 29
  20733594.256   -19446565.186 9 -15138323.32748  20733597.782    20733605.9784
  21254294.993   -19046123.045 9 -14822312.75647  21254299.398    21254309.4824
  23587186.710    -7576063.803 8  -5889961.84445  23587186.685    23587195.8024
  22697201.344   -12398916.505 8  -9644111.24346  22697201.915    22697211.2744
  20776056.516   -21555040.542 9 -16779311.10148  20776059.360    20776067.4204
  23864516.531    -2037152.076 7  -1545034.02045  23864520.405    23864531.9194
  22362451.617   -12995404.238 8 -10112567.68446  22362455.628    22362466.3814
 00  5 15  0 49  0.0000000  0  7 09 17 26 21 23 15 29
  20734340.374   -19442650.722 9 -15135273.04848  20734342.352    20734351.2244
  21270373.245   -18961635.297 9 -14756478.18847  21270376.533    21270387.0334
  23605164.682    -7481507.565 7  -5816281.66645  23605179.414    23605190.8004
  22682376.982   -12476815.086 8  -9704811.32246  22682378.092    22682388.6724
  20772358.935   -21574475.105 9 -16794454.88348  20772360.801    20772369.1014
  23844928.976    -2140030.382 7  -1625198.82245  23844941.492    23844954.5734
  22349902.539   -13061359.273 8 -10163961.09246  22349904.880    22349916.4454
 00  5 15  0 49 30.0000000  0  7 09 17 26 21 23 15 29
  20735206.616   -19438092.085 9 -15131720.81748  20735209.867    20735218.5734
  21286536.237   -18876685.828 8 -14690283.82747  21286541.791    21286552.3774
  23623174.295    -7386943.518 8  -5742595.42845  23623175.097    23623185.0234
  22667563.224   -12554660.867 8  -9765470.20546  22667564.885    22667573.7924
  20768704.579   -21593675.808 9 -16809416.43348  20768706.547    20768715.2644
  23825401.638    -2242670.951 7  -1705178.37945  23825409.084    23825422.1584
  22337398.879   -13127080.046 8 -10215171.97746  22337399.127    22337410.0664
 00  5 15  0 50  0.0000000  0  7 09 17 26 21 23 15 29
  20736196.223   -19432889.524 9 -15127666.80948  20736200.093    20736208.3844
  21302794.486   -18791277.010 9 -14623731.54847  21302795.152    21302805.2184
  23641165.537    -7292373.036 8  -5668904.17345  23641171.639    23641182.6124
  22652754.766   -12632452.516 8  -9826086.91746  22652760.978    22652771.0394
  20765095.955   -21612641.657 9 -16824194.99748  20765097.732    20765106.3104
  23805920.040    -2345071.376 7  -1784970.84345  23805922.752    23805937.1494
  22324931.354   -13192566.461 8 -10266200.24546  22324937.233    22324947.8284
 00  5 15  0 50 30.0000000  0  7 09 17 26 21 23 15 29
  20737307.703   -19427043.433 9 -15123111.37448  20737312.229    20737320.5754
  21319132.506   -18705411.304 9 -14556823.23247  21319134.759    21319144.5834
  23659172.562    -7197797.298 8  -5595208.82745  23659168.606    23659179.0624
  22637968.495   -12710188.476 8  -9886660.23046  22637968.928    22637978.8774
  20761531.760   -21631371.303 9 -16838789.51048  20761534.068    20761542.0854
  23786472.777    -2447228.795 7  -1864574.00445  23786482.586    23786497.2574
  22312516.030   -13257818.477 8 -10317045.86746  22312520.021    22312530.3134
 00  5 15  0 51  0.0000000  0  7 09 17 26 21 23 15 29
  20738542.767   -19420554.085 9 -15118054.70148  20738547.030    20738555.7554
  21335555.244   -18619090.994 9 -14489560.69347  21335560.681    21335571.4194
  23677163.122    -7103217.677 8  -5521510.44145  23677166.871    23677177.2134
  22623184.370   -12787867.899 8  -9947189.54146  22623186.466    22623195.6494
  20758013.322   -21649863.564 9 -16853199.03748  20758014.812    20758023.1514
  23767086.258    -2549139.822 8  -1943985.10345  23767090.747    23767104.0144
  22300144.117   -13322835.786 8 -10367708.60946  22300147.722    22300157.9874
 00  5 15  0 51 30.0000000  0  7 09 17 26 21 23 15 29
  20739900.624   -19413421.799 9 -15112497.02648  20739904.650    20739912.6164
  21352070.734   -18532318.514 8 -14421945.82547  21352072.904    21352083.3564
  23695164.735    -7008635.332 8  -5447809.95345  23695166.729    23695174.6354
  22608412.173   -12865489.310 8 -10007673.62846  22608415.009    22608425.8464
  20754538.914   -21668117.306 9 -16867422.70348  20754541.149    20754549.3224
  23747749.718    -2650801.923 8  -2023202.19445  23747744.857    23747758.3144
  22287819.560   -13387618.363 8 -10418188.40646  22287820.300    22287829.8674
 00  5 15  0 52  0.0000000  0  7 09 17 26 21 23 15 29
  20741381.467   -19405647.108 9 -15106438.78848  20741383.813    20741391.9094
  21368666.385   -18445096.455 8 -14353980.62347  21368670.902    21368681.1974
  23713158.980    -6914051.643 8  -5374108.37345  23713164.715    23713173.5864
  22593650.415   -12943051.832 8 -10068111.84146  22593655.883    22593665.4234
  20751108.389   -21686131.301 9 -16881459.58048  20751113.218    20751121.7354
  23728443.127    -2752212.153 8  -2102223.03845  23728447.623    23728461.1084
  22275533.494   -13452166.037 8 -10468485.18546  22275536.854    22275546.7584
 00  5 15  0 52 30.0000000  0  7 09 17 26 21 23 15 29
  20742982.561   -19397230.584 9 -15099880.42748  20742985.300    20742993.8314
  21385352.155   -18357427.345 8 -14285667.08047  21385353.877    21385364.1294
  23731156.659    -6819467.745 8  -5300406.65645  23731162.888    23731172.4714
  22578905.262   -13020554.113 8 -10128503.08946  22578907.960    22578917.2504
  20747727.173   -21703904.447 9 -16895308.78048  20747731.092    20747739.4464
  23709195.528    -2853367.516 7  -2181045.27145  23709198.175    23709211.5734
  22263292.006   -13516478.655 8 -10518598.80046  22263298.254    22263309.5844
 00  5 15  0 53  0.0000000  0  7 09 17 26 21 23 15 29
  20744706.084   -19388172.464 9 -15092822.11448  20744709.236    20744717.6304
  21402118.751   -18269313.594 8 -14217007.05347  21402121.028    21402131.4134
  23749146.797    -6724884.797 8  -5226705.68945  23749160.755    23749171.1084
  22564166.542   -13097995.238 8 -10188846.69446  22564171.131    22564180.2234
  20744391.558   -21721435.459 9 -16908969.28248  20744394.773    20744403.6174
  23689997.000    -2954265.145 8  -2259666.70345  23689998.364    23690011.1634
  22251101.363   -13580556.194 8 -10568529.23146  22251104.902    22251115.2794
 00  5 15  0 53 30.0000000  0  7 09 17 26 21 23 15 29
  20746550.977   -19378473.157 9 -15085264.18748  20746554.751    20746563.1794
  21418970.805   -18180757.530 8 -14148002.36147  21418973.216    21418983.5354
  23767153.948    -6630303.987 8  -5153006.41945  23767158.891    23767169.2734
  22549439.350   -13175373.615 8 -10249141.45346  22549445.980    22549455.4794
  20741102.365   -21738723.192 9 -16922440.21448  20741104.964    20741113.9274
  23670841.950    -3054902.155 8  -2338085.09645  23670846.769    23670860.5674
  22238952.150   -13644398.520 8 -10618276.37946  22238956.308    22238966.2794
 00  5 15  0 54  0.0000000  0  7 09 17 26 21 23 15 29
  20748518.196   -19368133.150 9 -15077206.99548  20748522.339    20748530.7454
  21435904.775   -18091761.793 8 -14078655.08347  21435908.877    21435919.1334
  23785155.759    -6535726.646 8  -5079309.79945  23785156.811    23785166.1574
  22534732.431   -13252687.860 8 -10309386.18046  22534733.140    22534743.3524
  20737858.356   -21755766.558 9 -16935720.73248  20737861.902    20737870.6304
  23651738.482    -3155275.717 8  -2416298.18145  23651746.025    23651759.9604
  22226847.272   -13708005.390 8 -10667840.07246  22226852.393    22226862.1114
 00  5 15  0 54 30.0000000  0  7 09 17 26 21 23 15 29
  20750608.096   -19357153.172 9 -15068651.13048  20750611.816    20750620.3654
  21452924.844   -18002328.823 8 -14008967.10047  21452927.007    21452937.7334
  23803151.008    -6441153.963 8  -5005616.81645  23803153.489    23803163.0534
  22520030.852   -13329936.776 8 -10369580.02346  22520033.180    22520043.7304
  20734659.711   -21772564.509 9 -16948810.01648  20734665.200    20734673.9364
  23632693.807    -3255382.941 8  -2494303.70645  23632697.439    23632709.9964
  22214790.085   -13771376.885 8 -10717220.34546  22214793.113    22214803.2274
 00  5 15  0 55  0.0000000  0  7 09 17 26 21 23 15 29
  20752818.768   -19345533.913 9 -15059597.13248  20752823.048    20752831.4344
  21470026.425   -17912461.260 8 -13938940.47947  21470027.795    21470038.8244
  23821144.944    -6346586.910 7  -4931928.23645  23821147.871    23821159.3004
  22505338.101   -13407118.791 8 -10429721.79346  22505345.009    22505355.6914
  20731511.322   -21789115.843 9 -16961707.13748  20731515.700    20731524.3534
  23613697.494    -3355220.979 8  -2572099.49545  23613699.397    23613710.7724
  22202773.614   -13834512.948 8 -10766417.14946  22202778.539    22202788.6544
 00  5 15  0 55 30.0000000  0  7 09 17 26 21 23 15 29
  20755150.562   -19333275.960 9 -15050045.44548  20755155.526    20755163.9364
  21487207.796   -17822161.332 8 -13868576.97347  21487211.534    21487222.2934
  23839135.581    -6252026.921 8  -4858245.20145  23839142.516    23839152.5704
  22490668.333   -13484233.002 8 -10489810.68446  22490670.920    22490681.9234
  20728410.432   -21805419.372 9 -16974411.17048  20728413.419    20728421.8524
  23594747.482    -3454786.933 8  -2649683.28645  23594752.801    23594764.8924
  22190808.410   -13897413.466 8 -10815430.43046  22190808.994    22190818.7544
 00  5 15  0 56  0.0000000  0  7 09 17 26 21 23 15 29
  20757607.479   -19320379.911 9 -15039996.54748  20757609.333    20757617.9344
  21504472.932   -17731431.837 8 -13797878.70947  21504477.488    21504487.3794
  23857137.602    -6157475.030 8  -4784568.41545  23857136.636    23857145.5224
  22476006.667   -13561278.511 8 -10549846.04246  22476010.007    22476020.4974
  20725355.446   -21821473.918 9 -16986921.19048  20725358.440    20725366.5014
  23575858.226    -3554077.987 8  -2727052.80345  23575856.284    23575870.2004
  22178881.242   -13960078.057 8 -10864259.85047  22178884.273    22178894.0804
 00  5 15  0 56 30.0000000  0  7 09 17 26 21 23 15 29
  20760180.873   -19306846.138 9 -15029450.72748  20760184.732    20760193.0654
  21521823.562   -17640275.460 8 -13726847.80547  21521823.548    21521834.0934
  23875124.046    -6062932.400 8  -4710898.85145  23875127.398    23875137.2854
  22461358.948   -13638253.872 8 -10609826.71846  22461362.147    22461372.0154
  20722346.980   -21837278.261 9 -16999236.23648  20722351.046    20722359.0264
  23557005.994    -3653091.249 7  -2804205.90545  23557014.631    23557029.1904
  22166998.543   -14022507.045 8 -10912905.67946  22167003.885    22167013.9424
 00  5 15  0 57  0.0000000  0  7 09 17 26 21 23 15 29
  20762877.472   -19292675.819 9 -15018408.88648  20762881.426    20762889.3834
  21539245.587   -17548694.879 8 -13655486.37747  21539250.376    21539260.9944
  23893106.357    -5968400.146 8  -4637237.37445  23893115.443    23893125.5384
  22446723.292   -13715157.512 8 -10669751.56546  22446727.119    22446738.3604
  20719388.586   -21852831.216 9 -17011355.39448  20719391.481    20719399.5424
  23538224.911    -3751823.743 8  -2881140.24345  23538226.862    23538240.3404
  22155166.764   -14084700.141 8 -10961367.71847  22155169.232    22155178.7954
 00  5 15  0 57 30.0000000  0  7 09 17 26 21 23 15 29
  20765696.417   -19277869.385 9 -15006871.37548  20765698.882    20765707.2174
  21556751.611   -17456692.592 8 -13583796.34847  21556758.457    21556768.4924
  23911098.315    -5873879.553 8  -4563584.97045  23911102.808    23911113.6284
  22432104.227   -13791987.573 8 -10729619.08646  22432106.891    22432118.4514
  20716477.032   -21868131.634 9 -17023277.76248  20716479.844    20716488.2124
  23519492.716    -3850272.646 8  -2957853.67445  23519493.925    23519506.5624
  22143378.232   -14146657.265 8 -11009645.88146  22143379.381    22143388.7734
 00  5 15  0 58  0.0000000  0  7 09 17 26 21 23 15 29
  20768631.312   -19262427.690 9 -14994838.85748  20768637.448    20768645.8154
  21574344.179   -17364271.043 8 -13511779.62147  21574345.536    21574355.7864
  23929082.586    -5779371.555 8  -4489942.40145  23929087.033    23929098.2954
  22417493.256   -13868743.161 8 -10789428.55046  22417500.528    22417511.3404
  20713614.035   -21883178.276 9 -17035002.39648  20713616.427    20713625.0164
  23500809.574    -3948434.913 8  -3034343.69245  23500812.212    23500826.6184
  22131629.119   -14208378.627 8 -11057740.32246  22131633.420    22131642.8614
 00  5 15  0 58 30.0000000  0  7 09 17 26 21 23 15 29
  20771693.546   -19246351.622 9 -14982312.02848  20771696.627    20771705.1064
  21592009.082   -17271432.955 8 -13439438.32747  21592011.867    21592022.6304
  23947064.123    -5684877.272 8  -4416310.50945  23947069.544    23947079.1614
  22402910.186   -13945422.963 8 -10849178.95346  22402908.980    22402919.4944
  20710798.826   -21897969.936 9 -17046528.34048  20710801.472    20710810.1324
  23482185.302    -4046307.680 8  -3110608.09345  23482188.059    23482202.4584
  22119929.270   -14269864.025 8 -11105650.92446  22119933.197    22119942.4554
 00  5 15  0 59  0.0000000  0  7 09 17 26 21 23 15 29
  20774868.355   -19229641.953 9 -14969291.47847  20774875.794    20774884.2754
  21609752.939   -17178180.922 8 -13366774.46147  21609757.890    21609767.8304
  23965041.556    -5590397.909 8  -4342690.27345  23965047.966    23965057.9124
  22388327.481   -14022025.926 8 -10908869.43746  22388332.091    22388342.1884
  20708033.536   -21912505.449 9 -17057854.70248  20708035.561    20708044.1704
  23463615.506    -4143888.105 7  -3186644.73145  23463616.723    23463631.8054
  22108273.462   -14331113.343 8 -11153377.53147  22108278.110    22108287.3704
 00  5 15  0 59 30.0000000  0  7 09 17 26 21 23 15 29
  20778174.292   -19212299.373 9 -14955777.75747  20778176.406    20778184.1314
  21627576.110   -17084517.816 8 -13293790.28247  21627581.080    21627591.8644
  23983026.278    -5495934.543 8  -4269082.48345  23983023.624    23983033.1444
  22373766.892   -14098550.773 8 -10968499.07646  22373769.209    22373780.6044
  20705314.862   -21926783.812 9 -17068980.68148  20705318.215    20705326.9124
  23445098.221    -4241173.491 8  -3262451.45045  23445106.352    23445118.7624
  22096664.839   -14392126.433 8 -11200920.10547  22096667.884    22096677.1824
 00  5 15  1  0  0.0000000  0  7 09 17 26 21 23 15 29
  20781594.395   -19194324.878 9 -14941771.63647  20781596.831    20781605.0694
  21645478.222   -16990446.203 8 -13220487.80047  21645482.220    21645493.2284
  24000984.636    -5401488.193 8  -4195487.95745  24000995.403    24001005.4594
  22359219.546   -14174995.682 8 -11028066.44347  22359222.641    22359233.7524
  20702647.747   -21940803.780 9 -17079905.33048  20702650.294    20702658.7654
  23426647.185    -4338160.624 8  -3338025.74245  23426650.341    23426662.4744
  22085095.525   -14452903.466 8 -11248278.69747  22085101.688    22085112.1654
 00  5 15  1  0 30.0000000  0  7 09 17 26 21 23 15 29
  20785132.928   -19175719.167 9 -14927273.65647  20785136.774    20785145.7654
  21663456.222   -16895968.766 8 -13146869.09347  21663461.208    21663471.1944
  24018962.051    -5307060.091 7  -4121907.66845  24018964.174    24018974.2714
  22344684.338   -14251359.077 8 -11087570.28347  22344690.683    22344701.6784
  20700027.381   -21954564.109 9 -17090627.65748  20700031.864    20700040.2824
  23408249.714    -4434846.690 8  -3413365.46045  23408251.071    23408263.3784
  22073579.384   -14513444.349 8 -11295453.29447  22073581.004    22073590.4734
 00  5 15  1  1  0.0000000  0  7 09 17 26 21 23 15 29
  20788796.022   -19156483.225 9 -14912284.58747  20788797.609    20788806.0424
  21681513.464   -16801088.092 8 -13072936.17247  21681515.878    21681527.0984
  24036923.158    -5212651.144 8  -4048342.29145  24036930.772    24036940.1594
  22330172.330   -14327639.645 8 -11147009.55747  22330175.079    22330185.0224
  20697460.463   -21968063.508 9 -17101146.66148  20697463.269    20697471.2344
  23389910.028    -4531228.851 8  -3488468.34945  23389911.351    23389923.1844
  22062102.247   -14573749.094 8 -11342443.88847  22062105.846    22062114.7564
 00  5 15  1  1 30.0000000  0  7 09 17 26 21 23 15 29
  20792575.355   -19136617.981 9 -14896805.15148  20792577.978    20792586.5844
  21699644.854   -16705806.868 8 -12998691.13047  21699647.540    21699657.8244
  24054894.376    -5118262.428 8  -3974792.65545  24054891.567    24054901.8524
  22315673.490   -14403836.673 8 -11206383.73447  22315675.645    22315685.4394
  20694940.790   -21981300.755 9 -17111461.38548  20694943.965    20694952.3244
  23371623.841    -4627304.285 8  -3563332.18445  23371628.253    23371640.6654
  22050671.970   -14633817.458 8 -11389250.30847  22050674.825    22050683.8174
 00  5 15  1  2  0.0000000  0  7 09 17 26 21 23 15 29
  20796474.177   -19116124.527 9 -14880836.20148  20796477.485    20796486.5684
  21717851.490   -16610127.780 8 -12924136.05247  21717855.337    21717865.2664
  24072848.827    -5023894.982 8  -3901259.60845  24072849.884    24072859.1804
  22301187.605   -14479948.195 8 -11265691.33247  22301191.926    22301202.1824
  20692470.077   -21994274.665 9 -17121570.91348  20692475.305    20692483.6284
  23353403.958    -4723070.050 8  -3637954.70045  23353403.307    23353415.4014
  22039286.442   -14693649.781 8 -11435872.77647  22039288.730    22039298.6274
 00  5 15  1  2 30.0000000  0  7 09 17 26 21 23 15 29
  20800493.620   -19095003.892 9 -14864378.54948  20800497.174    20800504.9434
  21736132.720   -16514053.468 8 -12849273.01147  21736137.237    21736147.1724
  24090797.154    -4929550.001 8  -3827744.09845  24090802.778    24090813.3314
  22286724.335   -14555972.858 8 -11324931.23647  22286725.132    22286735.6114
  20690053.523   -22006984.207 9 -17131474.44248  20690056.645    20690065.0424
  23335235.451    -4818523.326 8  -3712333.74245  23335240.236    23335250.4334
  22027944.841   -14753245.838 8 -11482311.14847  22027948.216    22027958.1144
 00  5 15  1  3  0.0000000  0  7 09 17 26 21 23 15 29
  20804631.517   -19073257.008 9 -14847432.90648  20804635.482    20804643.2424
  21754490.861   -16417586.631 8 -12774104.12247  21754493.720    21754504.4094
  24108746.188    -4835228.354 8  -3754246.75245  24108751.596    24108761.1514
  22272271.153   -14631909.290 8 -11384102.37747  22272274.383    22272284.7644
  20687685.870   -22019427.966 9 -17141170.87248  20687688.498    20687697.1414
  23317129.974    -4913661.092 8  -3786466.97345  23317136.399    23317147.6684
  22016644.597   -14812605.478 8 -11528565.32247  22016651.545    22016661.3394
 00  5 15  1  3 30.0000000  0  7 09 17 26 21 23 15 29
  20808891.035   -19050884.992 9 -14830000.14348  20808892.638    20808900.6504
  21772919.390   -16320730.045 8 -12698631.52747  21772924.865    21772936.4174
  24126691.942    -4740930.905 8  -3680768.22945  24126695.615    24126706.1984
  22257841.260   -14707755.984 9 -11443203.63847  22257842.102    22257851.8114
  20685367.320   -22031604.975 9 -17150659.45148  20685371.046    20685379.9424
  23299088.029    -5008480.527 8  -3860352.07245  23299090.642    23299103.6254
  22005399.815   -14871729.053 8 -11574635.53247  22005401.426    22005410.7324
 00  5 15  1  4  0.0000000  0  7 09 17 26 21 23 15 29
  20813264.252   -19027888.859 9 -14812081.05848  20813268.500    20813276.5004
  21791426.700   -16223486.546 8 -12622857.43947  21791430.252    21791440.9544
  24144633.765    -4646658.979 8  -3607309.61245  24144634.838    24144644.0314
  22243423.212   -14783511.314 8 -11502233.71647  22243426.146    22243436.0994
  20683102.277   -22043514.041 9 -17159939.23848  20683105.059    20683113.8514
  23281104.355    -5102978.647 7  -3933986.79345  23281107.410    23281121.2664
  21994190.118   -14930616.224 8 -11620521.55047  21994195.537    21994204.5144
 00  5 15  1  4 30.0000000  0  7 09 17 26 21 23 15 29
  20817761.124   -19004269.839 9 -14793676.60947  20817762.464    20817771.0854
  21810004.990   -16125858.659 8 -12546783.82047  21810007.970    21810018.9514
  24162562.759    -4552413.525 8  -3533871.61645  24162568.856    24162579.1654
  22229024.554   -14859174.357 8 -11561191.88847  22229027.145    22229037.1164
  20680888.571   -22055153.983 9 -17169009.31548  20680890.033    20680898.7864
  23263180.771    -5197152.542 8  -4007368.89045  23263188.909    23263198.9064
  21983030.736   -14989267.231 8 -11666223.54047  21983035.170    21983043.8634
 00  5 15  1  5  0.0000000  0  7 09 17 26 21 23 15 29
  20822371.247   -18980028.826 9 -14774787.49048  20822375.580    20822383.8674
  21828653.969   -16027849.204 8 -12470412.88147  21828659.199    21828669.7234
  24180495.080    -4458195.351 8  -3460454.87645  24180498.133    24180507.9104
  22214648.066   -14934743.091 8 -11620076.56047  22214647.215    22214657.4864
  20678722.273   -22066523.493 9 -17177868.67048  20678726.541    20678735.2934
  23245327.588    -5290999.360 8  -4080496.13745  23245329.690    23245340.5514
  21971915.266   -15047681.965 8 -11711741.41547  21971917.638    21971927.8774
 00  5 15  1  5 30.0000000  0  7 09 17 26 21 23 15 29
  20827103.392   -18955167.091 9 -14755414.68648  20827107.160    20827115.0774
  21847381.583   -15929461.080 8 -12393746.87147  21847382.518    21847392.2764
  24198417.695    -4364005.529 8  -3387060.24045  24198422.023    24198431.8204
  22200279.491   -15010216.077 8 -11678886.62547  22200285.074    22200294.8594
  20676611.849   -22077621.290 9 -17186516.28848  20676614.524    20676623.2544
  23227527.904    -5384516.053 8  -4153366.12345  23227533.910    23227544.2794
  21960843.803   -15105860.605 8 -11757075.33647  21960847.021    21960856.6674
 00  5 15  1  6  0.0000000  0  7 09 17 26 21 23 15 29
  20831951.914   -18929685.517 9 -14735558.88748  20831956.079    20831964.0294
  21866174.898   -15830696.986 8 -12316787.89547  21866176.266    21866186.7954
  24216339.490    -4269845.009 8  -3313688.41745  24216340.528    24216348.6764
  22185939.190   -15085591.992 8 -11737621.02147  22185941.380    22185951.2984
  20674553.343   -22088446.161 9 -17194951.24248  20674554.858    20674563.1314
  23209796.879    -5477699.945 8  -4225976.73246  23209801.325    23209813.5924
  21949817.337   -15163802.910 8 -11802225.10547  21949820.984    21949830.5544
 00  5 15  1  6 30.0000000  0  7 09 17 26 21 23 15 29
  20836919.200   -18903585.425 9 -14715221.14048  20836922.687    20836931.0054
  21885038.358   -15731559.652 8 -12239538.08947  21885041.119    21885051.9364
  24234250.822    -4175714.748 8  -3240340.19545  24234253.296    24234262.2794
  22171614.562   -15160869.382 8 -11796278.61947  22171616.632    22171626.3134
  20672542.700   -22098997.130 9 -17203172.76048  20672547.071    20672555.4704
  23192131.831    -5570548.031 8  -4298325.76845  23192134.196    23192142.1224
  21938834.991   -15221508.994 8 -11847190.79647  21938840.331    21938849.6954
 00  5 15  1  7  0.0000000  0  7 09 17 26 21 23 15 29
  20842002.477   -18876868.347 9 -14694402.61248  20842006.780    20842015.1444
  21903972.999   -15632052.124 8 -12161999.81846  21903976.846    21903987.4194
  24252157.677    -4081615.826 8  -3167016.35745  24252159.787    24252169.0984
  22157305.336   -15236046.672 8 -11854858.22847  22157310.970    22157320.9614
  20670588.727   -22109272.806 9 -17211179.76948  20670591.300    20670600.1544
  23174528.082    -5663057.697 8  -4370411.10945  23174529.728    23174540.2234
  21927901.765   -15278979.091 8 -11891972.58547  21927903.471    21927913.7494
 00  5 15  1  7 30.0000000  0  7 09 17 26 21 23 15 29
  20847205.155   -18849535.104 9 -14673103.96148  20847207.924    20847216.4444
  21922978.993   -15532177.056 8 -12084175.16746  21922982.602    21922992.7044
  24270055.303    -3987549.077 8  -3093717.60445  24270060.457    24270070.4504
  22143021.537   -15311122.543 8 -11913358.82647  22143024.536    22143034.0984
  20668685.516   -22119271.933 9 -17218971.28148  20668688.731    20668697.2924
  23156988.098    -5755225.745 8  -4442230.22146  23156989.220    23157002.6344
  21917006.969   -15336213.116 8 -11936570.46347  21917012.320    21917021.4804
 00  5 15  1  8  0.0000000  0  7 09 17 26 21 23 15 29
  20852523.359   -18821587.179 9 -14651326.34048  20852526.376    20852534.6394
  21942053.605   -15431937.297 8 -12006066.31446  21942058.057    21942067.9424
  24287949.868    -3893515.463 8  -3020444.70845  24287953.857    24287964.6964
  22128755.866   -15386095.798 8 -11971779.51347  22128757.215    22128766.9964
  20666835.622   -22128993.458 9 -17226546.48448  20666838.808    20666847.6214
  23139509.364    -5847049.446 8  -4513781.00845  23139515.764    23139525.8644
  21906162.489   -15393210.978 8 -11980984.29647  21906165.755    21906174.1594
 00  5 15  1  8 30.0000000  0  7 09 17 26 21 23 15 29
  20857958.398   -18793025.903 9 -14629070.77748  20857961.187    20857969.6114
  21961198.207   -15331335.672 8 -11927675.48547  21961202.150    21961211.8284
  24305837.660    -3799515.893 7  -2947198.30945  24305840.540    24305852.4304
  22114507.048   -15460964.515 8 -12030118.71747  22114509.416    22114520.2404
  20665038.517   -22138436.098 9 -17233904.36648  20665041.912    20665050.6734
  23122109.856    -5938525.744 8  -4585061.20045  23122108.948    23122118.9154
  21895364.133   -15449972.919 8 -12025214.31647  21895364.853    21895372.9404
 00  5 15  1  9  0.0000000  0  7 09 17 26 21 23 15 29
  20863508.804   -18763852.839 9 -14606338.51148  20863512.565    20863521.1474
  21980411.979   -15230375.049 8 -11849004.91347  21980413.931    21980424.4354
  24323710.457    -3705551.206 7  -2873979.11145  24323720.823    24323732.4774
  22100278.710   -15535726.636 8 -12088374.86647  22100283.299    22100292.9234
  20663296.783   -22147598.738 9 -17241044.06248  20663298.436    20663307.0624
  23104762.845    -6029652.077 8  -4656068.60046  23104767.950    23104779.6494
  21884603.818   -15506498.844 8 -12069260.42147  21884607.137    21884616.1864
 00  5 15  1  9 30.0000000  0  8 09 17 26 05 21 23 15 29
  20869177.755   -18734069.044 9 -14583130.34748  20869180.301    20869188.4604
  21999690.907   -15129058.206 8 -11770056.78346  21999693.623    21999704.2504
  24341594.823    -3611622.496 7  -2800787.93845  24341596.182    24341606.4924
  24567030.263     -658713.98117   -301657.52055  24567034.468    24567047.8914
  22086073.356   -15610381.131 8 -12146547.17047  22086076.470    22086086.1184
  20661605.499   -22156480.190 9 -17247964.65548  20661608.263    20661616.6814
  23087492.856    -6120425.475 8  -4726800.99046  23087495.602    23087504.9864
  21873892.885   -15562788.863 8 -12113122.69247  21873895.709    21873904.7634
 00  5 15  1 10  0.0000000  0  8 09 17 26 05 21 23 15 29
  20874962.405   -18703675.837 9 -14559447.30248  20874964.020    20874972.4674
  22019040.431   -15027388.005 8 -11690833.30746  22019041.138    22019051.6064
  24359462.685    -3517730.467 8  -2727625.37345  24359463.701    24359473.7394
  24551684.237     -739381.417 7   -364515.00144  24551682.104    24551694.4954
  22071887.231   -15684926.636 8 -12204634.54647  22071890.529    22071900.5084
  20659969.450   -22165079.230 9 -17254665.18548  20659971.789    20659980.0484
  23070281.751    -6210842.869 8  -4797256.04246  23070289.103    23070299.2014
  21863225.703   -15618843.026 8 -12156801.21247  21863229.082    21863238.5614
 00  5 15  1 10 30.0000000  0  8 09 17 26 05 21 23 15 29
  20880859.948   -18672674.718 9 -14535290.56748  20880863.195    20880871.6424
  22038444.426   -14925367.257 8 -11611336.66046  22038454.528    22038465.6294
  24377308.074    -3423876.209 7  -2654492.23245  24377322.588    24377332.0164
  24536340.326     -820003.990 7   -427337.56145  24536337.658    24536355.5714
  22057722.424   -15759361.265 8 -12262635.50147  22057726.092    22057736.4334
  20658387.849   -22173394.635 9 -17261144.69948  20658389.513    20658397.9304
  23053153.976    -6300901.633 8  -4867431.63846  23053151.962    23053161.9694
  21852601.219   -15674661.362 8 -12200295.96047  21852607.049    21852616.4284
 00  5 15  1 11  0.0000000  0  8 09 17 26 05 21 23 15 29
  20886874.520   -18641067.166 9 -14510661.28447  20886877.867    20886886.3194
  22057930.844   -14822998.867 8 -11531569.16746  22057934.861    22057946.0564
  24395175.705    -3330060.417 7  -2581389.03245  24395175.625    24395185.7004
  24521008.868     -900578.922 7   -490122.83045  24521006.910    24521021.6224
  22043579.679   -15833683.748 8 -12320549.12047  22043583.830    22043593.7234
  20656856.856   -22181425.270 9 -17267402.30648  20656861.290    20656870.1384
  23036075.888    -6390598.778 8  -4937325.45346  23036083.074    23036092.8434
  21842025.933   -15730243.877 8 -12243606.93347  21842030.378    21842039.3574
 00  5 15  1 11 30.0000000  0  8 09 17 26 05 21 23 15 29
  20893004.928   -18608854.486 9 -14485560.47847  20893008.007    20893016.1774
  22077475.320   -14720285.764 8 -11451533.03246  22077480.463    22077491.2384
  24413019.800    -3236284.104 8  -2508316.60145  24413021.221    24413029.9544
  24505684.746     -981103.353 7   -552868.91345  24505684.738    24505698.6344
  22029456.628   -15907892.135 8 -12378373.80547  22029461.949    22029472.0974
  20655383.178   -22189169.803 9 -17273436.97348  20655387.379    20655396.1044
  23019078.857    -6479931.402 8  -5006935.27646  23019082.572    23019094.7934
  21831493.602   -15785590.823 8 -12286734.36047  21831497.945    21831506.7974
 00  5 15  1 12  0.0000000  0  8 09 17 26 05 21 23 15 29
  20899250.554   -18576038.288 9 -14459989.40547  20899252.618    20899260.9124
  22097081.835   -14617230.694 8 -11371230.43846  22097091.071    22097102.3924
  24430857.521    -3142548.080 7  -2435275.56945  24430859.091    24430867.9264
  24490361.778    -1061574.175 7   -615573.15944  24490369.968    24490381.7554
  22015359.943   -15981984.742 8 -12436108.24247  22015362.525    22015372.1864
  20653965.037   -22196627.183 9 -17279247.89848  20653968.452    20653976.8404
  23002150.098    -6568896.803 8  -5076258.85146  23002154.324    23002165.0544
  21821008.071   -15840702.083 8 -12329678.14147  21821010.730    21821019.1344
 00  5 15  1 12 30.0000000  0  8 09 17 26 05 21 23 15 29
  20905608.201   -18542619.925 9 -14433949.11447  20905611.655    20905619.7514
  22116764.070   -14513836.691 8 -11290663.76446  22116766.379    22116777.7124
  24448686.146    -3048853.124 7  -2362266.54745  24448687.931    24448698.6014
  24475072.675    -1141988.324 7   -678233.26844  24475063.795    24475083.2754
  22001284.173   -16055960.228 8 -12493751.43847  22001285.502    22001295.2994
  20652601.037   -22203795.970 9 -17284833.93748  20652604.277    20652612.6234
  22985293.465    -6657491.986 8  -5145294.07746  22985294.419    22985303.8744
  21810565.730   -15895578.008 8 -12372438.52547  21810568.663    21810577.4434
 00  5 15  1 13  0.0000000  0  8 09 17 26 05 21 23 15 29
  20912080.144   -18508600.870 9 -14407440.75047  20912085.011    20912093.7404
  22136500.805   -14410106.659 8 -11209835.22246  22136505.830    22136516.5744
  24466497.416    -2955200.223 7  -2289290.26945  24466509.957    24466520.0264
  24459772.324    -1222342.971 7   -740846.97644  24459772.819    24459789.9814
  21987226.634   -16129816.871 8 -12551302.03647  21987231.424    21987241.0374
  20651292.539   -22210675.200 9 -17290194.33748  20651295.130    20651303.6424
  22968502.786    -6745714.173 8  -5214038.70046  22968505.713    22968516.1074
  21800164.915   -15950218.346 8 -12415015.34347  21800170.268    21800179.6004
 00  5 15  1 13 30.0000000  0  8 09 17 26 05 21 23 15 29
  20918669.118   -18473982.611 9 -14380465.47447  20918672.827    20918681.3524
  22156302.907   -14306043.309 8 -11128746.96846  22156308.910    22156319.5044
  24484320.660    -2861590.139 7  -2216347.38945  24484322.939    24484333.4214
  24444500.378    -1302635.234 7   -803412.17344  24444498.368    24444511.4784
  21973196.466   -16203553.129 9 -12608758.82847  21973200.106    21973209.6114
  20650037.760   -22217263.771 9 -17295328.25148  20650041.332    20650049.7704
  22951784.336    -6833560.470 8  -5282490.33946  22951789.266    22951800.7964
  21789815.767   -16004623.239 8 -12457408.69947  21789817.469    21789826.3824
 00  5 15  1 14  0.0000000  0  8 09 17 26 05 21 23 15 29
  20925372.006   -18438766.957 9 -14353024.69347  20925374.145    20925382.1264
  22176168.972   -14201649.808 8 -11047401.44346  22176174.185    22176185.3124
  24502126.731    -2768023.624 7  -2143438.44245  24502129.160    24502138.5974
  24429232.714    -1382862.085 7   -865926.20444  24429229.320    24429242.3594
  21959188.804   -16277167.443 8 -12666120.62647  21959191.621    21959201.8504
  20648838.339   -22223560.420 9 -17300234.69048  20648842.899    20648851.6854
  22935147.163    -6921027.864 8  -5350646.72346  22935145.194    22935156.3114
  21779504.426   -16058793.089 8 -12499618.90447  21779509.420    21779517.4844
 00  5 15  1 14 30.0000000  0  8 09 17 26 05 21 23 15 29
  20932186.301   -18402955.620 9 -14325119.74547  20932189.072    20932197.2134
  22196097.182   -14096928.945 8 -10965800.84046  22196101.932    22196113.3004
  24519935.543    -2674501.542 7  -2070564.12345  24519924.700    24519934.5634
  24413972.896    -1463020.299 7   -928386.95144  24413974.184    24413988.6534
  21945202.797   -16350658.164 8 -12723386.11347  21945206.346    21945216.7684
  20647697.179   -22229563.990 9 -17304912.76648  20647700.508    20647709.1264
  22918565.824    -7008113.639 8  -5418505.75546  22918572.668    22918583.8434
  21769240.624   -16112727.670 8 -12541645.76847  21769245.088    21769255.1684
 00  5 15  1 15  0.0000000  0  8 09 17 26 05 21 23 15 29
  20939115.328   -18366549.907 9 -14296751.65447  20939116.714    20939125.1164
  22216089.346   -13991883.475 8 -10883947.28946  22216091.155    22216101.6894
  24537713.326    -2581024.692 7  -1997725.04145  24537712.856    24537722.8844
  24398730.118    -1543107.076 7   -990792.00045  24398736.770    24398751.3154
  21931243.054   -16424022.958 9 -12780553.41647  21931246.260    21931255.7484
  20646611.564   -22235273.240 9 -17309361.50548  20646614.277    20646622.8244
  22902070.627    -7094814.963 8  -5486065.17446  22902072.575    22902085.1364
  21759023.184   -16166427.183 8 -12583489.47347  21759026.739    21759035.8764
 00  5 15  1 15 30.0000000  0  8 09 17 26 05 21 23 15 29
  20946154.312   -18329551.308 9 -14267921.57547  20946157.045    20946165.6464
  22236139.368   -13886516.276 8 -10801843.05946  22236142.091    22236152.9204
  24555484.842    -2487594.079 7  -1924921.97545  24555490.997    24555501.9024
  24383507.472    -1623119.381 7  -1053138.98945  24383510.469    24383525.0204
  21917307.451   -16497260.996 9 -12837621.93247  21917309.489    21917318.7964
  20645580.784   -22240686.968 9 -17313579.96248  20645583.948    20645592.2994
  22885650.816    -7181129.206 8  -5553323.00846  22885648.544    22885659.6004
  21748849.832   -16219891.725 8 -12625150.06547  21748853.235    21748861.8974
 00  5 15  1 16  0.0000000  0  8 09 17 26 05 21 23 15 29
  20953304.894   -18291961.629 9 -14238630.90247  20953310.149    20953318.8494
  22256249.734   -13780830.531 8 -10719490.61146  22256253.617    22256264.4034
  24573266.963    -2394210.130 7  -1852155.33345  24573261.441    24573271.7604
  24368294.023    -1703054.191 7  -1115425.53945  24368298.037    24368314.4704
  21903396.339   -16570370.684 9 -12894590.46647  21903397.288    21903406.4564
  20644607.229   -22245804.021 9 -17317567.24248  20644610.512    20644618.3914
  22869296.685    -7267053.063 8  -5620276.61946  22869297.821    22869310.7984
  21738719.963   -16273121.427 9 -12666627.67647  21738723.798    21738732.1274
 00  5 15  1 16 30.0000000  0  8 09 17 26 05 21 23 15 29
  20960574.160   -18253782.545 9 -14208880.96147  20960575.752    20960583.8354
  22276418.050   -13674829.035 8 -10636892.11146  22276425.049    22276436.2254
  24591011.371    -2300873.945 7  -1779425.82745  24591023.868    24591034.3884
  24353104.552    -1782908.549 7  -1177649.56644  24353103.829    24353115.6044
  21889508.090   -16643350.037 9 -12951457.47347  21889509.996    21889518.6104
  20643690.103   -22250623.249 9 -17321322.44848  20643693.271    20643701.3574
  22853017.364    -7352584.168 8  -5686924.13746  22853022.020    22853033.2864
  21728634.694   -16326116.297 8 -12707922.31147  21728638.975    21728647.4594
 00  5 15  1 17  0.0000000  0  8 09 17 26 05 21 23 15 29
  20967950.098   -18215015.845 9 -14178673.14047  20967952.507    20967960.6354
  22296654.256   -13568514.812 8 -10554049.95246  22296655.531    22296667.1184
  24608772.638    -2207586.197 7  -1706734.08045  24608776.354    24608786.6244
  24337919.164    -1862679.559 7  -1239808.57644  24337919.863    24337935.6984
  21875642.077   -16716197.349 9 -13008221.53647  21875646.856    21875656.6054
  20642831.355   -22255143.464 9 -17324844.65948  20642833.066    20642841.2584
  22836813.318    -7437719.607 8  -5753263.38145  22836819.433    22836829.3054
  21718596.042   -16378876.604 8 -12749034.14847  21718598.593    21718607.9544
 00  5 15  1 17 30.0000000  0  8 09 17 26 05 21 23 15 29
  20975437.219   -18175663.119 9 -14148008.67947  20975441.037    20975449.3624
  22316936.744   -13461890.671 8 -10470966.30846  22316945.550    22316956.8724
  24626507.936    -2114347.516 7  -1634080.60645  24626519.092    24626528.8184
  24322742.243    -1942364.017 7  -1301900.15144  24322758.548    24322771.7444
  21861807.987   -16788911.295 9 -13064881.68447  21861810.368    21861819.6214
  20642026.898   -22259363.375 9 -17328132.87848  20642030.067    20642037.9834
  22820691.081    -7522456.566 8  -5819292.10546  22820695.997    22820707.2194
  21708600.081   -16431402.272 8 -12789963.16947  21708603.161    21708612.2734
 00  5 15  1 18  0.0000000  0  8 09 17 26 05 21 23 15 29
  20983038.353   -18135726.179 9 -14116888.98247  20983041.118    20983049.1744
  22337289.845   -13354959.637 8 -10387643.49646  22337294.171    22337304.8654
  24644246.986    -2021158.813 7  -1561466.11245  24644252.590    24644261.7594
  24307614.366    -2021958.936 7  -1363921.86345  24307612.104    24307625.2204
  21847994.472   -16861489.654 9 -13121436.13447  21847998.574    21848008.2784
  20641282.366   -22263281.736 9 -17331186.11448  20641284.407    20641292.2754
  22804647.839    -7606792.169 8  -5885008.02146  22804647.230    22804657.9694
  21698651.508   -16483693.527 8 -12830709.53047  21698652.674    21698661.7554
 00  5 15  1 18 30.0000000  0  8 09 17 26 05 21 23 15 29
  20990748.063   -18095206.796 9 -14085315.42847  20990751.640    20990759.9214
  22357699.838   -13247724.782 8 -10304083.93146  22357700.495    22357711.3664
  24661973.138    -1928020.858 7  -1488891.07245  24661976.134    24661986.2264
  24292480.593    -2101461.391 7  -1425871.56245  24292483.355    24292497.2924
  21834211.115   -16933930.799 9 -13177883.66247  21834213.668    21834223.2694
  20640593.166   -22266897.642 9 -17334003.66348  20640596.192    20640604.4744
  22788670.241    -7690723.696 8  -5950409.08646  22788674.996    22788686.1504
  21688742.758   -16535750.668 8 -12871273.46647  21688746.732    21688755.5374
 00  5 15  1 19  0.0000000  0  8 09 17 26 05 21 23 15 29
  20998568.549   -18054106.450 9 -14053289.17247  20998572.617    20998580.5544
  22378160.449   -13140188.934 8 -10220289.87046  22378163.581    22378175.5514
  24679683.241    -1834934.369 7  -1416356.18545  24679689.352    24679700.2904
  24277373.060    -2180868.462 7  -1487746.94945  24277372.586    24277386.4124
  21820452.890   -17006232.975 9 -13234222.85147  21820455.165    21820464.2224
  20639963.182   -22270209.956 9 -17336584.65348  20639965.958    20639974.4124
  22772781.458    -7774248.505 8  -6015493.18046  22772781.976    22772790.9914
  21678880.017   -16587573.667 8 -12911654.95847  21678884.860    21678894.3534
 00  5 15  1 19 30.0000000  0  8 09 17 26 05 21 23 15 29
  21006500.356   -18012427.078 9 -14020811.73647  21006503.704    21006512.1004
  22398682.176   -13032355.247 8 -10136263.71646  22398684.053    22398694.9894
  24697397.618    -1741900.032 7  -1343861.93745  24697395.095    24697403.0714
  24262279.397    -2260177.015 7  -1549545.60745  24262280.680    24262292.1914
  21806719.467   -17078394.582 9 -13290452.52147  21806723.049    21806732.2654
  20639388.761   -22273217.418 9 -17338928.10448  20639393.293    20639401.6784
  22756967.172    -7857363.945 8  -6080258.37146  22756966.218    22756972.7954
  21669063.281   -16639162.477 8 -12951853.96647  21669067.328    21669076.6984
 00  5 15  1 20  0.0000000  0  8 09 17 26 05 21 23 15 29
  21014540.765   -17970170.456 9 -13987884.49247  21014545.107    21014553.5344
  22419248.103   -12924226.617 8 -10052007.73346  22419259.834    22419271.0014
  24715086.505    -1648918.526 7  -1271408.86045  24715087.271    24715097.7844
  24247208.893    -2339384.183 7  -1611265.29645  24247206.714    24247221.1424
  21793016.289   -17150414.146 9 -13346571.53047  21793017.778    21793027.5034
  20638876.779   -22275918.913 9 -17341033.13348  20638879.093    20638887.5574
  22741226.739    -7940067.052 8  -6144702.21146  22741228.201    22741238.4214
  21659289.500   -16690517.451 8 -12991870.77247  21659294.568    21659304.0594
 00  5 15  1 20 30.0000000  0  8 09 17 26 05 21 23 15 29
  21022693.787   -17927338.587 9 -13954508.99247  21022695.785    21022703.8774
  22439889.531   -12815805.960 8  -9967524.19746  22439891.343    22439903.1644
  24732769.124    -1555990.620 7  -1198997.56145  24732770.152    24732782.1234
  24232137.221    -2418486.823 7  -1672903.49345  24232152.730    24232169.5634
  21779338.603   -17222289.865 9 -13402578.45147  21779339.829    21779349.4854
  20638421.110   -22278313.135 9 -17342898.73748  20638423.613    20638432.0254
  22725559.374    -8022354.929 8  -6208822.43146  22725568.622    22725578.8924
  21649563.482   -16741638.524 8 -13031705.31447  21649567.097    21649576.5144
 00  5 15  1 21  0.0000000  0  8 09 17 26 05 21 23 15 29
  21030953.561   -17883933.291 9 -13920686.68347  21030956.025    21030963.6754
  22460575.473   -12707096.345 8  -9882815.52246  22460578.356    22460590.4584
  24750440.916    -1463116.999 7  -1126628.51945  24750443.156    24750452.6504
  24217121.204    -2497481.995 7  -1734457.93345  24217120.938    24217136.1094
  21765688.404   -17294019.777 9 -13458471.76847  21765690.292    21765699.9794
  20638024.093   -22280399.103 9 -17344524.14448  20638026.599    20638035.1344
  22709989.858    -8104224.948 8  -6272617.10746  22709989.959    22709998.5884
  21639880.218   -16792526.163 8 -13071357.95347  21639883.166    21639892.4824
 00  5 15  1 21 30.0000000  0  8 09 17 26 05 21 23 15 29
  21039320.289   -17839956.497 9 -13886419.04347  21039324.271    21039332.1764
  22481310.113   -12598100.773 8  -9797883.98746  22481320.141    22481330.8804
  24768106.247    -1370298.472 7  -1054302.38845  24768105.805    24768117.1244
  24202108.989    -2576366.593 7  -1795926.29945  24202110.957    24202124.6524
  21752066.521   -17365601.918 9 -13514249.99847  21752068.236    21752077.6904
  20637685.785   -22282175.558 9 -17345908.36148  20637688.568    20637696.9824
  22694481.520    -8185674.452 8  -6336084.15146  22694489.343    22694497.4864
  21630238.700   -16843180.313 8 -13110828.65847  21630244.432    21630253.9324
 00  5 15  1 22  0.0000000  0  8 09 17 26 05 21 23 15 29
  21047799.184   -17795410.036 9 -13851707.49647  21047801.400    21047809.0914
  22502117.192   -12488822.052 8  -9712731.84146  22502115.778    22502126.3154
  24785751.072    -1277535.553 7   -982019.67445  24785759.461    24785766.9754
  24187117.517    -2655137.733 7  -1857306.29345  24187120.891    24187134.5284
  21738473.669   -17437034.903 9 -13569912.04947  21738474.983    21738485.0794
  20637407.545   -22283641.214 9 -17347050.40948  20637409.988    20637417.7734
  22679067.941    -8266700.532 8  -6399221.23046  22679070.387    22679080.4424
  21620647.127   -16893601.165 8 -13150117.57247  21620649.489    21620659.3954
 00  5 15  1 22 30.0000000  0  7 09 17 05 21 23 15 29
  21056382.224   -17750295.791 9 -13816553.53247  21056386.713    21056394.6054
  22522959.272   -12379263.238 8  -9627361.39146  22522964.420    22522974.9914
  24172155.615    -2733792.399 8  -1918595.53645  24172153.936    24172166.0634
  21724904.329   -17508316.887 9 -13625456.41447  21724910.199    21724920.4964
  20637186.151   -22284794.951 9 -17347949.39448  20637190.294    20637198.2524
  22663731.960    -8347300.376 8  -6462026.21846  22663734.277    22663743.8064
  21611095.393   -16943788.727 8 -13189224.70347  21611098.915    21611108.3154
 00  5 15  1 23  0.0000000  0  7 09 17 05 21 23 15 29
  21065075.960   -17704615.598 9 -13780958.57447  21065078.874    21065086.9684
  22543864.591   -12269427.242 8  -9541775.02046  22543864.946    22543876.2734
  24157201.898    -2812327.564 7  -1979791.73445  24157207.788    24157222.6524
  21711371.118   -17579445.944 9 -13680881.64847  21711375.116    21711384.5254
  20637028.142   -22285635.698 9 -17348604.49448  20637030.190    20637038.3884
  22648471.479    -8427471.397 8  -6524497.05446  22648476.448    22648486.9254
  21601589.061   -16993743.290 8 -13228150.25847  21601593.198    21601602.0104
 00  5 15  1 23 30.0000000  0  7 09 17 05 21 23 15 29
  21073875.678   -17658371.580 9 -13744924.25247  21073878.596    21073886.6274
  22564817.662   -12159317.282 8  -9455975.13346  22564818.490    22564828.9034
  24142282.026    -2890740.115 7  -2040892.40045  24142286.671    24142300.5084
  21697862.766   -17650420.626 9 -13736186.58747  21697868.314    21697878.6204
  20636927.188   -22286162.205 9 -17349014.73348  20636929.575    20636938.2974
  22633301.994    -8507210.913 8  -6586631.64446  22633303.003    22633313.8914
  21592130.226   -17043464.918 9 -13266894.30147  21592131.691    21592140.8684
 00  5 15  1 24  0.0000000  0  7 09 17 05 21 23 15 29
  21082780.796   -17611565.639 9 -13708452.07947  21082785.156    21082793.8024
  22585815.406   -12048936.263 8  -9369964.05246  22585822.801    22585833.8714
  24127395.425    -2969026.984 7  -2101895.16445  24127389.430    24127403.7344
  21684388.501   -17721239.121 9 -13791369.76147  21684392.386    21684401.7784
  20636885.607   -22286373.532 9 -17349179.38548  20636889.350    20636898.0324
  22618207.843    -8586516.039 8  -6648427.73946  22618211.277    22618222.7504
  21582709.257   -17092953.876 8 -13305457.05547  21582713.657    21582723.5884
 00  5 15  1 24 30.0000000  0  7 09 17 05 21 23 15 29
  21091795.900   -17564199.873 9 -13671543.68347  21091799.109    21091806.6594
  22606873.980   -11938287.214 8  -9283744.09946  22606879.630    22606890.0394
  24112514.151    -3047185.172 7  -2162797.69245  24112516.130    24112530.1674
  21670942.494   -17791899.321 9 -13846429.59447  21670945.871    21670955.8094
  20636907.769   -22286268.523 9 -17349097.54048  20636909.590    20636917.9914
  22603198.082    -8665384.295 8  -6709883.44746  22603203.047    22603213.8924
  21573334.832   -17142210.181 8 -13343838.50447  21573339.877    21573349.8164
 00  5 15  1 25  0.0000000  0  7 09 17 05 21 23 15 29
  21100915.277   -17516276.109 9 -13634200.48947  21100918.769    21100926.6204
  22627980.058   -11827373.207 8  -9197317.68646  22627985.351    22627996.7724
  24097666.157    -3125211.515 8  -2223597.43645  24097669.050    24097681.8904
  21657527.831   -17862399.451 9 -13901364.65247  21657530.643    21657540.0754
  20636984.811   -22285845.984 9 -17348768.26648  20636989.973    20636998.3874
  22588272.705    -8743813.080 8  -6770996.71346  22588278.082    22588289.5064
  21564005.502   -17191234.201 8 -13382038.95847  21564011.121    21564020.2794
 00  5 15  1 25 30.0000000  0  7 09 17 05 21 23 15 29
  21110142.539   -17467796.400 9 -13596424.08147  21110143.646    21110151.2314
  22649137.421   -11716197.270 8  -9110687.18246  22649141.248    22649152.5044
  24082834.399    -3203103.138 7  -2284292.16145  24082846.080    24082859.7424
  21644145.079   -17932737.681 9 -13956173.57247  21644145.513    21644154.2094
  20637128.584   -22285104.845 9 -17348190.73448  20637131.147    20637139.5444
  22573434.598    -8821799.538 8  -6831765.29646  22573438.505    22573449.5554
  21554725.116   -17240025.894 9 -13420058.38447  21554727.284    21554735.0584
 00  5 15  1 26  0.0000000  0  7 09 17 05 21 23 15 29
  21119469.320   -17418762.944 9 -13558216.17547  21119474.260    21119482.4734
  22670343.581   -11604762.342 8  -9023854.86046  22670346.776    22670358.8914
  24068051.620    -3280857.029 7  -2344879.66345  24068050.537    24068064.9234
  21630788.622   -18002912.473 9 -14010855.15447  21630791.296    21630801.2424
  20637329.464   -22284043.791 9 -17347363.91848  20637332.964    20637341.2504
  22558680.360    -8899340.955 8  -6892187.10946  22558682.640    22558693.8664
  21545480.556   -17288585.600 9 -13457897.02947  21545486.164    21545494.5384
 00  5 15  1 26 30.0000000  0  7 09 17 05 21 23 15 29
  21128908.942   -17369177.692 9 -13519578.30747  21128910.557    21128918.1494
  22691600.449   -11493071.320 8  -8936823.01946  22691600.688    22691613.6394
  24053283.955    -3358469.594 8  -2405356.87945  24053282.560    24053294.9014
  21617464.778   -18072921.782 9 -14065407.82747  21617469.246    21617478.6914
  20637593.459   -22282661.850 9 -17346287.05648  20637595.966    20637604.2274
  22544008.629    -8976434.255 8  -6952259.75946  22544012.654    22544024.6544
  21536286.510   -17336913.423 9 -13495555.00147  21536289.740    21536298.2574
 00  5 15  1 27  0.0000000  0  7 09 17 05 21 23 15 29
  21138446.953   -17319042.821 9 -13480512.17047  21138450.447    21138458.9784
  22712897.371   -11381127.279 8  -8849593.97446  22712903.220    22712913.9944
  24038534.994    -3435938.429 7  -2465722.25845  24038539.120    24038551.6904
  21604176.431   -18142763.509 9 -14119829.92247  21604179.196    21604188.6344
  20637917.010   -22280957.848 9 -17344959.24348  20637920.257    20637928.3004
  22529422.669    -9053077.284 8  -7011981.51446  22529427.778    22529439.7844
  21527132.772   -17385009.534 9 -13533032.41347  21527136.829    21527146.0504
 00  5 15  1 27 30.0000000  0  7 09 17 05 21 23 15 29
  21148091.314   -17268360.221 9 -13441019.22747  21148095.214    21148102.8954
  22734250.627   -11268933.390 8  -8762170.27046  22734252.439    22734265.3694
  24023809.167    -3513260.274 7  -2525972.97245  24023824.773    24023838.8454
  21590916.342   -18212435.872 9 -14174120.07047  21590920.838    21590930.3614
  20638301.801   -22278930.637 9 -17343379.57448  20638306.081    20638314.1244
  22514928.195    -9129267.383 8  -7071350.37746  22514929.603    22514940.4194
  21518025.583   -17432874.120 9 -13570329.40947  21518028.841    21518037.3694
 00  5 15  1 28  0.0000000  0  7 09 17 05 21 23 15 29
  21157843.115   -17217132.176 9 -13401101.24747  21157843.484    21157851.5904
  22755640.130   -11156492.673 8  -8674554.19846  22755649.965    22755661.6544
  24009139.466    -3590432.124 8  -2586106.83645  24009140.989    24009152.9414
  21577692.199   -18281937.440 9 -14228277.12947  21577695.197    21577704.2884
  20638750.722   -22276579.175 9 -17341547.24548  20638753.457    20638761.6554
  22500515.176    -9205001.947 8  -7130364.25946  22500517.608    22500530.1574
  21508957.864   -17480507.308 8 -13607446.10247  21508964.279    21508972.9924
 00  5 15  1 28 30.0000000  0  7 09 17 05 21 23 15 29
  21167690.252   -17165360.562 9 -13360759.72647  21167695.067    21167703.3494
  22777092.092   -11043808.002 8  -8586748.06846  22777092.864    22777105.3324
  23994480.922    -3667450.941 7  -2646121.48845  23994483.979    23994497.9044
  21564498.693   -18351266.341 9 -14282299.69747  21564502.295    21564511.5104
  20639260.054   -22273902.314 9 -17339461.36348  20639262.672    20639271.0454
  22486192.652    -9280278.192 8  -7189021.03546  22486193.091    22486203.9454
  21499941.581   -17527909.471 9 -13644382.78747  21499943.695    21499951.9094
 00  5 15  1 29  0.0000000  0  7 09 17 05 21 23 15 29
  21177645.476   -17113047.689 9 -13319996.45047  21177650.164    21177658.3124
  22798573.298   -10930882.536 8  -8498754.29346  22798581.599    22798594.5304
  23979859.243    -3744313.521 8  -2706014.39445  23979857.882    23979870.7454
  21551339.236   -18420420.628 9 -14336186.10947  21551342.435    21551351.5774
  20639829.360   -22270898.966 9 -17337121.06348  20639834.047    20639842.6364
  22471955.753    -9355093.445 8  -7247318.60546  22471955.465    22471967.8614
  21490964.343   -17575080.591 9 -13681139.43547  21490967.641    21490975.5014
 00  5 15  1 29 30.0000000  0  7 09 17 05 21 23 15 29
  21187705.256   -17060195.739 9 -13278813.09047  21187707.231    21187715.2944
  22820117.888   -10817719.317 8  -8410575.28846  22820116.211    22820128.5114
  23965261.164    -3821017.121 8  -2765783.35745  23965261.560    23965273.5434
  21538212.154   -18489397.534 9 -14389934.26447  21538216.151    21538225.2884
  20640466.114   -22267568.077 9 -17334525.54748  20640468.098    20640476.3874
  22457802.532    -9429445.152 8  -7305254.95246  22457806.772    22457818.8824
  21482030.268   -17622021.021 8 -13717716.32147  21482034.345    21482043.7914
 00  5 15  1 30  0.0000000  0  7 09 17 05 21 23 15 29
  21197862.399   -17006806.617 9 -13237211.17547  21197866.582    21197874.9364
  22841694.522   -10704321.430 8  -8322213.38946  22841695.899    22841707.8814
  23950691.123    -3897558.285 8  -2825425.77145  23950696.564    23950708.3004
  21525121.932   -18558196.275 9 -14443543.60947  21525124.567    21525134.1944
  20641162.748   -22263908.604 9 -17331673.99248  20641164.618    20641172.9194
  22443744.082    -9503330.792 8  -7362828.13346  22443746.580    22443757.5184
  21473141.594   -17668730.615 8 -13754113.32447  21473145.836    21473155.5934
 00  5 15  1 30 30.0000000  0  7 09 17 05 21 23 15 29
  21208125.887   -16952882.762 9 -13195192.56647  21208128.571    21208136.8964
  22863315.685   -10590691.825 8  -8233670.94746  22863318.898    22863330.8194
  23936159.334    -3973934.171 8  -2884939.35345  23936162.264    23936176.2464
  21512065.445   -18626814.026 9 -14497011.92447  21512067.288    21512076.0794
  20641919.475   -22259919.411 9 -17328565.50748  20641923.657    20641931.6924
  22429772.580    -9576747.711 8  -7420036.06546  22429775.853    22429787.9014
  21464299.213   -17715209.911 8 -13790330.88447  21464301.208    21464311.0824
 00  5 15  1 31  0.0000000  0  7 09 17 05 21 23 15 29
  21218489.040   -16898426.531 9 -13152759.12147  21218491.146    21218499.3094
  22884978.975   -10476833.702 8  -8144950.43146  22884985.358    22884997.2474
  23921660.713    -4050141.856 8  -2944321.82845  23921659.688    23921673.7034
  21499039.164   -18695249.453 9 -14550338.14547  21499044.141    21499053.5274
  20642745.150   -22255599.376 9 -17325199.22348  20642745.907    20642753.8384
  22415895.046    -9649693.471 8  -7476876.83946  22415894.847    22415905.4544
  21455498.730   -17761459.014 9 -13826369.07147  21455500.595    21455509.4244
 00  5 15  1 31 30.0000000  0  7 09 17 05 21 23 15 29
  21228949.827   -16843440.148 9 -13109912.57947  21228954.520    21228963.4494
  22906692.330   -10362750.025 8  -8056054.17246  22906694.808    22906706.7304
  23907180.421    -4126178.238 7  -3003570.82545  23907189.615    23907204.2224
  21486052.861   -18763500.725 9 -14603520.88647  21486056.178    21486065.3124
  20643626.444   -22250947.530 9 -17321574.39348  20643630.821    20643639.0424
  22402101.790    -9722165.372 8  -7533348.40046  22402103.753    22402113.5384
  21446739.055   -17807477.900 9 -13862227.86847  21446743.169    21446752.2764
 00  5 15  1 32  0.0000000  0  7 09 17 05 21 23 15 29
  21239518.022   -16787925.626 9 -13066654.50347  21239518.828    21239527.2254
  22928446.289   -10248443.717 8  -7966984.41446  22928446.925    22928458.7584
  23892750.129    -4202040.142 8  -3062683.80545  23892754.285    23892767.4904
  21473098.674   -18831566.017 9 -14656558.70147  21473103.701    21473113.2024
  20644576.516   -22245962.759 9 -17317690.13748  20644579.531    20644587.5484
  22388399.807    -9794160.985 8  -7589448.81446  22388403.510    22388413.7984
  21438028.401   -17853267.100 9 -13897907.70147  21438030.205    21438038.5724
 00  5 15  1 32 30.0000000  0  7 09 17 05 21 23 15 29
  21250177.783   -16731885.266 9 -13022986.67847  21250182.190    21250191.5514
  22950237.184   -10133917.833 8  -7877743.56746  22950240.803    22950251.7754
  23878353.364    -4277724.627 8  -3121658.56045  23878352.830    23878365.2024
  21460185.488   -18899443.352 9 -14709450.09347  21460187.104    21460196.4634
  20645588.230   -22240643.970 9 -17313545.61548  20645591.449    20645599.7384
  22374787.020    -9865677.868 8  -7645176.18646  22374793.855    22374803.3124
  21429357.150   -17898826.665 8 -13933408.59947  21429360.131    21429368.5394
 00  5 15  1 33  0.0000000  0  7 09 17 05 21 23 15 29
  21260941.588   -16675321.537 9 -12978911.03347  21260946.297    21260954.7724
  22972073.458   -10019175.598 8  -7788334.09646  22972075.518    22972086.5994
  23863987.038    -4353228.707 8  -3180492.75445  23863983.580    23863998.0814
  21447303.697   -18967130.317 9 -14762193.14047  21447306.384    21447316.2384
  20646664.884   -22234990.004 9 -17309139.91348  20646667.346    20646675.8174
  22361277.869    -9936713.226 8  -7700528.38746  22361277.541    22361287.5734
  21420730.002   -17944156.833 8 -13968730.73347  21420733.617    21420743.2514
 00  5 15  1 33 30.0000000  0  7 09 17 05 21 23 15 29
  21271806.013   -16618236.534 9 -12934429.20347  21271809.775    21271817.6034
  22993942.000    -9904220.002 8  -7698758.42846  22993950.083    22993962.4644
  23849647.822    -4428549.128 8  -3239183.80545  23849650.678    23849664.1384
  21434458.602   -19034624.920 9 -14814786.23747  21434462.623    21434472.1874
  20647805.289   -22228999.799 9 -17304472.20548  20647807.793    20647815.6034
  22347844.699   -10007264.743 8  -7755503.49246  22347851.216    22347862.2544
  21412149.932   -17989257.832 8 -14003874.30447  21412151.031    21412160.7224
 00  5 15  1 34  0.0000000  0  7 09 17 05 21 23 15 29
  21282770.156   -16560632.458 9 -12889542.90247  21282770.997    21282779.3914
  23015861.329    -9789054.198 8  -7609018.96246  23015865.472    23015877.7874
  23835350.793    -4503683.077 8  -3297729.50145  23835353.602    23835366.1044
  21421652.978   -19101926.025 9 -14867228.58047  21421655.484    21421664.9434
  20649008.031   -22222672.369 9 -17299541.73148  20649011.583    20649019.4984
  22334514.696   -10077329.763 8  -7810099.58146  22334518.247    22334528.1524
  21403609.525   -18034129.727 9 -14038839.36147  21403612.513    21403621.1894
 00  5 15  1 34 30.0000000  0  7 09 17 05 21 23 15 29
  21293826.274   -16502511.913 9 -12844254.15747  21293830.779    21293839.3174
  23037820.096    -9673681.170 8  -7519118.01846  23037820.299    23037832.0724
  23821091.259    -4578627.391 8  -3356127.49245  23821092.868    23821104.9434
  21408880.522   -19169031.257 9 -14919518.27147  21408885.797    21408894.8344
  20650277.152   -22216006.806 9 -17294347.76448  20650279.754    20650288.3214
  22321273.934   -10146906.021 8  -7864314.79246  22321278.309    22321288.5484
  21395112.233   -18078772.780 9 -14073626.10947  21395117.353    21395125.7634
 00  5 15  1 35  0.0000000  0  7 09 17 05 21 23 15 29
  21304985.061   -16443877.068 9 -12798564.65747  21304989.044    21304997.2524
  23059815.756    -9558103.764 8  -7429057.82646  23059814.163    23059826.3354
  23806859.510    -4653378.970 8  -3414375.26345  23806866.805    23806878.6274
  21396148.767   -19235938.657 9 -14971653.82747  21396153.586    21396162.5474
  20651609.566   -22209001.848 9 -17288889.33748  20651612.765    20651621.3674
  22308128.364   -10215990.858 8  -7918147.08346  22308131.133    22308142.4134
  21386661.581   -18123187.415 9 -14108234.85447  21386665.221    21386673.8474
 00  5 15  1 35 30.0000000  0  7 09 17 05 21 23 15 29
  21316240.945   -16384730.171 9 -12752476.16147  21316244.359    21316252.6394
  23081839.158    -9442325.115 8  -7338840.82746  23081846.376    23081858.5864
  23792675.343    -4727934.956 8  -3472470.58545  23792678.962    23792692.3514
  21383461.218   -19302645.821 9 -15023633.33147  21383460.096    21383468.7244
  20653008.353   -22201656.659 9 -17283165.80848  20653010.382    20653019.2114
  22295076.473   -10284581.772 8  -7971594.46546  22295078.402    22295090.0474
  21378255.808   -18167373.477 9 -14142665.48447  21378257.424    21378265.6724
 00  5 15  1 36  0.0000000  0  7 09 17 05 21 23 15 29
  21327595.737   -16325073.931 9 -12705990.77247  21327596.381    21327605.1524
  23103913.982    -9326348.383 8  -7248469.47946  23103916.936    23103929.0294
  23778521.828    -4802292.230 8  -3530411.06445  23778528.885    23778542.5474
  21370802.165   -19369151.113 9 -15075455.54347  21370804.451    21370813.0854
  20654469.026   -22193970.022 9 -17277176.21148  20654473.027    20654481.6444
  22282116.709   -10352676.373 8  -8024655.14546  22282121.051    22282131.8104
  21369889.295   -18211331.407 9 -14176918.35747  21369892.259    21369901.2684
 00  5 15  1 36 30.0000000  0  7 09 17 05 21 23 15 29
  21339040.413   -16264910.576 9 -12659110.23347  21339045.221    21339053.5984
  23126016.110    -9210176.635 8  -7157946.17746  23126022.894    23126034.8594
  23764420.875    -4876447.615 8  -3588194.20945  23764417.220    23764430.7364
  21358184.204   -19435453.138 9 -15127119.36647  21358187.474    21358196.2124
  20655998.661   -22185940.853 9 -17270919.70648  20656001.282    20656009.2604
  22269252.424   -10420272.166 8  -8077327.13546  22269258.036    22269268.2644
  21361567.739   -18255061.284 9 -14210993.52547  21361570.617    21361579.4144
 00  5 15  1 37  0.0000000  0  7 09 17 05 21 23 15 29
  21350587.932   -16204242.505 9 -12611836.40447  21350589.900    21350597.9544
  23148167.347    -9093812.837 8  -7067273.20645  23148166.601    23148178.6994
  23750346.248    -4950398.236 8  -3645817.83745  23750345.067    23750357.8694
  21345607.274   -19501549.250 9 -15178622.79947  21345610.138    21345618.1314
  20657590.334   -22177568.291 9 -17264395.61948  20657594.361    20657602.3834
  22256486.611   -10487366.741 8  -8129608.58946  22256490.210    22256500.2694
  21353288.905   -18298563.475 9 -14244891.27947  21353292.490    21353300.9664
 00  5 15  1 37 30.0000000  0  7 09 17 05 21 23 15 29
  21362223.220   -16143071.936 9 -12564171.02347  21362230.311    21362238.2164
  23170347.575    -8977259.840 8  -6976452.80046  23170345.974    23170357.5074
  23736307.072    -5024141.214 8  -3703279.64745  23736311.980    23736324.8624
  21333068.719   -19567437.659 9 -15229964.38147  21333071.913    21333080.1454
  20659249.316   -22168851.316 9 -17257603.15748  20659252.800    20659261.3514
  22243813.660   -10553957.894 8  -8181497.72146  22243817.721    22243829.0874
  21345054.032   -18341838.067 9 -14278611.67947  21345056.898    21345065.9214
 00  5 15  1 38  0.0000000  0  7 09 17 05 21 23 15 29
  21373960.763   -16081401.287 9 -12516115.96947  21373965.344    21373973.6244
  23192551.854    -8860520.788 8  -6885487.41345  23192559.941    23192571.7184
  23722317.246    -5097673.310 8  -3760577.09545  23722318.611    23722331.4174
  21320570.984   -19633116.256 9 -15281142.48247  21320573.621    21320581.6664
  20660975.273   -22159789.010 9 -17250541.60848  20660977.578    20660985.7394
  22231235.348   -10620043.186 8  -8232992.69146  22231241.406    22231252.1834
  21336861.511   -18384885.631 9 -14312155.18847  21336864.882    21336873.9594
 00  5 15  1 38 30.0000000  0  7 09 17 05 21 23 15 29
  21385792.245   -16019232.848 9 -12467673.03147  21385795.973    21385804.1424
  23214807.174    -8743598.881 8  -6794379.57945  23214810.078    23214821.6054
  23708366.824    -5170991.538 8  -3817707.90745  23708367.413    23708378.7254
  21308113.093   -19698582.763 9 -15332155.27147  21308115.397    21308123.9674
  20662763.499   -22150380.347 9 -17243210.17248  20662767.728    20662775.9864
  22218758.172   -10685619.949 8  -8284091.41446  22218763.572    22218773.4264
  21328712.286   -18427705.896 9 -14345521.57147  21328717.131    21328725.2054
 00  5 15  1 39  0.0000000  0  7 09 17 05 21 23 15 29
  21397718.554   -15956569.204 9 -12418844.21647  21397720.556    21397728.1014
  23237090.397    -8626497.162 8  -6703131.60645  23237093.653    23237106.2444
  23694457.456    -5244092.595 8  -3874669.53845  23694456.427    23694469.1494
  21295691.963   -19763835.297 9 -15383001.32347  21295698.052    21295707.3384
  20664622.276   -22140624.172 9 -17235607.93748  20664624.706    20664632.7114
  22206379.319   -10750686.012 8  -8334792.18746  22206381.912    22206392.0264
  21320609.327   -18470299.255 9 -14378711.14947  21320612.374    21320620.3344
 00  5 15  1 39 30.0000000  0  7 09 17 05 21 23 15 29
  21409735.629   -15893412.709 9 -12369631.35047  21409738.893    21409747.4694
  23259411.685    -8509218.591 8  -6611745.84945  23259411.714    23259422.7734
  23680584.614    -5316973.694 8  -3931459.70545  23680586.871    23680599.8154
  21283320.632   -19828872.282 9 -15433679.40747  21283321.730    21283330.3854
  20666543.573   -22130519.489 9 -17227734.14348  20666547.529    20666555.2654
  22194096.842   -10815239.039 8  -8385093.18446  22194097.782    22194108.0294
  21312547.956   -18512665.992 9 -14411724.15147  21312550.487    21312558.0834
 00  5 15  1 40  0.0000000  0  7 09 17 05 21 23 15 29
  21421847.842   -15829765.932 9 -12320036.46247  21421850.122    21421858.4744
  23281750.953    -8391766.229 8  -6520224.60545  23281762.273    23281773.1324
  23666757.283    -5389631.812 8  -3988076.15845  23666759.700    23666773.5434
  21270984.683   -19893691.481 9 -15484187.80547  21270987.777    21270996.1494
  20668533.365   -22120065.393 9 -17219588.08048  20668536.521    20668545.0184
  22181909.884   -10879276.863 8  -8434992.73346  22181911.764    22181922.4464
  21304527.573   -18554806.273 9 -14444560.70747  21304531.220    21304538.8584
 00  5 15  1 40 30.0000000  0  7 09 17 05 21 23 15 29
  21434054.325   -15765631.344 9 -12270061.45547  21434055.408    21434062.9714
  23304145.572    -8274143.077 8  -6428570.32845  23304144.744    23304157.0404
  23652973.337    -5462064.032 8  -4044516.57745  23652976.221    23652989.0904
  21258690.038   -19958290.889 9 -15534524.93747  21258694.328    21258703.1254
  20670590.053   -22109260.864 9 -17211168.95248  20670592.684    20670601.0804
  22169816.919   -10942796.868 8  -8484488.78346  22169822.866    22169834.8014
  21296549.993   -18596720.516 9 -14477221.10347  21296554.247    21296563.3714
 00  5 15  1 41  0.0000000  0  7 09 17 05 21 23 15 29
  21446345.621   -15701011.583 9 -12219708.38847  21446351.530    21446359.3524
  23326555.604    -8156352.242 8  -6336785.39946  23326559.963    23326572.1254
  23639237.771    -5534267.164 8  -4100778.48545  23639238.172    23639248.4754
  21246442.773   -20022668.116 9 -15584688.93447  21246444.308    21246452.6664
  20672713.789   -22098105.010 9 -17202476.06348  20672715.603    20672723.7014
  22157834.779   -11005796.779 8  -8533579.53346  22157835.629    22157845.8704
  21288616.478   -18638408.587 9 -14509705.23747  21288621.526    21288630.0254
 00  5 15  1 41 30.0000000  0  7 09 17 05 21 23 15 29
  21458738.108   -15635909.036 9 -12168979.12847  21458740.655    21458748.1884
  23349004.928    -8038396.905 8  -6244872.26845  23349006.150    23349018.8824
  23625543.069    -5606238.288 8  -4156859.65445  23625541.658    23625553.4014
  21234234.800   -20086821.648 9 -15634678.63647  21234235.761    21234244.3274
  20674901.929   -22086596.739 9 -17193508.57148  20674905.400    20674913.6734
  22145943.014   -11068274.477 8  -8582263.35146  22145945.568    22145957.3154
  21280727.084   -18679870.909 9 -14542013.48247  21280731.330    21280739.4744
 00  5 15  1 42  0.0000000  0  7 09 17 05 21 23 15 29
  21471214.526   -15570326.258 9 -12117875.66647  21471220.068    21471228.0404
  23371481.496    -7920280.031 8  -6152833.28045  23371482.853    23371495.5964
  23611880.852    -5677974.462 8  -4212757.70245  23611888.434    23611901.9184
  21222067.256   -20150748.931 9 -15684492.07047  21222071.082    21222079.8364
  20677160.547   -22074735.174 9 -17184265.78748  20677162.753    20677170.8834
  22134155.661   -11130227.674 8  -8630538.49246  22134158.271    22134167.2234
  21272881.757   -18721107.750 9 -14574146.02847  21272884.592    21272892.7254
 00  5 15  1 42 30.0000000  0  7 09 17 05 21 23 15 29
  21483787.209   -15504265.603 9 -12066399.82047  21483791.135    21483799.3814
  23393990.081    -7802004.781 8  -6060670.90145  23393990.263    23394002.4434
  23598285.310    -5749472.707 8  -4268470.33445  23598283.981    23598296.1434
  21209946.283   -20214448.150 9 -15734127.75947  21209948.934    21209958.1324
  20679485.218   -22062519.413 9 -17174747.00548  20679487.169    20679495.3034
  22122465.811   -11191653.982 8  -8678403.07846  22122467.044    22122479.4834
  21265075.534   -18762119.363 9 -14606103.07147  21265081.023    21265088.8754
 00  5 15  1 43  0.0000000  0  7 09 17 05 21 23 15 29
  21496448.042   -15437729.599 9 -12014553.58747  21496452.879    21496460.6574
  23416523.812    -7683574.101 8  -5968387.37045  23416526.763    23416539.6304
  23584717.626    -5820729.921 8  -4323995.22845  23584723.813    23584736.3254
  21197868.219   -20277917.494 9 -15783584.32347  21197871.373    21197879.8364
  20681876.105   -22049948.501 9 -17164951.47647  20681879.374    20681887.3304
  22110873.248   -11252551.238 8  -8725855.37646  22110878.859    22110890.7984
  21257315.524   -18802905.938 9 -14637884.75247  21257319.167    21257327.3104
 00  5 15  1 43 30.0000000  0  7 09 17 05 21 23 15 29
  21509199.749   -15370720.760 9 -11962338.89847  21509203.592    21509212.0644
  23439096.289    -7564991.104 8  -5875985.13745  23439092.771    23439104.9114
  23571211.620    -5891742.991 8  -4379329.81245  23571211.144    23571222.2764
  21185835.255   -20341154.608 9 -15832859.96447  21185837.690    21185846.1354
  20684334.037   -22037021.568 9 -17154878.53847  20684339.341    20684346.9314
  22099390.412   -11312917.168 8  -8772893.67446  22099391.758    22099402.5414
  21249598.094   -18843467.670 9 -14669491.25147  21249600.559    21249608.9134
 00  5 15  1 44  0.0000000  0  7 09 17 05 21 23 15 29
  21522043.876   -15303241.590 9 -11909757.74547  21522044.927    21522052.7844
  23461683.473    -7446258.704 8  -5783466.53545  23461685.999    23461699.3774
  23557737.722    -5962508.881 8  -4434471.83945  23557743.264    23557755.4104
  21173846.450   -20404157.323 9 -15881952.92747  21173847.973    21173856.9304
  20686864.757   -22023737.547 9 -17144527.33747  20686867.283    20686875.0344
  22088006.733   -11372749.557 8  -8819516.19546  22088006.454    22088016.8364
  21241921.690   -18883804.674 9 -14700922.64347  21241924.175    21241932.6484
 00  5 15  1 44 30.0000000  0  7 09 17 05 21 23 15 29
  21534969.350   -15235294.644 9 -11856812.07547  21534974.158    21534982.7284
  23484315.148    -7327380.051 8  -5690833.96945  23484308.850    23484320.8174
  23544321.775    -6033024.834 7  -4489419.09445  23544324.035    23544337.8284
  21161902.781   -20466924.120 9 -15930862.07547  21161904.285    21161913.3294
  20689459.139   -22010095.661 9 -17133897.29047  20689463.216    20689471.1944
  22076719.819   -11432046.261 8  -8865721.33046  22076723.645    22076732.7264
  21234288.887   -18923917.567 9 -14732179.37747  21234291.149    21234299.4724
 00  5 15  1 45  0.0000000  0  7 09 17 05 21 23 15 29
  21547986.304   -15166882.518 8 -11803503.91847  21547992.242    21548001.1584
  23506954.202    -7208358.113 8  -5598089.73045  23506957.549    23506970.0974
  23530953.964    -6103287.646 8  -4544169.13545  23530955.417    23530965.9884
  21150003.618   -20529452.457 9 -15979585.41747  21150005.859    21150014.3284
  20692124.775   -21996094.772 9 -17122987.50848  20692127.495    20692135.5374
  22065539.601   -11490804.931 8  -8911507.24246  22065541.967    22065550.7804
  21226695.697   -18963806.332 9 -14763261.46947  21226700.461    21226708.6774
 00  5 15  1 45 30.0000000  0  7 09 17 05 21 23 15 29
  21561094.352   -15098007.880 8 -11749835.37147  21561098.992    21561107.9754
  23529633.336    -7089195.811 8  -5505236.13945  23529634.427    23529646.4434
  23517633.456    -6173294.424 8  -4598719.63745  23517632.529    23517644.0984
  21138147.945   -20591740.362 9 -16028121.39547  21138152.364    21138160.8554
  20694858.096   -21981734.357 9 -17111797.56248  20694860.192    20694868.4034
  22054459.638   -11549023.822 8  -8956872.48546  22054461.738    22054473.0424
  21219149.583   -19003471.056 9 -14794168.99947  21219152.587    21219160.7794
 00  5 15  1 46  0.0000000  0  7 09 17 05 21 23 15 29
  21574292.595   -15028673.329 8 -11695808.45347  21574292.910    21574301.2244
  23552332.561    -6969896.359 7  -5412275.69645  23552335.608    23552348.0454
  23504354.240    -6243042.246 8  -4653068.36345  23504359.238    23504370.9134
  21126341.336   -20653785.783 9 -16076468.44647  21126345.720    21126353.7024
  20697658.342   -21967013.281 9 -17100326.58948  20697661.483    20697669.5404
  22043483.322   -11606700.615 8  -9001815.32346  22043486.256    22043496.3494
  21211641.474   -19042912.139 9 -14824902.26247  21211646.494    21211655.2574
 00  5 15  1 46 30.0000000  0  7 09 17 05 21 23 15 29
  21587573.077   -14958881.382 9 -11641425.13147  21587574.085    21587582.8794
  23575057.291    -6850462.820 7  -5319210.73645  23575063.983    23575075.8844
  23491130.761    -6312527.954 8  -4707212.87045  23491137.030    23491149.8714
  21114583.109   -20715586.438 9 -16124624.75147  21114584.966    21114593.2734
  20700528.717   -21951930.606 9 -17088573.85348  20700531.761    20700539.7344
  22032615.744   -11663833.203 8  -9046334.12146  22032615.712    22032624.8924
  21204180.299   -19082129.814 9 -14855461.44247  21204183.863    21204192.2794
 00  5 15  1 47  0.0000000  0  7 09 17 05 21 23 15 29
  21600937.855   -14888634.600 9 -11586687.38547  21600942.111    21600949.7364
  23597822.156    -6730898.143 8  -5226043.62245  23597815.789    23597828.8694
  23477962.572    -6381748.579 8  -4761150.81845  23477964.882    23477976.5394
  21102869.711   -20777140.560 9 -16172588.93147  21102872.221    21102880.4264
  20703469.279   -21936485.581 9 -17076538.75548  20703470.899    20703478.9394
  22021844.050   -11720419.500 8  -9090427.25846  22021846.449    22021857.4884
  21196761.399   -19121124.266 9 -14885846.66147  21196763.579    21196771.8054
 00  5 15  1 47 30.0000000  0  7 09 17 05 21 23 15 29
  21614390.675   -14817935.689 9 -11531597.32947  21614395.447    21614403.7334
  23620590.989    -6611205.385 8  -5132776.65645  23620593.622    23620604.9734
  23464840.153    -6450701.326 8  -4814880.02145  23464843.189    23464854.2524
  21091202.689   -20838445.504 9 -16220358.93647  21091206.244    21091214.5094
  20706476.526   -21920677.339 9 -17064220.63948  20706478.788    20706487.1694
  22011183.098   -11776457.455 8  -9134093.10146  22011183.660    22011193.1244
  21189381.824   -19159895.716 9 -14916058.11747  21189385.448    21189393.1284
 00  5 15  1 48  0.0000000  0  7 09 17 05 21 23 15 29
  21627930.460   -14746787.305 9 -11476157.04147  21627934.777    21627943.0724
  23643382.486    -6491387.526 8  -5039412.23045  23643393.453    23643405.8174
  23451772.779    -6519383.147 8  -4868398.13545  23451774.033    23451783.8064
  21079584.860   -20899499.582 9 -16267933.49047  21079587.820    21079596.0984
  20709554.039   -21904504.874 9 -17051618.70948  20709556.494    20709564.7654
  22000616.473   -11831945.027 8  -9177330.09946  22000623.822    22000633.3644
  21182046.551   -19198444.670 9 -14946096.20847  21182049.901    21182057.7694
 00  5 15  1 48 30.0000000  0  7 09 17 05 21 23 15 29
  21641557.641   -14675191.639 8 -11420368.21447  21641558.437    21641567.0354
  23666213.648    -6371447.606 8  -4945952.71145  23666217.187    23666231.0574
  23438759.399    -6587791.027 8  -4921702.79745  23438756.216    23438766.3614
  21068013.145   -20960300.863 9 -16315311.03847  21068017.279    21068026.2624
  20712700.718   -21887967.369 9 -17038732.32848  20712703.440    20712711.5534
  21990165.600   -11886879.859 8  -9220136.35246  21990170.025    21990179.7424
  21174752.919   -19236771.106 9 -14975960.92247  21174756.500    21174764.8454
 00  5 15  1 49  0.0000000  0  7 09 17 05 21 23 15 29
  21655262.554   -14603151.490 8 -11364233.05947  21655267.019    21655275.7594
  23689057.611    -6251388.754 8  -4852400.51045  23689064.294    23689076.9754
  23425776.936    -6655922.105 8  -4974791.75145  23425789.735    23425802.0794
  21056493.456   -21020847.166 9 -16362489.89647  21056495.968    21056504.7834
  20715917.323   -21871064.011 9 -17025560.87848  20715920.041    20715928.0094
  21979817.989   -11941260.230 8  -9262510.58946  21979822.738    21979832.2294
  21167501.424   -19274875.183 9 -15005652.35447  21167505.384    21167513.3844
 00  5 15  1 49 30.0000000  0  7 09 17 05 21 23 15 29
  21669062.640   -14530669.839 8 -11307753.86047  21669060.458    21669068.0964
  23711922.658    -6131213.978 8  -4758757.97745  23711933.051    23711945.2714
  23412882.502    -6723773.410 8  -5027662.72045  23412879.269    23412891.0144
  21045020.807   -21081135.902 9 -16409468.07347  21045023.388    21045032.1014
  20719204.166   -21853793.893 9 -17012103.63647  20719206.257    20719214.6904
  21969577.384   -11995084.148 8  -9304451.21946  21969580.054    21969589.0814
  21160293.579   -19312757.385 9 -15035170.88247  21160296.947    21160304.8724
 00  5 15  1 50  0.0000000  0  7 09 17 05 21 23 15 29
  21682931.171   -14457749.300 8 -11250932.65947  21682936.669    21682944.2394
  23734812.411    -6010926.285 8  -4665027.44045  23734822.111    23734835.1944
  23400015.801    -6791341.923 8  -5080313.34845  23400021.020    23400031.6434
  21033595.733   -21141165.012 9 -16456243.93247  21033599.750    21033608.9184
  20722559.911   -21836156.275 9 -16998360.03447  20722562.312    20722570.9214
  21959443.779   -12048349.276 8  -9345956.41846  21959443.182    21959453.5864
  21153127.882   -19350417.497 9 -15064516.33147  21153130.510    21153138.2904
 00  5 15  1 50 30.0000000  0  7 09 17 05 21 23 15 29
  21696894.071   -14384392.487 8 -11193771.51147  21696895.972    21696904.0124
  23757733.128    -5890528.548 8  -4571211.17545  23757734.012    23757747.1484
  23387220.999    -6858624.711 8  -5132741.37045  23387217.732    23387228.0954
  21022222.106   -21200932.802 9 -16502816.19147  21022226.236    21022234.8734
  20725986.119   -21818150.415 9 -16984329.49547  20725988.899    20725997.2644
  21949413.858   -12101053.809 8  -9387024.82246  21949414.555    21949423.6944
  21146001.264   -19387856.387 9 -15093689.42347  21146005.775    21146013.8144
 00  5 15  1 51  0.0000000  0  7 09 17 05 21 23 15 29
  21710935.191   -14310601.961 8 -11136272.41547  21710937.778    21710945.6024
  23780661.935    -5770023.880 8  -4477311.61045  23780665.235    23780678.8884
  23374459.344    -6925618.905 8  -5184944.47645  23374468.103    23374479.4734
  21010900.137   -21260437.032 9 -16549183.05647  21010903.040    21010912.1464
  20729481.896   -21799775.396 9 -16970011.28647  20729485.881    20729493.8614
  21939487.729   -12153195.735 8  -9427654.84946  21939491.547    21939502.3034
  21138917.947   -19425073.778 9 -15122689.92747  21138922.947    21138931.7024
 00  5 15  1 51 30.0000000  0  7 09 17 05 21 23 15 29
  21725059.059   -14236380.458 8 -11078437.50047  21725061.470    21725069.4324
  23803613.697    -5649415.327 8  -4383331.07746  23803616.659    23803629.7564
  23361774.363    -6992321.571 8  -5236920.41245  23361775.192    23361787.5684
  20999627.512   -21319675.565 9 -16595342.89047  20999630.297    20999639.0194
  20733051.504   -21781030.442 9 -16955404.83447  20733053.010    20733060.7714
  21929671.114   -12204773.318 8  -9467845.09446  21929675.535    21929686.5754
  21131882.083   -19462070.244 9 -15151518.28247  21131882.615    21131891.8644
 00  5 15  1 52  0.0000000  0  7 09 17 05 21 23 15 29
  21739261.938   -14161730.587 8 -11020268.78847  21739266.705    21739275.3934
  23826591.890    -5528705.810 8  -4289271.87746  23826587.354    23826599.9914
  23349133.660    -7058729.708 8  -5288666.84445  23349137.314    23349149.6974
  20988404.591   -21378646.041 9 -16641293.86647  20988408.473    20988417.3044
  20736687.750   -21761914.823 9 -16940509.54747  20736690.494    20736698.2774
  21919966.438   -12255784.774 8  -9507594.23146  21919969.975    21919979.6924
  21124881.969   -19498845.947 9 -15180174.61447  21124884.539    21124893.4974
 00  5 15  1 52 30.0000000  0  7 09 17 05 21 23 15 29
  21753550.203   -14086654.908 8 -10961768.29347  21753553.312    21753561.8124
  23849572.308    -5407898.354 8  -4195136.38146  23849576.396    23849589.4624
  23336551.218    -7124840.499 8  -5340181.62945  23336556.955    23336568.2864
  20977235.700   -21437346.251 9 -16687034.23047  20977238.571    20977247.0974
  20740396.407   -21742427.659 9 -16925324.74447  20740398.551    20740406.7304
  21910371.788   -12306228.082 8  -9546900.67446  21910371.450    21910380.8144
  21117923.199   -19535401.003 9 -15208659.02347  21117928.269    21117937.1954
 00  5 15  1 53  0.0000000  0  7 09 17 05 21 23 15 29
  21767920.030   -14011156.358 8 -10902938.28147  21767919.935    21767928.2124
  23872581.617    -5286996.116 8  -4100927.00445  23872582.482    23872596.6384
  23324035.055    -7190650.939 8  -5391462.33845  23324033.973    23324045.0954
  20966116.356   -21495774.047 9 -16732562.32747  20966120.441    20966128.5334
  20744174.872   -21722568.110 9 -16909849.77047  20744178.052    20744185.8834
  21900875.181   -12356101.276 8  -9585762.86046  21900879.717    21900890.2014
  21111012.119   -19571735.837 9 -15236971.81547  21111014.130    21111022.6484
 00  5 15  1 53 30.0000000  0  7 09 17 05 21 23 15 29
  21782361.147   -13935237.663 8 -10843780.88647  21782367.475    21782375.5454
  23895607.301    -5166001.970 8  -4006646.05545  23895608.156    23895620.5534
  23311563.960    -7256157.985 8  -5442506.66145  23311568.864    23311578.8114
  20955050.260   -21553927.234 9 -16777876.44947  20955054.048    20955061.8234
  20748026.179   -21702335.444 9 -16894084.06047  20748028.104    20748035.9284
  21891493.970   -12405402.590 8  -9624179.43147  21891498.582    21891508.9764
  21104140.155   -19607850.315 9 -15265112.91447  21104142.131    21104150.2644
 00  5 15  1 54  0.0000000  0  7 09 17 05 21 23 15 29
  21796891.547   -13858901.347 8 -10784298.08147  21796893.712    21796902.2994
  23918646.819    -5044918.873 8  -3912295.75745  23918649.254    23918661.3484
  23299160.285    -7321358.978 8  -5493312.49945  23299161.123    23299171.5484
  20944036.261   -21611804.251 9 -16822975.38447  20944040.435    20944048.0854
  20751945.367   -21681728.968 9 -16878027.07347  20751949.159    20751957.3534
  21882216.938   -12454130.206 8  -9662148.99446  21882225.093    21882235.1424
  21097308.154   -19643745.187 9 -15293082.90947  21097311.393    21097319.2044
 00  5 15  1 54 30.0000000  0  7 09 17 05 21 23 15 29
  21811497.690   -13782150.070 9 -10724491.92247  21811500.084    21811507.6614
  23941704.692    -4923749.549 8  -3817878.27145  23941707.459    23941720.4824
  23286804.158    -7386251.121 8  -5543877.66746  23286811.645    23286822.9114
  20933076.167   -21669402.831 9 -16867857.34647  20933079.514    20933087.7924
  20755938.563   -21660747.969 9 -16861678.25547  20755941.440    20755950.1064
  21873057.874   -12502282.260 8  -9699670.05846  21873062.018    21873072.2214
  21090517.985   -19679420.413 9 -15320881.71347  21090522.669    21090530.3844
 00  5 15  1 55  0.0000000  0  7 09 17 05 21 23 15 29
  21826178.267   -13704986.500 8 -10664364.49747  21826182.330    21826191.3734
  23964773.708    -4802497.094 8  -3723396.02945  23964780.174    23964793.7484
  23274518.346    -7450831.401 8  -5594199.83646  23274522.770    23274534.6364
  20922169.327   -21726720.525 9 -16912520.42747  20922172.447    20922180.5004
  20760001.132   -21639391.703 9 -16845037.01947  20760005.454    20760014.0274
  21864006.654   -12549856.822 8  -9736741.12146  21864009.162    21864018.4224
  21083772.159   -19714876.168 9 -15348509.49747  21083775.765    21083783.6084
 00  5 15  1 55 30.0000000  0  7 09 17 05 21 23 15 29
  21840941.177   -13627413.563 8 -10603918.09747  21840944.276    21840952.2184
  23987863.574    -4681164.724 8  -3628851.49345  23987869.831    23987882.5444
  23262293.445    -7515096.966 8  -5644276.77046  23262294.216    23262303.9574
  20911316.890   -21783755.267 9 -16956963.02647  20911318.744    20911327.0464
  20764139.280   -21617659.348 9 -16828102.73147  20764141.498    20764149.2944
  21855059.987   -12596852.273 8  -9773360.91546  21855065.783    21855075.8984
  21077066.584   -19750112.835 9 -15375966.59547  21077070.209    21077077.9444
 00  5 15  1 56  0.0000000  0  7 09 17 05 21 23 15 29
  21855781.396   -13549433.803 8 -10543154.67347  21855783.667    21855791.2434
  24010975.919    -4559755.440 8  -3534247.07445  24010973.493    24010985.7494
  23250124.068    -7579044.854 8  -5694106.15446  23250125.227    23250134.6354
  20900517.305   -21840504.966 9 -17001183.53247  20900519.481    20900527.9964
  20768347.283   -21595550.163 9 -16810874.80247  20768348.869    20768356.6354
  21846231.845   -12643267.003 8  -9809528.19846  21846233.410    21846243.5594
  21070403.727   -19785130.658 9 -15403253.17247  21070406.302    21070414.7634
 00  5 15  1 56 30.0000000  0  7 09 17 05 21 23 15 29
  21870694.497   -13471049.921 8 -10482076.35947  21870699.833    21870707.2804
  24034091.627    -4438272.347 8  -3439585.10345  24034091.501    24034102.9384
  23238011.510    -7642672.122 8  -5743685.72046  23238016.884    23238026.8244
  20889772.987   -21896966.881 9 -17045179.78847  20889774.910    20889783.5334
  20772623.049   -21573063.440 9 -16793352.68347  20772627.739    20772635.9204
  21837508.811   -12689099.185 8  -9845241.50546  21837512.218    21837522.2494
  21063782.573   -19819929.728 9 -15430369.30447  21063785.018    21063792.5414
 00  5 15  1 57  0.0000000  0  7 09 17 05 21 23 15 29
  21885688.951   -13392264.737 8 -10420685.32947  21885691.989    21885699.5894
  24057215.195    -4316718.285 8  -3344867.81145  24057221.870    24057235.0294
  23225967.996    -7705976.126 8  -5793013.39046  23225970.387    23225980.5534
  20879081.788   -21953138.994 9 -17088950.22247  20879085.867    20879094.4084
  20776974.139   -21550198.525 9 -16775535.87447  20776978.598    20776986.9224
  21828899.869   -12734346.990 8  -9880499.45346  21828901.629    21828911.7484
  21057201.337   -19854510.341 9 -15457315.20547  21057204.105    21057212.2174
 00  5 15  1 57 30.0000000  0  7 09 17 05 21 23 15 29
  21900757.768   -13313080.905 8 -10358983.68247  21900761.071    21900767.8414
  24080365.514    -4195095.959 8  -3250097.36845  24080365.394    24080378.9354
  23213977.019    -7768953.957 8  -5842086.89246  23213984.741    23213996.8854
  20868448.765   -22009019.767 9 -17132493.65747  20868452.081    20868461.1854
  20781397.176   -21526954.705 9 -16757423.81847  20781401.640    20781409.8394
  21820400.614   -12779008.873 8  -9915300.86347  21820403.297    21820413.1644
  21050660.102   -19888872.672 9 -15484090.99147  21050664.745    21050673.0744
 00  5 15  1 58  0.0000000  0  8 09 17 05 21 23 15 29 30
  21915899.631   -13233501.299 8 -10296973.61247  21915903.584    21915911.5594
  24103514.207    -4073408.578 8  -3155276.21745  24103522.057    24103535.3274
  23202057.453    -7831602.729 8  -5890903.98046  23202063.553    23202074.7894
  20857871.727   -22064606.777 9 -17175808.18747  20857874.223    20857882.8094
  20785894.965   -21503331.376 9 -16739016.04247  20785896.990    20785905.3684
  21812014.310   -12823083.169 8  -9949644.38347  21812015.969    21812026.4534
  21044163.671   -19923017.062 9 -15510696.97047  21044167.688    21044175.2044
  24465174.708      -27254.25517
 00  5 15  1 58 30.0000000  0  8 09 17 05 21 23 15 29 30
  21931121.202   -13153528.374 8 -10234657.08247  21931122.218    21931130.0414
  24126680.363    -3951659.181 7  -3060406.72045  24126691.255    24126704.7114
  23190205.542    -7893919.627 8  -5939462.45246  23190205.404    23190215.6904
  20847350.129   -22119897.602 9 -17218891.90047  20847353.052    20847361.2334
  20790462.340   -21479327.838 9 -16720312.00447  20790465.039    20790472.9564
  21803737.126   -12866568.284 8  -9983528.83446  21803740.053    21803750.6904
  21037707.963   -19956943.892 9 -15537133.43147  21037711.650    21037719.1424
  24447188.758     -121671.068 7
 00  5 15  1 59  0.0000000  0  8 09 17 05 21 23 15 29 30
  21946405.603   -13073165.270 8 -10172036.50247  21946414.327    21946422.0784
  24149870.586    -3829850.617 7  -2965491.16145  24149871.799    24149883.5434
  23178405.500    -7955901.921 8  -5987760.22946  23178410.242    23178420.6464
  20836885.762   -22174890.292 9 -17261743.30647  20836888.200    20836896.1754
  20795103.769   -21454943.434 9 -16701311.18447  20795105.577    20795113.2064
  21795575.178   -12909462.635 8 -10016952.94047  21795578.150    21795588.1444
  21031294.202   -19990653.065 9 -15563400.29947  21031297.048    21031304.1994
  24429231.559     -216093.231 7   -152702.38555  24429228.051    24429241.7034
 00  5 15  1 59 30.0000000  0  8 09 17 05 21 23 15 29 30
  21961780.247   -12992414.576 8 -10109113.90347  21961780.907    21961787.4494
  24173060.306    -3707985.723 7  -2870531.72345  24173060.666    24173074.8124
  23166675.333    -8017546.680 8  -6035794.98046  23166679.850    23166689.9954
  20826478.433   -22229582.824 9 -17304360.81847  20826480.713    20826488.5054
  20799814.229   -21430177.484 9 -16682013.05347  20799817.950    20799826.0844
  21787524.594   -12951764.623 8 -10049915.50447  21787528.178    21787538.2774
  21024920.321   -20024145.132 9 -15589497.98747  21024923.469    21024930.4784
  24411255.910     -310517.637 7   -226279.50345  24411262.349    24411274.5024
 00  5 15  2  0  0.0000000  0  8 09 17 05 21 23 15 29 30
  21977218.555   -12911278.840 8 -10045891.25647  21977220.581    21977228.2434
  24196253.828    -3586067.515 7  -2775530.72644  24196258.319    24196275.4434
  23155008.628    -8078851.253 8  -6083564.65646  23155013.920    23155024.5144
  20816127.551   -22283972.959 9 -17346742.70347  20816130.268    20816138.5034
  20804600.344   -21405029.419 9 -16662417.18147  20804603.394    20804611.7384
  21779588.652   -12993472.651 8 -10082415.21147  21779591.694    21779601.2024
  21018587.201   -20057420.061 9 -15615426.47447  21018591.739    21018598.5844
  24393286.973     -404941.591 7   -299856.28445  24393291.823    24393304.9214
 00  5 15  2  0 30.0000000  0  8 09 17 05 21 23 15 29 30
  21992726.515   -12829761.162 8  -9982371.03047  21992732.881    21992740.2644
  24219469.663    -3464098.990 7  -2680490.47544  24219471.097    24219483.3164
  23143410.537    -8139812.809 8  -6131067.04346  23143412.565    23143423.9774
  20805835.724   -22338058.595 9 -17388887.34247  20805838.216    20805846.3414
  20809460.067   -21379498.372 9 -16642522.87547  20809461.809    20809470.1974
  21771764.752   -13034585.050 8 -10114450.77947  21771767.692    21771777.3404
  21012296.919   -20090478.041 9 -15641185.90247  21012301.048    21012308.1204
  24375307.229     -499362.171 7   -373430.41845  24375324.487    24375338.1364
 00  5 15  2  1  0.0000000  0  8 09 17 05 21 23 15 29 30
  22008312.890   -12747864.263 8  -9918555.26247  22008317.898    22008324.7084
  24242692.832    -3342082.976 7  -2585413.28245  24242689.660    24242701.9434
  23131878.320    -8200428.435 8  -6178299.85946  23131878.110    23131888.8044
  20795602.983   -22391837.044 9 -17430792.60247  20795604.540    20795612.7534
  20814388.672   -21353583.828 9 -16622329.74847  20814393.277    20814401.4064
  21764054.482   -13075100.501 8 -10146021.14947  21764057.975    21764068.5064
  21006049.336   -20123319.522 9 -15666776.63347  21006051.341    21006059.2614
  24357356.137     -593776.422 7   -446999.63545  24357358.464    24357370.7494
 00  5 15  2  1 30.0000000  0  8 09 17 05 21 23 15 29 30
  22023970.695   -12665590.768 8  -9854446.07447  22023973.113    22023981.1444
  24265906.240    -3220022.504 7  -2490301.38744  24265917.381    24265928.9864
  23120404.968    -8260695.325 8  -6225260.94046  23120409.540    23120420.2674
  20785426.613   -22445306.519 9 -17472457.09847  20785429.087    20785437.7064
  20819394.621   -21327285.230 9 -16601837.34747  20819397.746    20819405.5644
  21756459.345   -13115017.423 8 -10177125.18047  21756462.366    21756472.3654
  20999841.557   -20155944.753 9 -15692198.88247  20999842.853    20999850.9284
  24339390.455     -688181.352 7   -520561.59545  24339394.350    24339405.6584
 00  5 15  2  2  0.0000000  0  8 09 17 05 21 23 15 29 30
  22039700.405   -12582943.627 8  -9790045.70847  22039701.263    22039708.6144
  24289152.554    -3097920.510 7  -2395157.18044  24289153.955    24289168.0544
  23109005.998    -8320610.866 8  -6271948.21346  23109007.923    23109018.7484
  20775309.900   -22498464.602 9 -17513878.94447  20775313.589    20775321.8894
  20824472.593   -21300601.993 9 -16581045.22947  20824475.384    20824483.4074
  21748980.347   -13154334.291 8 -10207761.61447  21748981.197    21748990.8384
  20993672.978   -20188353.622 9 -15717452.53247  20993675.743    20993683.4084
  24321424.369     -782574.211 7   -594114.08945  24321429.689    24321442.2714
 00  5 15  2  2 30.0000000  0  8 09 17 05 21 23 15 29 30
  22055496.471   -12499925.436 8  -9725356.24247  22055498.446    22055506.5204
  24312394.824    -2975780.044 7  -2299982.97344  24312395.630    24312410.8234
  23097672.050    -8380172.141 8  -6318359.47046  23097674.093    23097684.1034
  20765256.422   -22551308.862 9 -17555056.26947  20765257.781    20765265.4984
  20829622.376   -21273533.446 9 -16559952.88347  20829626.041    20829634.6484
  21741609.692   -13193049.638 8 -10237929.35947  21741613.028    21741623.9104
  20987545.477   -20220546.653 9 -15742537.98947  20987549.259    20987557.0424
  24303470.377     -876952.034 7   -667654.89245  24303471.834    24303483.5574
 00  5 15  2  3  0.0000000  0  8 09 17 05 21 23 15 29 30
  22071362.595   -12416539.029 8  -9660379.82147  22071366.340    22071374.3624
  24335642.829    -2853603.584 7  -2204780.75144  24335645.021    24335661.4214
  23086402.980    -8439376.494 8  -6364492.58946  23086407.966    23086417.1064
  20755257.827   -22603837.613 9 -17595987.73847  20755261.849    20755269.9154
  20834846.350   -21246079.069 9 -16538559.88547  20834850.449    20834858.9144
  21734359.538   -13231162.188 8 -10267627.35847  21734360.030    21734370.5134
  20981459.903   -20252524.213 9 -15767455.55247  20981464.063    20981472.2604
  24285506.554     -971311.736 7   -741181.65545  24285514.103    24285526.4864
 00  5 15  2  3 30.0000000  0  8 09 17 05 21 23 15 29 30
  22087303.778   -12332787.049 8  -9595118.55647  22087303.898    22087312.0164
  24358892.931    -2731394.203 7  -2109552.90544  24358901.065    24358915.8654
  23075207.097    -8498221.007 8  -6410345.33046  23075210.185    23075219.2134
  20745322.991   -22656048.281 9 -17636671.33947  20745326.482    20745334.5534
  20840146.951   -21218238.343 9 -16516865.83847  20840148.732    20840156.8904
  21727216.533   -13268670.475 8 -10296854.54447  21727222.148    21727232.4144
  20975416.989   -20284286.045 9 -15792204.98747  20975420.099    20975428.2694
  24267570.615    -1065650.207 7   -814691.87345  24267563.570    24267575.0444
 00  5 15  2  4  0.0000000  0  8 09 17 05 21 23 15 29 30
  22103299.667   -12248672.303 8  -9529574.60947  22103310.227    22103318.5644
  24382157.310    -2609155.010 7  -2014301.75844  24382163.695    24382176.7894
  23064077.787    -8556703.069 8  -6455915.65046  23064081.469    23064090.8724
  20735448.459   -22707939.025 9 -17677105.64047  20735451.897    20735459.7954
  20845517.382   -21190010.681 9 -16494870.27947  20845520.356    20845528.8264
  21720196.316   -13305573.081 8 -10325609.75247  21720200.170    21720210.4904
  20969414.043   -20315832.763 9 -15816786.83847  20969416.997    20969425.0164
  24249598.231    -1159964.826 7   -888183.48645  24249614.659    24249626.9454
 00  5 15  2  4 30.0000000  0  8 09 17 05 21 23 15 29 30
  22119387.595   -12164197.798 8  -9463750.34747  22119385.700    22119393.9434
  24405435.780    -2486889.030 7  -1919029.78844  24405428.503    24405443.9004
  23053015.968    -8614819.839 8  -6501201.32046  23053021.282    23053031.7064
  20725634.465   -22759507.913 9 -17717289.15947  20725638.481    20725646.7614
  20850960.907   -21161395.560 9 -16472572.81047  20850965.574    20850974.1184
  21713291.510   -13341868.744 8 -10353892.01847  21713293.821    21713303.8484
  20963452.210   -20347164.214 9 -15841200.93147  20963454.783    20963462.5504
  24231664.463    -1254252.433 7   -961654.12345  24231672.015    24231684.3814
 00  5 15  2  5  0.0000000  0  9 09 17 05 21 23 15 29 30 25
  22135524.464   -12079366.345 8  -9397647.94347  22135527.923    22135536.3454
  24428699.691    -2364598.997 7  -1823739.12144  24428700.053    24428714.7524
  23042032.522    -8672568.735 8  -6546200.32746  23042032.541    23042042.8874
  20715884.291   -22810752.630 9 -17757220.06647  20715887.217    20715895.2514
  20856481.560   -21132392.435 9 -16449972.99947  20856484.789    20856493.2024
  21706502.444   -13377556.080 8 -10381700.30047  21706502.787    21706512.4444
  20957531.858   -20378281.010 9 -15865447.73547  20957533.776    20957541.5584
  24213736.720    -1348509.988 7  -1035101.33845  24213735.247    24213748.4134
  24721623.910    -3426586.59817  -2648731.22855  24721628.603    24721639.8344
 00  5 15  2  5 30.0000000  0  8 09 05 21 23 15 29 30 25
  22151731.797   -11994180.464 8  -9331269.34646  22151738.309    22151746.8484
  23031108.951    -8729947.223 8  -6590910.71846  23031113.591    23031123.9004
  20706194.648   -22861670.631 9 -17796896.40347  20706197.490    20706205.6954
  20862075.036   -21103000.856 9 -16427070.49847  20862077.796    20862086.1854
  21699822.678   -13412633.685 8 -10409033.45147  21699826.995    21699837.3554
  20951650.593   -20409183.133 9 -15889527.23347  20951653.000    20951661.1024
  24195803.519    -1442734.265 8  -1108522.69145  24195806.173    24195815.4464
  24701818.636    -3530618.198 7  -2729794.59645  24701830.889    24701842.3834
 00  5 15  2  6  0.0000000  0  8 09 05 21 23 15 29 30 25
  22168015.716   -11908642.862 8  -9264616.70246  22168015.927    22168024.2864
  23020259.510    -8786952.465 8  -6635330.26046  23020265.250    23020275.3204
  20696567.817   -22912259.452 9 -17836316.22747  20696570.808    20696579.1694
  20867739.832   -21073220.148 9 -16403864.77747  20867744.739    20867753.2394
  21693266.014   -13447100.400 8 -10435890.58147  21693269.219    21693277.9174
  20945809.619   -20439870.928 9 -15913439.74147  20945812.638    20945820.8764
  24177878.637    -1536922.808 8  -1181916.29545  24177882.578    24177892.3064
  24682060.224    -3634551.832 7  -2810781.61245  24682051.768    24682063.9284
 00  5 15  2  6 30.0000000  0  8 09 05 21 23 15 29 30 25
  22184355.884   -11822756.530 8  -9197692.29546  22184359.680    22184367.4324
  23009487.921    -8843581.706 8  -6679456.81846  23009489.319    23009498.4484
  20687004.686   -22962517.378 9 -17875478.21548  20687007.074    20687015.8224
  20873483.065   -21043049.727 9 -16380355.38647  20873486.184    20873494.3244
  21686821.860   -13480955.048 8 -10462270.76247  21686826.293    21686836.0554
  20940010.937   -20470344.552 9 -15937185.33547  20940014.227    20940021.8964
  24159963.389    -1631072.217 7  -1255279.38245  24159965.405    24159977.8764
  24662292.820    -3738385.941 7  -2891691.01045  24662292.298    24662306.7054
 00  5 15  2  7  0.0000000  0  8 09 05 21 23 15 29 30 25
  22200766.456   -11736524.129 8  -9130498.22946  22200768.532    22200776.6334
  22998781.831    -8899832.277 8  -6723288.30446  22998784.191    22998795.1924
  20677502.446   -23012442.117 9 -17914380.56548  20677506.480    20677515.1554
  20879299.484   -21012489.367 9 -16356542.14147  20879301.779    20879310.0314
  21680499.066   -13514196.394 8 -10488173.04847  21680501.249    21680510.4024
  20934250.957   -20500604.328 9 -15960764.32747  20934256.037    20934263.6274
  24142053.809    -1725179.630 8  -1328609.72545  24142057.582    24142068.4754
  24642540.146    -3842118.276 7  -2972521.18845  24642555.565    24642564.4024
 00  5 15  2  7 30.0000000  0  8 09 05 21 23 15 29 30 25
  22217237.577   -11649948.448 8  -9063036.68746  22217242.944    22217252.0314
  22988151.573    -8955701.529 8  -6766822.67446  22988153.690    22988163.0294
  20668069.269   -23062031.644 9 -17953021.71848  20668070.353    20668078.3784
  20885188.037   -20981538.606 9 -16332424.68447  20885191.403    20885199.3854
  21674290.055   -13546823.277 8 -10513596.52047  21674292.220    21674301.1214
  20928535.346   -20530650.345 9 -15984176.77347  20928538.517    20928545.9064
  24124159.526    -1819241.879 8  -1401904.82245  24124157.663    24124169.3864
  24622836.472    -3945747.300 7  -3053270.86645  24622833.488    24622844.9024
 00  5 15  2  8  0.0000000  0  8 09 05 21 23 15 29 30 25
  22233779.784   -11563032.303 8  -8995309.85446  22233783.568    22233790.6974
  22977592.453    -9011186.921 8  -6810057.92246  22977594.581    22977605.0504
  20658693.946   -23111283.714 9 -17991399.90748  20658697.612    20658706.0594
  20891153.500   -20950196.874 9 -16308002.57847  20891155.763    20891163.8854
  21668195.795   -13578834.510 8 -10538540.31247  21668200.345    21668209.4404
  20922858.334   -20560482.911 9 -16007422.92847  20922861.580    20922868.8534
  24106269.361    -1913256.133 8  -1475162.57245  24106268.446    24106278.8294
  24603136.140    -4049271.274 7  -3133938.66345  24603133.523    24603146.4074
 00  5 15  2  8 30.0000000  0  8 09 05 21 23 15 29 30 25
  22250385.210   -11475778.587 8  -8927319.95446  22250386.965    22250395.3614
  22967108.624    -9066285.703 8  -6852991.92346  22967109.447    22967120.3894
  20649386.537   -23160195.852 9 -18029513.23348  20649390.024    20649398.2584
  20897191.898   -20918463.771 9 -16283275.50947  20897194.361    20897202.4124
  21662223.287   -13610229.091 8 -10563003.60347  21662226.074    21662235.5514
  20917222.964   -20590102.253 9 -16030502.91947  20917224.966    20917232.2874
  24088380.750    -2007219.240 8  -1548380.45445  24088386.308    24088399.3464
  24583448.287    -4152688.856 7  -3214523.56445  24583454.333    24583466.5704
 00  5 15  2  9  0.0000000  0  8 09 05 21 23 15 29 30 25
  22267051.302   -11388189.927 8  -8859069.07546  22267054.682    22267062.9644
  22956696.531    -9120995.421 8  -6895622.76046  22956698.762    22956708.7184
  20640144.117   -23208766.085 9 -18067360.12648  20640147.174    20640155.8244
  20903304.020   -20886338.652 9 -16258242.96747  20903307.370    20903315.6114
  21656368.840   -13641005.693 8 -10586985.33247  21656370.263    21656378.9174
  20911626.928   -20619508.487 9 -16053416.85647  20911629.253    20911636.5404
  24070511.770    -2101128.072 8  -1621556.06945  24070516.956    24070528.1244
  24563802.015    -4255997.793 8  -3295023.79145  24563795.250    24563806.6744
 00  5 15  2  9 30.0000000  0  8 09 05 21 23 15 29 30 25
  22283785.164   -11300269.024 8  -8790559.31246  22283785.955    22283793.4024
  22946359.720    -9175313.509 8  -6937948.42146  22946362.151    22946372.1204
  20630967.539   -23256992.131 9 -18104938.82148  20630969.980    20630978.1494
  20909492.699   -20853821.264 9 -16232904.76847  20909495.455    20909503.5444
  21650628.364   -13671162.861 8 -10610484.38547  21650630.365    21650640.0754
  20906070.062   -20648701.778 9 -16076164.88847  20906073.577    20906081.3444
  24052657.956    -2194979.529 8  -1694686.93545  24052657.279    24052668.2504
  24544153.014    -4359196.247 8  -3375437.88445  24544157.992    24544168.2774
 00  5 15  2 10  0.0000000  0  8 09 05 21 23 15 29 30 25
  22300578.417   -11212018.879 8  -8721792.95546  22300579.538    22300587.6264
  22936096.792    -9229237.076 8  -6979966.65946  22936101.371    22936111.6654
  20621855.184   -23304871.843 9 -18142247.65248  20621859.064    20621867.3414
  20915755.776   -20820911.194 9 -16207260.57747  20915758.282    20915766.5004
  21645008.601   -13700699.566 8 -10633499.94047  21645009.701    21645019.4494
  20900556.562   -20677682.454 9 -16098747.23047  20900559.446    20900566.4324
  24034806.972    -2288770.902 8  -1767770.99845  24034809.551    24034820.8674
  24524535.132    -4462282.634 8  -3455764.73745  24524541.224    24524550.1994
 00  5 15  2 10 30.0000000  0  8 09 05 21 23 15 29 30 25
  22317428.719   -11123442.267 8  -8652772.23546  22317434.729    22317442.7024
  22925910.574    -9282763.626 8  -7021675.55446  22925914.833    22925924.9304
  20612811.252   -23352403.277 9 -18179285.09148  20612814.106    20612822.4984
  20922091.970   -20787607.899 9 -16181309.98547  20922095.685    20922104.0524
  21639504.744   -13729615.160 8 -10656031.49347  21639508.223    21639516.9964
  20895080.317   -20706450.375 9 -16121163.75947  20895084.784    20895092.4674
  24016971.237    -2382498.893 8  -1840805.66545  24016973.454    24016984.4184
  24504944.899    -4565254.893 8  -3536002.65645  24504946.124    24504956.0254
 00  5 15  2 11  0.0000000  0  8 09 05 21 23 15 29 30 25
  22334349.441   -11034541.975 8  -8583499.25746  22334351.841    22334359.7594
  22915803.495    -9335890.890 8  -7063073.31946  22915804.805    22915814.9644
  20603834.271   -23399584.174 9 -18216049.40248  20603836.181    20603844.3274
  20928504.956   -20753910.982 9 -16155052.67347  20928507.825    20928516.0304
  21634118.614   -13757908.596 8 -10678078.30747  21634123.391    21634132.7804
  20889646.148   -20735006.118 9 -16143414.93347  20889650.500    20889658.5894
  23999144.866    -2476160.382 8  -1913788.48145  23999150.643    23999160.4454
  24485356.429    -4668111.668 7  -3616150.54445  24485371.526    24485384.2384
 00  5 15  2 11 30.0000000  0  8 09 05 21 23 15 29 30 25
  22351326.471   -10945320.697 8  -8513976.19746  22351330.271    22351338.8254
  22905763.933    -9388616.326 8  -7104157.96346  22905771.075    22905781.3194
  20594922.037   -23446412.451 9 -18252538.93348  20594924.809    20594933.1084
  20934992.209   -20719820.047 9 -16128488.34047  20934995.111    20935003.0754
  21628855.217   -13785578.757 8 -10699639.43647  21628858.115    21628867.1954
  20884253.368   -20763349.674 9 -16165500.76347  20884256.998    20884265.0014
  23981336.839    -2569752.678 8  -1986717.42745  23981340.345    23981351.4194
  24465806.665    -4770851.298 7  -3696207.08945  24465817.357    24465833.8694
 00  5 15  2 12  0.0000000  0  8 09 05 21 23 15 29 30 25
  22368363.261   -10855781.105 8  -8444205.08646  22368369.265    22368376.9544
  22895811.362    -9440937.045 8  -7144927.25646  22895814.920    22895824.8554
  20586078.362   -23492885.875 9 -18288751.96548  20586081.258    20586089.3334
  20941556.494   -20685334.826 9 -16101616.76147  20941557.551    20941565.4944
  21623708.946   -13812624.831 9 -10720714.24547  21623711.920    21623720.7584
  20878900.171   -20791481.383 9 -16187421.55247  20878903.461    20878911.7614
  23963541.125    -2663272.592 8  -2059590.02346  23963544.147    23963555.0834
  24446288.505    -4873471.649 7  -3776170.75745  24446291.391    24446304.4884
 00  5 15  2 12 30.0000000  0  8 09 05 21 23 15 29 30 25
  22385464.638   -10765926.239 8  -8374188.31646  22385468.306    22385476.1804
  22885926.265    -9492850.533 8  -7185379.23246  22885936.108    22885945.3324
  20577301.978   -23539002.023 9 -18324686.59048  20577305.964    20577313.7134
  20948190.557   -20650454.970 9 -16074437.67547  20948194.908    20948202.8184
  21618680.280   -13839045.864 8 -10741301.98247  21618683.858    21618693.5824
  20873589.129   -20819401.445 9 -16209177.40347  20873590.857    20873598.3934
  23945758.928    -2756716.905 8  -2132403.73646  23945762.258    23945772.5294
  24426784.634    -4975971.065 7  -3856040.24545  24426785.506    24426799.3354
 00  5 15  2 13  0.0000000  0  8 09 05 21 23 15 29 30 25
  22402623.115   -10675758.802 8  -8303927.97046  22402626.305    22402633.9984
  22876130.636    -9544354.332 8  -7225511.95446  22876135.273    22876144.8074
  20568596.367   -23584758.236 9 -18360340.76548  20568598.753    20568606.3214
  20954905.281   -20615180.118 9 -16046950.80247  20954907.460    20954915.4414
  21613770.575   -13864840.967 8 -10761401.98547  21613774.428    21613783.9024
  20868315.691   -20847110.038 9 -16230768.48547  20868318.142    20868325.0604
  23927991.427    -2850082.646 8  -2205156.18745  23927994.798    23928004.4234
  24407301.028    -5078347.708 7  -3935814.03645  24407305.344    24407316.9524
 00  5 15  2 13 30.0000000  0  8 09 05 21 23 15 29 30 25
  22419839.769   -10585281.569 8  -8233426.24146  22419844.240    22419852.2274
  22866412.378    -9595445.875 8  -7265323.44846  22866413.213    22866422.4664
  20559957.216   -23630152.591 9 -18395712.95548  20559960.360    20559967.9724
  20961693.930   -20579509.982 9 -16019155.90747  20961695.580    20961703.3284
  21608983.930   -13890008.940 8 -10781013.38047  21608985.443    21608994.9104
  20863081.537   -20874607.177 9 -16252194.78647  20863085.190    20863092.8684
  23910241.499    -2943366.690 8  -2277844.99846  23910243.865    23910254.3764
  24387828.526    -5180599.807 7  -4015490.80345  24387847.140    24387859.3654
 00  5 15  2 14  0.0000000  0  8 09 05 21 23 15 29 30 25
  22437116.245   -10494497.443 8  -8162685.37346  22437118.594    22437127.1674
  22856767.911    -9646122.578 8  -7304811.68446  22856769.390    22856778.9914
  20551387.219   -23675183.453 9 -18430801.91148  20551390.981    20551398.9034
  20968554.661   -20543444.256 9 -15991052.76547  20968558.261    20968566.4314
  21604314.361   -13914548.991 8 -10800135.45147  21604315.561    21604324.9134
  20857891.507   -20901893.223 9 -16273456.58547  20857892.923    20857900.2574
  23892506.753    -3036565.967 8  -2350467.74345  23892507.073    23892518.1554
  24368416.691    -5282725.892 7  -4095069.34545  24368412.282    24368424.3164
 00  5 15  2 14 30.0000000  0  8 09 05 21 23 15 29 30 25
  22454448.281   -10403408.960 8  -8091707.32946  22454452.431    22454460.8174
  22847206.501    -9696382.039 8  -7343974.80846  22847206.364    22847214.1154
  20542887.386   -23719848.516 9 -18465605.85648  20542891.345    20542899.5854
  20975492.430   -20506982.454 9 -15962641.00347  20975496.675    20975505.0104
  21599761.834   -13938460.505 8 -10818767.75747  21599765.825    21599775.4044
  20852737.045   -20928968.318 9 -16294553.99247  20852740.381    20852747.8994
  23874778.206    -3129677.535 8  -2423022.17746  23874789.807    23874800.7074
  24349005.761    -5384724.109 8  -4174548.20445  24349003.084    24349014.8764
 00  5 15  2 15  0.0000000  0  8 09 05 21 23 15 29 30 25
  22471840.542   -10312018.972 8  -8020494.35546  22471842.375    22471851.5584
  22837720.287    -9746221.935 8  -7382810.99246  22837721.583    22837730.5774
  20534458.899   -23764145.738 9 -18500123.15548  20534462.100    20534470.0204
  20982508.476   -20470124.238 9 -15933920.33947  20982510.965    20982518.7894
  21595333.652   -13961742.689 8 -10836909.66647  21595334.829    21595343.7464
  20847626.477   -20955832.723 9 -16315487.26647  20847628.551    20847635.8854
  23857082.715    -3222698.010 8  -2495505.60346  23857088.313    23857099.3614
  24329609.758    -5486592.685 7  -4253926.12945  24329618.466    24329628.7354
 00  5 15  2 15 30.0000000  0  8 09 05 21 23 15 29 30 25
  22489283.711   -10220330.360 8  -7949048.67346  22489290.926    22489298.7144
  22828310.794    -9795639.739 8  -7421318.26346  22828317.053    22828326.4944
  20526099.736   -23808072.946 9 -18534352.14648  20526103.117    20526111.1554
  20989597.724   -20432869.376 9 -15904890.60247  20989599.965    20989608.0034
  21591020.268   -13984394.920 8 -10854560.71247  21591024.012    21591032.5304
  20842554.233   -20982486.459 9 -16336256.37047  20842556.273    20842563.5804
  23839404.390    -3315624.261 8  -2567915.58446  23839405.288    23839415.9974
  24310256.362    -5588329.915 8  -4333201.69545  24310258.632    24310269.3264
 00  5 15  2 16  0.0000000  0  8 09 05 21 23 15 29 30 25
  22506794.527   -10128345.921 8  -7877372.49846  22506794.344    22506803.9794
  22818989.640    -9844632.986 8  -7459494.72946  22818993.705    22819003.4844
  20517811.546   -23851627.681 9 -18568290.86948  20517814.946    20517822.4974
  20996758.038   -20395217.512 9 -15875551.52147  20996764.869    20996772.8814
  21586827.942   -14006416.276 8 -10871720.17547  21586833.660    21586842.8174
  20837519.822   -21008929.834 9 -16356861.55747  20837523.959    20837531.2474
  23821739.344    -3408453.500 8  -2640249.94746  23821739.691    23821750.5454
  24290916.292    -5689934.577 7  -4412373.97145  24290923.628    24290934.5434
 00  5 15  2 16 30.0000000  0  8 09 05 21 23 15 29 30 25
  22524350.599   -10036068.281 8  -7805467.86646  22524354.262    22524363.4864
  22809746.770    -9893199.464 8  -7497338.63946  22809751.346    22809761.5784
  20509595.993   -23894807.831 9 -18601937.74048  20509598.023    20509605.6034
  21004003.266   -20357168.720 9 -15845903.13747  21004005.506    21004013.2274
  21582761.895   -14027806.079 9 -10888387.49547  21582764.222    21582772.0114
  20832529.496   -21035162.938 9 -16377302.89547  20832532.237    20832539.7754
  23804096.279    -3501182.803 8  -2712506.52745  23804094.927    23804105.5184
  24271614.316    -5791404.648 8  -4491441.37145  24271615.093    24271624.7464
 00  5 15  2 17  0.0000000  0  8 09 05 21 23 15 29 30 25
  22541960.209    -9943500.296 8  -7733336.95746  22541969.225    22541978.7504
  22800586.217    -9941336.614 8  -7534848.00146  22800591.455    22800601.4084
  20501451.081   -23937611.440 9 -18635291.17348  20501452.827    20501460.8094
  21011321.131   -20318722.485 9 -15815945.06947  21011321.772    21011329.6174
  21578808.542   -14048563.530 8 -10904562.09647  21578813.330    21578822.4674
  20827575.739   -21061185.977 9 -16397580.55947  20827580.166    20827587.8044
  23786465.640    -3593808.828 8  -2784682.60046  23786469.262    23786479.9474
  24252330.624    -5892737.981 8  -4570402.24445  24252331.952    24252340.2944
 00  5 15  2 17 30.0000000  0  8 09 05 21 23 15 29 30 25
  22559637.780    -9850644.824 8  -7660982.06746  22559639.539    22559648.7154
  22791508.619    -9989042.101 8  -7572021.03446  22791512.891    22791522.2734
  20493375.610   -23980036.152 9 -18668349.38748  20493379.307    20493387.7274
  21018709.298   -20279878.753 9 -15785677.25647  21018713.506    21018721.5484
  21574981.517   -14068687.883 8 -10920243.36447  21574984.281    21574992.3914
  20822664.778   -21086999.141 9 -16417694.69647  20822668.149    20822675.4984
  23768854.682    -3686328.268 8  -2856775.68045  23768861.585    23768872.5134
  24233069.234    -5993933.102 8  -4649255.45745  24233074.699    24233083.4224
 00  5 15  2 18  0.0000000  0  8 09 05 21 23 15 29 30 25
  22577351.033    -9757504.391 8  -7588405.12446  22577362.784    22577371.9274
  22782513.529   -10036313.330 8  -7608855.66146  22782517.856    22782527.4114
  20485375.770   -24022079.974 9 -18701110.78848  20485378.475    20485386.5274
  21026177.188   -20240637.398 9 -15755099.61347  21026180.461    21026188.9004
  21571272.109   -14088178.645 8 -10935430.92447  21571274.677    21571284.3684
  20817793.572   -21112602.685 9 -16437645.48747  20817795.941    20817803.6474
  23751274.118    -3778738.510 8  -2928783.64045  23751277.468    23751287.7374
  24213846.279    -6094988.572 8  -4727999.77645  24213842.913    24213855.2614
 00  5 15  2 18 30.0000000  0  8 09 05 21 23 15 29 30 25
  22595140.963    -9664081.802 8  -7515608.31346  22595141.984    22595151.2134
  22773603.759   -10083147.995 8  -7645350.11946  22773605.775    22773615.0934
  20477448.555   -24063740.662 9 -18733573.63148  20477450.991    20477458.9204
  21033721.461   -20200997.957 9 -15724211.77547  21033723.622    21033731.9574
  21567685.883   -14107035.239 8 -10950124.35847  21567686.063    21567695.5764
  20812959.599   -21137996.574 9 -16457432.90647  20812963.170    20812971.3264
  23733713.267    -3871035.842 8  -3000703.64346  23733713.815    23733724.4974
  24194639.907    -6195902.444 7  -4806633.74345  24194639.421    24194652.1014
 00  5 15  2 19  0.0000000  0  8 09 05 21 23 15 29 30 25
  22612970.119    -9570379.812 8  -7442593.80046  22612972.603    22612980.7164
  22764771.385   -10129543.657 8  -7681502.49646  22764775.897    22764785.4154
  20469593.358   -24105016.023 9 -18765736.22748  20469596.666    20469604.7044
  21041341.340   -20160960.225 9 -15693013.57047  21041342.814    21041350.8314
  21564213.447   -14125257.088 8 -10964323.17147  21564218.236    21564227.7274
  20808168.243   -21163181.198 9 -16477057.25548  20808171.290    20808178.7474
  23716171.468    -3963217.370 8  -3072533.35646  23716171.956    23716183.4884
  24175466.827    -6296673.185 7  -4885156.20645  24175463.134    24175475.8784
 00  5 15  2 19 30.0000000  0  8 09 05 21 23 15 29 30 25
  22630847.965    -9476401.181 8  -7369363.69346  22630855.480    22630864.6774
  22756029.787   -10175498.275 8  -7717311.19046  22756031.841    22756040.8524
  20461812.546   -24145903.531 9 -18797596.60248  20461815.712    20461823.9604
  21049032.773   -20120524.159 9 -15661504.97647  21049037.583    21049045.6894
  21560869.699   -14142843.417 8 -10978026.78547  21560872.110    21560880.9134
  20803414.916   -21188156.557 9 -16496518.55348  20803418.504    20803426.4574
  23698648.874    -4055279.895 8  -3144270.37046  23698653.244    23698664.2874
  24156306.754    -6397298.465 8  -4963565.33245  24156315.587    24156327.3454
 00  5 15  2 20  0.0000000  0  8 09 05 21 23 15 29 30 25
  22648789.871    -9382148.996 8  -7295920.47646  22648791.280    22648800.7494
  22747368.470   -10221009.397 8  -7752774.32946  22747371.748    22747381.5324
  20454106.174   -24186401.951 9 -18829153.79948  20454109.277    20454117.3524
  21056805.303   -20079689.605 9 -15629685.88547  21056808.297    21056816.2224
  21557641.027   -14159793.825 8 -10991234.86847  21557646.412    21557655.7154
  20798702.635   -21212922.774 9 -16515816.87348  20798705.522    20798713.6454
  23681150.346    -4147220.474 8  -3215912.36746  23681156.567    23681168.2214
  24137194.499    -6497777.304 8  -5041860.38045  24137195.519    24137206.9814
 00  5 15  2 20 30.0000000  0  8 09 05 21 23 15 29 30 25
  22666774.983    -9287625.747 8  -7222266.01446  22666779.256    22666787.6124
  22738788.124   -10266074.873 8  -7787890.18446  22738795.156    22738805.4854
  20446474.465   -24226509.216 9 -18860406.19048  20446477.159    20446485.5524
  21064652.238   -20038456.255 9 -15597556.03147  21064654.434    21064662.9384
  21554540.880   -14176108.044 8 -11003947.23647  21554542.409    21554551.6624
  20794029.500   -21237480.206 9 -16534952.47748  20794032.993    20794040.2004
  23663676.511    -4239036.082 8  -3287456.93846  23663684.843    23663696.5324
  24118101.295    -6598107.668 8  -5120039.67845  24118102.298    24118114.7784
 00  5 15  2 21  0.0000000  0  8 09 05 21 23 15 29 30 25
  22684817.399    -9192834.182 8  -7148402.48346  22684817.685    22684826.5094
  22730298.344   -10310692.388 8  -7822656.99746  22730305.006    22730314.6244
  20438917.437   -24266222.385 9 -18891351.49548  20438919.838    20438928.2844
  21072574.523   -19996824.034 9 -15565115.37647  21072577.175    21072585.5634
  21551555.483   -14191785.450 8 -11016163.37847  21551558.639    21551567.5684
  20789396.530   -21261828.882 9 -16553925.42248  20789399.139    20789406.5824
  23646237.110    -4330723.541 8  -3358901.71246  23646237.979    23646248.3804
  24099025.729    -6698288.174 7  -5198102.26545  24099036.673    24099048.3034
 00  5 15  2 21 30.0000000  0  8 09 05 21 23 15 29 30 25
  22702901.534    -9097776.976 8  -7074331.94846  22702906.890    22702914.7654
  22721896.729   -10354859.529 8  -7857072.86346  22721900.581    22721909.7704
  20431434.392   -24305539.640 9 -18921988.30148  20431438.105    20431446.2444
  21080574.161   -19954792.799 9 -15532363.80647  21080575.434    21080584.0144
  21548694.960   -14206825.472 9 -11027882.85247  21548697.123    21548705.9014
  20784802.504   -21285968.972 9 -16572735.83248  20784805.043    20784813.0914
  23628813.147    -4422279.349 8  -3430243.92246  23628814.909    23628826.0314
  24080004.076    -6798317.129 7  -5276046.72145  24080002.056    24080014.4214
 00  5 15  2 22  0.0000000  0  8 09 05 21 23 15 29 30 25
  22721038.874    -9002456.815 8  -7000056.50946  22721045.022    22721053.3194
  22713577.730   -10398573.933 8  -7891135.95646  22713581.663    22713590.4214
  20424029.646   -24344459.054 9 -18952315.08748  20424032.118    20424040.0734
  21088644.172   -19912362.580 9 -15499301.34347  21088649.643    21088657.9764
  21545954.208   -14221227.686 8 -11039105.33447  21545956.204    21545965.5644
  20780248.150   -21309900.534 9 -16591383.75947  20780250.971    20780258.7074
  23611418.652    -4513700.569 8  -3501481.22346  23611418.099    23611429.5064
  24060999.604    -6898192.868 8  -5353871.71845  24060997.344    24061008.6734
 00  5 15  2 22 30.0000000  0  8 09 05 21 23 15 29 30 25
  22739228.063    -8906876.587 8  -6925578.42846  22739233.658    22739242.0494
  22705344.750   -10441833.494 8  -7924844.62446  22705349.990    22705358.5904
  20416698.624   -24382978.398 9 -18982330.13048  20416701.931    20416709.9434
  21096795.957   -19869533.173 9 -15465927.80547  21096799.731    21096808.0604
  21543333.857   -14234991.771 9 -11049830.56847  21543337.266    21543346.1674
  20775732.350   -21333623.747 9 -16609869.34248  20775736.186    20775744.4464
  23594041.604    -4604983.855 8  -3572611.01046  23594047.850    23594057.8194
  24042018.311    -6997913.495 8  -5431575.94746  24042022.420    24042032.4554
 00  5 15  2 23  0.0000000  0  8 09 05 21 23 15 29 30 25
  22757466.545    -8811039.304 8  -6850900.06546  22757470.573    22757478.8874
  22697202.112   -10484636.039 8  -7958197.17446  22697204.338    22697213.5284
  20409445.219   -24421095.672 9 -19012031.87648  20409448.489    20409456.5614
  21105026.043   -19826304.385 9 -15432243.06347  21105026.081    21105034.3364
  21540838.255   -14248117.132 9 -11060058.09947  21540839.551    21540848.1954
  20771259.204   -21357139.009 9 -16628192.87448  20771261.877    20771270.0064
  23576697.958    -4696126.514 8  -3643631.19845  23576703.132    23576713.9004
  24023070.185    -7097477.358 8  -5509158.02046  24023074.806    24023085.7304
 00  5 15  2 23 30.0000000  0  8 09 05 21 23 15 29 30 25
  22775757.365    -8714947.149 8  -6776023.10946  22775757.101    22775765.0994
  22689144.949   -10526979.371 8  -7991191.89346  22689146.236    22689155.2574
  20402269.209   -24458808.376 9 -19041418.37248  20402271.894    20402279.9314
  21113321.398   -19782676.194 9 -15398247.08647  21113327.757    21113336.4464
  21538461.968   -14260603.743 8 -11069787.90047  21538463.246    21538472.2514
  20766823.904   -21380446.182 9 -16646354.26348  20766826.960    20766834.2874
  23559380.891    -4787125.075 8  -3714539.08945  23559386.395    23559398.3374
  24004154.041    -7196882.885 8  -5586616.64846  24004158.325    24004169.7664
 00  5 15  2 24  0.0000000  0  8 09 05 21 23 15 29 30 25
  22794084.399    -8618603.220 8  -6700949.94446  22794090.212    22794098.8394
  22681172.234   -10568861.299 8  -8023827.08846  22681176.268    22681185.7544
  20395168.984   -24496114.969 9 -19070488.41848  20395172.675    20395181.0044
  21121702.594   -19738648.473 9 -15363939.81347  21121705.992    21121714.5364
  21536204.691   -14272451.380 8 -11079019.79347  21536208.240    21536218.5434
  20762426.829   -21403545.363 9 -16664353.55947  20762430.922    20762438.2994
  23542101.614    -4877976.646 8  -3785332.37045  23542098.391    23542109.0054
  23985272.222    -7296128.415 8  -5663950.62546  23985272.403    23985282.9544
 00  5 15  2 24 30.0000000  0  8 09 05 21 23 15 29 30 25
  22812471.107    -8522010.104 8  -6625682.60546  22812471.497    22812478.8084
  22673291.592   -10610279.624 8  -8056101.02946  22673295.075    22673304.4874
  20388148.260   -24533013.241 9 -19099240.29148  20388151.101    20388159.1874
  21130159.499   -19694221.192 9 -15329321.19247  21130160.759    21130169.0674
  21534071.400   -14283659.928 8 -11087753.71447  21534075.052    21534085.0764
  20758070.913   -21426436.856 9 -16682191.04447  20758074.926    20758082.1104
  23524830.734    -4968677.890 8  -3856008.58645  23524838.343    23524849.6764
  23966409.741    -7395212.584 8  -5741158.89345  23966416.901    23966426.9104
 00  5 15  2 25  0.0000000  0  8 09 05 21 23 15 29 30 25
  22830895.796    -8425170.443 8  -6550223.16546  22830899.235    22830907.7384
  22665492.781   -10651232.095 8  -8088011.94746  22665502.134    22665511.1334
  20381204.752   -24569500.850 9 -19127672.16848  20381207.645    20381215.7804
  21138689.751   -19649394.332 9 -15294391.20347  21138691.069    21138699.3154
  21532059.847   -14294228.999 8 -11095989.33047  21532063.783    21532073.6264
  20753754.649   -21449120.727 9 -16699866.75847  20753758.509    20753765.5764
  23507599.438    -5059225.708 8  -3926565.23345  23507608.290    23507618.8424
  23947593.503    -7494133.352 8  -5818239.82745  23947592.760    23947601.8384
 00  5 15  2 25 30.0000000  0  8 09 05 21 23 15 29 30 25
  22849373.365    -8328086.900 8  -6474573.67346  22849373.864    22849381.6614
  22657795.184   -10691716.657 8  -8119558.27846  22657798.254    22657807.4594
  20374338.573   -24605575.843 9 -19155782.53048  20374342.865    20374350.7624
  21147294.192   -19604167.791 9 -15259149.77847  21147297.001    21147305.9444
  21530171.499   -14304158.093 8 -11103726.28647  21530174.520    21530184.5024
  20749477.880   -21471597.129 9 -16717380.79547  20749481.181    20749488.5414
  23490402.467    -5149617.103 8  -3997000.06745  23490406.038    23490417.2034
  23928801.635    -7592889.155 8  -5895192.22545  23928800.277    23928810.5824
 00  5 15  2 26  0.0000000  0  8 09 05 21 23 15 29 30 25
  22867889.147    -8230762.387 8  -6398736.42046  22867893.632    22867902.2084
  22650179.027   -10731731.118 8  -8150738.32046  22650183.502    22650191.8074
  20367553.240   -24641236.369 9 -19183569.91948  20367556.629    20367565.0514
  21155975.333   -19558541.709 9 -15223597.03247  21155979.418    21155988.5564
  21528402.677   -14313447.026 8 -11110964.39647  21528407.381    21528417.1474
  20745237.436   -21493866.170 9 -16734733.25247  20745243.129    20745250.5234
  23473234.612    -5239848.589 8  -4067310.34845  23473237.007    23473245.7964
  23910037.090    -7691478.906 8  -5972015.24845  23910039.375    23910049.9314
 00  5 15  2 26 30.0000000  0  8 09 05 21 23 15 29 30 25
  22886459.544    -8133199.516 8  -6322713.43946  22886459.345    22886468.1804
  22642655.562   -10771273.538 8  -8181550.52646  22642658.599    22642667.2944
  20360846.411   -24676480.115 9 -19211032.55648  20360850.300    20360858.1194
  21164733.990   -19512516.028 9 -15187732.92247  21164737.981    21164746.3444
  21526757.966   -14322095.864 8 -11117703.72447  21526761.771    21526771.1784
  20741042.125   -21515927.863 9 -16751924.14547  20741044.969    20741052.3474
  23456098.026    -5329917.372 8  -4137493.81945  23456097.487    23456107.4134
  23891305.593    -7789900.189 8  -6048706.98446  23891310.560    23891321.4074
 00  5 15  2 27  0.0000000  0  8 09 05 21 23 15 29 30 25
  22905065.324    -8035400.895 8  -6246506.73246  22905070.071    22905078.1254
  22635223.064   -10810341.743 8  -8211993.21346  22635224.248    22635232.9254
  20354219.580   -24711305.126 9 -19238168.90248  20354223.196    20354231.1754
  21173569.923   -19466090.821 9 -15151557.52047  21173572.966    21173580.5564
  21525234.976   -14330104.601 8 -11123944.28347  21525236.954    21525247.0874
  20736883.561   -21537782.619 9 -16768953.79547  20736886.120    20736893.6034
  23438981.561    -5419820.040 8  -4207547.82245  23438988.526    23438999.5134
  23872611.291    -7888151.638 8  -6125266.35545  23872612.608    23872624.4884
 00  5 15  2 27 30.0000000  0  8 09 05 21 23 15 29 30 25
  22923722.845    -7937369.362 8  -6170118.54846  22923725.032    22923733.5354
  22627874.372   -10848933.434 8  -8242064.58746  22627879.983    22627890.0444
  20347672.291   -24745709.689 9 -19264977.61948  20347676.109    20347684.2094
  21182479.188   -19419265.986 9 -15115070.70647  21182482.974    21182491.4484
  21523830.593   -14337472.805 8 -11129685.74847  21523835.256    21523845.2814
  20732763.298   -21559430.223 9 -16785822.04147  20732766.769    20732773.9684
  23421911.017    -5509553.418 8  -4277469.88445  23421912.657    23421922.5854
  23853938.425    -7986231.855 8  -6201692.29045  23853948.420    23853959.2694
 00  5 15  2 28  0.0000000  0  8 09 05 21 23 15 29 30 25
  22942417.489    -7839107.819 8  -6093551.11746  22942423.775    22942432.1644
  22620625.794   -10887046.780 8  -8271763.24246  22620627.664    22620636.5974
  20341207.240   -24779691.195 9 -19291456.69448  20341209.831    20341217.4574
  21191465.737   -19372041.486 9 -15078272.47147  21191469.295    21191478.2594
  21522552.034   -14344200.438 8 -11134928.03847  21522554.536    21522565.1714
  20728682.937   -21580871.122 9 -16802529.21947  20728686.826    20728694.0854
  23404857.112    -5599114.360 8  -4347257.52646  23404869.795    23404880.2524
  23835321.656    -8084138.935 8  -6277983.33745  23835318.496    23835327.7784
 00  5 15  2 28 30.0000000  0  8 09 05 21 23 15 29 30 25
  22961160.262    -7740618.645 8  -6016806.34946  22961164.267    22961173.9944
  22613462.369   -10924679.732 8  -8301087.55146  22613466.598    22613475.6314
  20334820.055   -24813247.916 9 -19317604.75448  20334823.989    20334832.0264
  21200528.610   -19324417.391 9 -15041162.84647  21200532.226    21200540.6424
  21521393.886   -14350287.696 8 -11139671.35047  21521396.629    21521406.3884
  20724645.045   -21602105.049 9 -16819075.11747  20724645.787    20724653.3294
  23387860.634    -5688499.849 8  -4416908.48046  23387861.475    23387871.9184
  23816715.789    -8181871.625 8  -6354138.54146  23816721.412    23816729.8794
 00  5 15  2 29  0.0000000  0  8 09 05 21 23 15 29 30 25
  22979945.892    -7641904.259 8  -5939886.08446  22979949.193    22979959.1134
  22606394.148   -10961830.309 8  -8330035.97346  22606396.775    22606404.6934
  20328516.718   -24846377.944 9 -19343420.33848  20328519.799    20328527.6374
  21209670.991   -19276393.816 9 -15003741.93647  21209671.216    21209679.5664
  21520359.114   -14355734.536 9 -11143915.62147  21520360.421    21520369.7884
  20720640.767   -21623132.284 9 -16835459.93447  20720644.407    20720651.9884
  23370885.199    -5777706.758 8  -4486420.28846  23370885.321    23370895.6944
  23798155.645    -8279428.252 8  -6430156.51646  23798156.584    23798165.2924
 00  5 15  2 29 30.0000000  0  8 09 05 21 23 15 29 30 25
  22998778.089    -7542967.548 8  -5862792.56846  22998776.214    22998785.5964
  22599416.267   -10998496.317 8  -8358606.82646  22599419.125    22599428.4394
  20322293.798   -24879079.021 9 -19368901.66848  20322296.766    20322304.6304
  21218880.982   -19227971.074 9 -14966009.98047  21218885.533    21218893.7964
  21519443.570   -14360540.945 8 -11147660.86647  21519445.348    21519455.4904
  20716680.079   -21643953.071 9 -16851683.89847  20716682.515    20716689.8854
  23353943.585    -5866731.822 8  -4555790.35946  23353944.703    23353954.3994
  23779619.592    -8376806.969 8  -6506035.89945  23779624.526    23779634.4444
 00  5 15  2 30  0.0000000  0  8 09 05 21 23 15 29 30 25
  23017640.085    -7443811.623 8  -5785528.22546  23017645.327    23017654.3514
  22592533.673   -11034676.059 8  -8386798.75546  22592534.045    22592543.2624
  20316153.701   -24911349.478 9 -19394047.46248  20316156.019    20316163.6654
  21228172.325   -19179149.154 9 -14927966.96947  21228176.234    21228184.5654
  21518650.305   -14364706.834 8 -11150906.99547  21518652.674    21518662.5264
  20712755.968   -21664567.172 9 -16867746.80648  20712760.043    20712767.3964
  23337034.828    -5955571.861 8  -4625016.27946  23337038.222    23337048.6564
  23761126.968    -8474006.627 8  -6581775.70945  23761129.130    23761137.5214
 00  5 15  2 30 30.0000000  0  8 09 05 21 23 15 29 30 25
  23036548.684    -7344438.911 8  -5708094.95246  23036556.107    23036564.8004
  22585737.899   -11070367.401 8  -8414610.12046  22585741.871    22585751.1014
  20310094.296   -24943186.819 9 -19418855.76048  20310097.536    20310105.5404
  21237539.266   -19129928.152 9 -14889612.98547  21237542.529    21237551.1464
  21517979.234   -14368232.473 9 -11153654.25947  21517981.865    21517991.1974
  20708873.016   -21684975.043 9 -16883649.01948  20708876.726    20708883.8004
  23320158.786    -6044223.620 8  -4694095.41946  23320168.351    23320179.5214
  23742655.786    -8571025.102 8  -6657374.37146  23742666.343    23742676.1804
 00  5 15  2 31  0.0000000  0  8 09 05 21 23 15 29 30 25
  23055506.973    -7244851.762 8  -5630494.57346  23055506.678    23055515.5814
  22579042.024   -11105568.330 8  -8442039.36046  22579044.300    22579053.6084
  20304119.541   -24974589.532 9 -19443325.38148  20304121.547    20304129.5294
  21246980.582   -19080308.168 9 -14850948.10447  21246984.796    21246993.5734
  21517431.074   -14371117.934 9 -11155902.66447  21517433.025    21517442.3694
  20705030.383   -21705176.684 9 -16899390.53448  20705032.260    20705039.4564
  23303330.815    -6132683.882 8  -4763025.30746  23303334.888    23303344.8494
  23724230.782    -8667860.953 8  -6732830.69946  23724238.592    23724249.7914
 00  5 15  2 31 30.0000000  0  8 09 05 21 23 15 29 30 25
  23074497.624    -7145053.094 8  -5552729.40246  23074496.701    23074506.4024
  22572435.782   -11140277.027 8  -8469085.01946  22572439.414    22572448.2364
  20298225.819   -25005555.357 9 -19467454.60248  20298228.858    20298236.5684
  21256499.620   -19030289.391 9 -14811972.45047  21256503.232    21256511.6504
  21517005.142   -14373363.318 9 -11157652.31147  21517006.344    21517015.4494
  20701222.823   -21725172.152 9 -16914971.41648  20701226.980    20701234.5324
  23286538.399    -6220949.639 8  -4831803.56946  23286538.574    23286548.8964
  23705847.562    -8764512.859 8  -6808143.73246  23705846.244    23705857.4914
 00  5 15  2 32  0.0000000  0  8 09 05 21 23 15 29 30 25
  23093515.117    -7045045.640 8  -5474801.55646  23093526.996    23093537.6504
  22565925.955   -11174491.581 8  -8495745.66646  22565928.728    22565937.3574
  20292416.024   -25036082.511 9 -19491241.97348  20292419.774    20292427.7814
  21266092.883   -18979872.008 9 -14772686.20347  21266097.455    21266106.3524
  21516697.548   -14374968.875 9 -11158903.39447  21516700.028    21516708.8604
  20697455.590   -21744961.418 9 -16930391.58648  20697461.327    20697468.5754
  23269776.794    -6309017.860 8  -4900427.87946  23269778.315    23269790.2194
  23687489.370    -8860979.536 8  -6883312.40046  23687489.286    23687500.1444
 00  5 15  2 32 30.0000000  0  8 09 05 21 23 15 29 30 25
  23112596.291    -6944831.669 8  -5396712.76046  23112598.626    23112607.7904
  22559507.717   -11208210.069 8  -8522019.74446  22559512.411    22559520.5924
  20286692.782   -25066168.953 9 -19514685.95348  20286694.754    20286702.6524
  21275762.175   -18929055.986 9 -14733089.32947  21275767.422    21275776.0084
  21516513.430   -14375934.796 8 -11159656.05247  21516516.240    21516525.0924
  20693732.407   -21764544.858 9 -16945651.41548  20693734.630    20693741.7434
  23253050.605    -6396885.227 8  -4968895.66946  23253057.974    23253069.7084
  23669167.700    -8957259.186 8  -6958335.36146  23669167.362    23669178.6534
 00  5 15  2 33  0.0000000  0  8 09 05 21 23 15 29 30 25
  23131703.834    -6844413.866 8  -5318465.12146  23131706.908    23131716.0594
  22553187.057   -11241430.880 8  -8547906.01846  22553190.217    22553199.2204
  20281048.625   -25095813.032 9 -19537785.22348  20281053.509    20281061.4234
  21285509.590   -18877841.502 9 -14693181.96647  21285513.080    21285521.4764
  21516453.092   -14376261.303 9 -11159910.46247  21516454.146    21516463.3044
  20690044.078   -21783922.232 9 -16960750.65148  20690047.378    20690054.6794
  23236378.108    -6484548.533 8  -5037204.46246  23236376.913    23236386.5664
  23650874.473    -9053349.822 8  -7033211.04546  23650882.362    23650893.0264
 00  5 15  2 33 30.0000000  0  8 09 05 21 23 15 29 30 25
  23150851.818    -6743794.815 8  -5240060.66846  23150853.585    23150862.9574
  22546961.864   -11274152.106 8  -8573403.01546  22546963.441    22546972.7184
  20275496.807   -25125012.266 9 -19560537.87048  20275497.492    20275505.0024
  21295329.397   -18826228.882 9 -14652964.35447  21295334.334    21295343.0864
  21516511.479   -14375948.638 9 -11159666.83947  21516513.665    21516523.0664
  20686396.521   -21803093.691 9 -16975689.42048  20686399.287    20686406.3524
  23219733.671    -6572004.709 8  -5105351.86046  23219734.499    23219743.7094
  23632628.977    -9149250.116 8  -7107938.40846  23632632.704    23632643.6394
 00  5 15  2 34  0.0000000  0  8 09 05 21 23 15 29 30 25
  23170030.485    -6642977.486 8  -5161501.73846  23170038.684    23170048.0894
  22540827.457   -11306371.840 8  -8598509.23846  22540831.551    22540841.3814
  20270021.533   -25153764.873 9 -19582942.49248  20270025.761    20270033.4564
  21305229.120   -18774218.363 9 -14612436.69747  21305232.163    21305240.5134
  21516692.367   -14374996.984 9 -11158925.27547  21516694.894    21516703.8504
  20682786.942   -21822059.238 9 -16990467.73648  20682790.277    20682797.2124
  23203127.474    -6659250.666 8  -5173335.49146  23203131.957    23203141.2924
  23614417.902    -9244958.696 8  -7182516.35346  23614419.797    23614430.6194
 00  5 15  2 34 30.0000000  0  8 09 05 21 23 15 29 30 25
  23189253.580    -6541964.327 8  -5082790.23146  23189261.006    23189270.7534
  22534788.885   -11338088.283 8  -8623223.28246  22534796.406    22534805.9124
  20264637.339   -25182068.986 9 -19604997.63948  20264639.489    20264647.4234
  21315202.524   -18721810.139 9 -14571599.14347  21315205.008    21315214.0374
  21516992.804   -14373406.553 9 -11157685.96247  21516997.342    21517006.1074
  20679217.021   -21840819.269 9 -17005085.92748  20679220.664    20679227.2424
  23186561.053    -6746283.068 8  -5241152.70046  23186569.352    23186580.0024
  23596247.499    -9340474.058 8  -7256943.78146  23596244.502    23596254.2614
 00  5 15  2 35  0.0000000  0  8 09 05 21 23 15 29 30 25
  23208517.599    -6440758.036 8  -5003928.20046  23208520.516    23208528.9864
  22528855.923   -11369299.610 8  -8647543.74346  22528857.813    22528866.3644
  20259336.598   -25209922.489 9 -19626701.67048  20259339.091    20259346.9384
  21325249.353   -18669004.441 9 -14530451.89347  21325253.550    21325262.1774
  21517417.352   -14371177.743 8 -11155949.21247  21517420.807    21517429.8334
  20675687.139   -21859373.486 9 -17019543.72948  20675689.551    20675696.7354
  23170044.845    -6833098.973 8  -5308801.22146  23170048.578    23170059.4644
  23578098.046    -9435794.557 8  -7331219.37646  23578104.833    23578115.8274
 00  5 15  2 35 30.0000000  0  8 09 05 21 23 15 29 30 25
  23227812.161    -6339361.260 8  -4924917.72846  23227814.906    23227824.3724
  22523012.249   -11400004.126 8  -8671469.27846  22523013.989    22523023.1424
  20254121.115   -25237323.574 9 -19648053.16348  20254125.023    20254132.7264
  21335373.402   -18615801.362 9 -14488994.99647  21335377.751    21335386.1574
  21517963.905   -14368311.101 8 -11153715.46147  21517966.704    21517976.2704
  20672195.471   -21877722.161 9 -17033841.36348  20672198.029    20672204.7644
  23153564.942    -6919695.061 8  -5376278.51446  23153569.857    23153579.4824
  23559998.955    -9530918.743 8  -7405341.96346  23560002.789    23560013.8364
 00  5 15  2 36  0.0000000  0  8 09 05 21 23 15 29 30 25
  23247139.818    -6237776.441 8  -4845760.73746  23247146.791    23247155.2604
  22517267.744   -11430199.896 8  -8694998.39846  22517268.401    22517277.0834
  20248995.335   -25264270.299 9 -19669050.61748  20248997.385    20249005.0294
  21345575.300   -18562201.289 9 -14447228.75447  21345577.480    21345586.3624
  21518631.733   -14364806.832 8 -11150984.85147  21518633.363    21518642.4044
  20668741.115   -21895865.295 9 -17047978.83948  20668745.294    20668752.3334
  23137132.446    -7006068.073 8  -5443581.97346  23137134.120    23137144.0734
  23541938.939    -9625845.167 8  -7479310.48946  23541938.283    23541949.8914
 00  5 15  2 36 30.0000000  0  8 09 05 21 23 15 29 30 25
  23266512.438    -6136006.096 8  -4766459.18346  23266512.856    23266521.4644
  22511620.397   -11459885.287 8  -8718129.80746  22511618.971    22511628.3224
  20243953.469   -25290761.359 9 -19689693.00248  20243956.367    20243963.8564
  21355848.715   -18508204.485 9 -14405153.38847  21355852.805    21355861.6674
  21519418.678   -14360665.320 8 -11147757.67447  21519421.713    21519430.8024
  20665328.343   -21913802.943 9 -17061956.19348  20665331.713    20665338.9904
  23120734.136    -7092215.113 8  -5510709.37046  23120739.968    23120750.2914
  23523905.361    -9720572.311 8  -7553123.71946  23523912.875    23523923.0604
 00  5 15  2 37  0.0000000  0  8 09 05 21 23 15 29 30 25
  23285912.304    -6034053.014 8  -4687015.23445  23285913.471    23285921.6394
  22506064.801   -11489058.581 8  -8740862.19046  22506067.666    22506076.2064
  20238998.341   -25316794.786 9 -19709978.78848  20239002.050    20239009.8924
  21366202.891   -18453811.370 9 -14362769.21547  21366203.621    21366212.6814
  21520329.484   -14355887.242 8 -11144034.46847  21520331.091    21520340.2994
  20661955.364   -21931535.161 9 -17075773.44448  20661957.696    20661964.6724
  23104390.295    -7178132.920 8  -5577658.16046  23104390.894    23104401.0114
  23505926.146    -9815098.359 8  -7626780.28246  23505925.664    23505935.5634
 00  5 15  2 37 30.0000000  0  8 09 05 21 23 15 29 30 25
  23305343.815    -5931919.651 8  -4607430.81545  23305349.902    23305357.0714
  22500614.245   -11517718.109 8  -8763194.24446  22500614.341    22500623.0064
  20234132.729   -25342367.738 9 -19729905.77048  20234135.822    20234143.6634
  21376624.150   -18399022.008 9 -14320076.29347  21376629.761    21376638.8004
  21521359.759   -14350473.290 8 -11139815.78647  21521361.075    21521370.8974
  20658617.918   -21949061.916 9 -17089430.62648  20658622.110    20658629.0884
  23088084.595    -7263818.436 8  -5644426.00546  23088084.762    23088094.0274
  23487969.447    -9909421.643 8  -7700278.84346  23487976.304    23487986.4774
 00  5 15  2 38  0.0000000  0  8 09 05 21 23 15 29 30 25
  23324822.150    -5829608.506 8  -4527707.83846  23324819.248    23324827.2504
  22495254.836   -11545862.496 8  -8785124.88446  22495258.610    22495267.1834
  20229353.568   -25367479.152 9 -19749473.11248  20229357.071    20229364.8724
  21387129.417   -18343836.767 9 -14277074.90247  21387131.277    21387140.1614
  21522510.142   -14344423.663 8 -11135101.76847  21522512.321    21522521.5924
  20655322.298   -21966383.258 9 -17102927.74248  20655325.950    20655332.5274
  23071821.113    -7349268.398 8  -5711010.24646  23071824.399    23071833.3174
  23470067.115   -10003541.160 8  -7773618.60646  23470065.399    23470075.6964
 00  5 15  2 38 30.0000000  0  8 09 05 21 23 15 29 30 25
  23344316.640    -5727122.132 8  -4447848.36146  23344320.469    23344329.9544
  22489998.746   -11573490.009 8  -8806652.74046  22490000.406    22490009.8644
  20224663.674   -25392127.024 9 -19768679.25148  20224666.665    20224674.5774
  21397702.211   -18288255.910 9 -14233765.24247  21397707.777    21397717.1504
  21523784.452   -14337738.861 9 -11129892.81547  21523784.429    21523793.8154
  20652064.872   -21983499.378 9 -17116264.94848  20652068.667    20652075.6834
  23055605.604    -7434479.372 8  -5777408.26646  23055609.634    23055618.0634
  23452190.011   -10097455.618 8  -7846798.61746  23452194.509    23452204.0374
 00  5 15  2 39  0.0000000  0  8 09 05 21 23 15 29 30 25
  23363851.619    -5624463.242 8  -4367854.44846  23363856.412    23363864.5794
  22484843.187   -11600598.856 8  -8827776.46346  22484842.365    22484851.2954
  20220062.586   -25416309.777 9 -19787522.95448  20220065.010    20220072.7794
  21408357.970   -18232279.905 9 -14190147.67047  21408359.708    21408369.0864
  21525172.973   -14330419.600 8 -11124189.46747  21525176.938    21525186.6944
  20648844.877   -22000410.181 9 -17129442.15248  20648850.254    20648857.6734
  23039438.507    -7519448.497 8  -5843617.84446  23039439.619    23039449.3904
  23434359.658   -10191163.114 8  -7919817.34946  23434362.524    23434371.7574
 00  5 15  2 39 30.0000000  0  8 09 05 21 23 15 29 30 25
  23383428.145    -5521634.627 8  -4287728.27446  23383423.918    23383432.5984
  22479779.247   -11627187.530 8  -8848494.86246  22479782.199    22479791.6514
  20215549.885   -25440024.990 9 -19806002.35148  20215552.356    20215560.0234
  21419083.675   -18175909.128 9 -14146222.47547  21419086.959    21419096.1024
  21526688.507   -14322466.408 8 -11117992.14447  21526691.297    21526699.5514
  20645667.505   -22017115.878 9 -17142459.55548  20645671.587    20645678.5614
  23023313.047    -7604172.725 8  -5909636.58046  23023317.217    23023326.9414
  23416565.684   -10284662.236 8  -7992673.70646  23416570.145    23416579.6154
 00  5 15  2 40  0.0000000  0  8 09 05 21 23 15 29 30 25
  23403020.173    -5418638.314 8  -4207471.42346  23403022.694    23403032.3334
  22474819.546   -11653254.465 8  -8868806.69546  22474822.125    22474830.9344
  20211125.673   -25463271.172 9 -19824116.25248  20211128.367    20211136.2554
  21429884.209   -18119144.007 9 -14101990.01347  21429889.000    21429897.9494
  21528321.349   -14313879.966 8 -11111301.38647  21528324.411    21528333.4174
  20642528.802   -22033616.410 9 -17155317.08648  20642531.638    20642538.6984
  23007235.652    -7688648.629 8  -5975461.82546  23007241.675    23007251.8024
  23398814.460   -10377951.520 8  -8065366.57246  23398817.543    23398827.5314
 00  5 15  2 40 30.0000000  0  8 09 05 21 23 15 29 30 25
  23422650.980    -5315477.027 8  -4127086.04846  23422654.144    23422663.0264
  22469963.781   -11678798.013 8  -8888710.69646  22469961.728    22469970.6814
  20206792.470   -25486046.597 9 -19841863.32648  20206794.777    20206802.2414
  21440761.929   -18061984.830 9 -14057450.48547  21440766.197    21440774.7914
  21530075.923   -14304660.916 8 -11104117.68547  21530079.181    21530088.3414
  20639428.162   -22049911.916 9 -17168014.85748  20639430.809    20639437.7374
  22991213.164    -7772873.200 8  -6041091.22146  22991214.934    22991224.1724
  23381105.996   -10471029.752 8  -8137894.96846  23381105.573    23381115.6144
 00  5 15  2 41  0.0000000  0  8 09 05 21 23 15 29 30 25
  23442305.275    -5212153.333 8  -4046574.10746  23442316.065    23442324.3544
  22465194.603   -11703816.715 8  -8908205.73546  22465199.736    22465209.4124
  20202548.461   -25508349.391 9 -19859242.11548  20202550.857    20202558.2264
  21451716.002   -18004432.053 9 -14012604.26147  21451718.072    21451726.6224
  21531950.249   -14294810.086 8 -11096441.69647  21531953.178    21531961.7534
  20636365.957   -22066001.902 9 -17180552.46648  20636369.118    20636375.9674
  22975230.583    -7856843.175 8  -6106522.25346  22975236.324    22975245.5794
  23363431.373   -10563895.319 8  -8210257.65246  23363433.520    23363443.8484
 00  5 15  2 41 30.0000000  0  8 09 05 21 23 15 29 30 25
  23462010.787    -5108669.657 8  -3965937.51646  23462008.765    23462017.1144
  22460537.035   -11728309.082 8  -8927290.63446  22460539.015    22460548.7794
  20198394.483   -25530178.359 9 -19876251.69948  20198396.711    20198404.4084
  21462738.565   -17946486.109 9 -13967451.68847  21462744.920    21462753.4244
  21533946.391   -14284328.031 8 -11088273.85447  21533948.667    21533957.8774
  20633342.039   -22081886.798 9 -17192930.28248  20633346.027    20633353.1834
  22959303.135    -7940555.470 8  -6171752.51946  22959305.308    22959314.9294
  23345796.330   -10656546.386 8  -8282453.23646  23345803.208    23345812.4084
 00  5 15  2 42  0.0000000  0  8 09 05 21 23 15 29 30 25
  23481723.011    -5005028.387 8  -3885178.12445  23481729.738    23481739.4334
  22455976.284   -11752273.558 8  -8945964.20246  22455979.132    22455987.9994
  20194330.285   -25551530.994 9 -19892890.11148  20194333.249    20194341.0724
  21473843.971   -17888147.319 9 -13921992.97747  21473846.695    21473855.2754
  21536057.658   -14273215.547 8 -11079614.77347  21536062.866    21536071.5014
  20630357.674   -22097566.527 9 -17205148.21048  20630362.292    20630369.1734
  22943423.583    -8024007.249 8  -6236779.78746  22943425.278    22943434.1794
  23328212.713   -10748982.185 8  -8354481.05046  23328212.706    23328222.3594
 00  5 15  2 42 30.0000000  0  8 09 05 21 23 15 29 30 25
  23501470.551    -4901232.321 8  -3804298.09345  23501482.250    23501491.8634
  22451520.086   -11775708.729 8  -8964225.33446  22451519.533    22451528.8584
  20190357.886   -25572405.477 9 -19909155.93548  20190361.194    20190368.5874
  21485018.678   -17829416.139 9 -13876228.49747  21485023.097    21485032.2984
  21538293.096   -14261473.262 8 -11070464.92647  21538297.411    21538306.3894
  20627412.502   -22113041.201 9 -17217206.35448  20627417.425    20627425.1144
  22927592.881    -8107195.104 8  -6301601.41546  22927595.577    22927604.1404
  23310659.984   -10841201.126 8  -8426339.89846  23310664.736    23310673.5474
 00  5 15  2 43  0.0000000  0  8 09 05 21 23 15 29 30 25
  23521265.078    -4797283.889 8  -3723299.35746  23521263.459    23521272.6074
  22447155.971   -11798613.070 8  -8982072.81246  22447161.433    22447170.4734
  20186477.823   -25592800.254 9 -19925047.96148  20186480.189    20186487.7774
  21496272.442   -17770293.074 9 -13830158.64947  21496273.787    21496282.3604
  21540648.913   -14249102.160 8 -11060825.10247  21540651.382    21540661.5204
  20624509.539   -22128310.909 9 -17229104.79748  20624511.975    20624519.0264
  22911814.867    -8190116.126 8  -6366215.12946  22911816.148    22911825.2014
  23293154.965   -10933201.520 8  -8498028.44346  23293157.609    23293166.3644
 00  5 15  2 43 30.0000000  0  8 09 05 21 23 15 29 30 25
  23541071.981    -4693185.680 8  -3642183.92746  23541072.846    23541082.0044
  22442898.681   -11820985.297 8  -8999505.68246  22442904.264    22442911.8384
  20182687.516   -25612714.163 9 -19940565.28648  20182690.302    20182698.2744
  21507595.442   -17710778.569 9 -13783783.77947  21507598.851    21507607.6504
  21543119.321   -14236103.163 8 -11050696.00847  21543124.619    21543134.3614
  20621642.954   -22143375.506 9 -17240843.42048  20621645.400    20621652.2814
  22896079.513    -8272766.876 8  -6430618.22346  22896087.915    22896096.7374
  23275688.630   -11024982.465 8  -8569546.00446  23275691.022    23275700.4334
 00  5 15  2 44  0.0000000  0  8 09 05 21 23 15 29 30 25
  23560905.228    -4588940.275 8  -3560953.79246  23560909.818    23560918.9834
  22438746.851   -11842823.966 8  -9016522.78446  22438747.818    22438756.0484
  20178989.404   -25632144.769 9 -19955706.00748  20178992.636    20179000.8874
  21518997.730   -17650873.089 8 -13737104.22847  21518998.351    21519007.5634
  21545710.916   -14222477.009 8 -11040078.23147  21545717.232    21545727.7204
  20618814.965   -22158235.007 9 -17252422.22048  20618817.417    20618824.5664
  22880410.788    -8355144.179 8  -6494808.25246  22880411.994    22880421.0274
  23258262.637   -11116542.037 8  -8640891.05946  23258268.036    23258277.9894
 00  5 15  2 44 30.0000000  0  8 09 05 21 23 15 29 30 25
  23580767.336    -4484549.685 8  -3479610.53645  23580774.634    23580784.0944
  22434693.347   -11864127.768 8  -9033123.12246  22434694.560    22434701.5004
  20175385.064   -25651090.872 9 -19970469.19848  20175387.535    20175395.5864
  21530469.736   -17590577.227 8 -13690120.50147  21530472.431    21530481.7764
  21548428.588   -14208224.475 8 -11028972.35547  21548430.664    21548439.3864
  20616025.096   -22172889.360 9 -17263841.17248  20616028.576    20616036.0024
  22864781.019    -8437245.095 8  -6558782.92246  22864788.399    22864797.2724
  23240885.825   -11207878.955 8  -8712062.64046  23240886.770    23240896.4064
 00  5 15  2 45  0.0000000  0  8 09 05 21 23 15 29 30 25
  23600664.871    -4380016.504 8  -3398156.15445  23600667.382    23600675.4794
  22430739.904   -11884895.271 8  -9049305.55046  22430741.388    22430750.2694
  20171873.828   -25669550.391 9 -19984853.23448  20171874.967    20171882.6854
  21542017.797   -17529891.398 8 -13642832.89347  21542020.528    21542029.7164
  21551256.435   -14193346.466 9 -11017379.10147  21551261.485    21551271.5054
  20613273.448   -22187338.540 9 -17275100.25848  20613278.681    20613286.2344
  22849218.611    -8519066.529 8  -6622539.81646  22849218.133    22849226.9474
  23223546.655   -11298991.604 8  -8783059.46346  23223548.412    23223558.3314
 00  5 15  2 45 30.0000000  0  9 09 11 05 21 23 15 29 30 25
  23620580.571    -4275343.159 7  -3316592.60645  23620584.550    23620594.6624
  24581827.749     -723332.35817   -549339.02255  24581830.241    24581840.2354
  22426891.526   -11905125.044 8  -9065068.97146  22426892.393    22426900.5354
  20168451.065   -25687522.012 9 -19998857.08948  20168454.740    20168462.6534
  21553642.568   -17468816.254 9 -13595241.91247  21553642.779    21553651.7154
  21554208.465   -14177844.111 8 -11005299.34647  21554211.051    21554221.1374
  20610565.969   -22201582.627 9 -17286199.51648  20610568.459    20610575.9114
  22833697.551    -8600605.249 8  -6686076.37146  22833701.515    22833710.7794
  23206248.474   -11389879.110 8  -8853880.81746  23206253.499    23206263.2294
 00  5 15  2 46  0.0000000  0  9 09 11 05 21 23 15 29 30 25
  23640518.313    -4170532.065 8  -3234921.70645  23640530.203    23640539.5774
  24569968.879     -785655.557 8   -597902.67145  24569971.034    24569979.8584
  22423139.638   -11924815.752 8  -9080412.35046  22423145.014    22423153.7564
  20165124.513   -25705003.495 9 -20012479.02248  20165128.070    20165136.2124
  21565335.482   -17407352.108 8 -13547347.80447  21565338.768    21565348.0434
  21557273.830   -14161718.179 8 -10992733.70247  21557278.701    21557289.4174
  20607894.607   -22215621.400 9 -17297138.78748  20607897.284    20607904.5584
  22818238.886    -8681858.281 8  -6749390.33746  22818240.101    22818248.8974
  23189000.026   -11480539.586 8  -8924525.28646  23189001.669    23189011.0614
 00  5 15  2 46 30.0000000  0  9 09 11 05 21 23 15 29 30 25
  23660496.593    -4065585.782 7  -3153145.45545  23660500.526    23660510.3664
  24558185.452     -847550.118 7   -646132.34145  24558191.991    24558201.6514
  22419495.099   -11943966.311 8  -9095334.81946  22419500.558    22419510.1454
  20161891.604   -25721993.784 9 -20025718.19948  20161894.998    20161903.1044
  21577105.919   -17345499.722 8 -13499151.15547  21577109.053    21577118.0494
  21560462.319   -14144969.697 8 -10979682.95547  21560467.248    21560476.9504
  20605261.660   -22229455.148 9 -17307918.30848  20605264.393    20605271.8484
  22802828.426    -8762822.349 8  -6812479.13946  22802832.489    22802842.1224
  23171789.345   -11570971.899 8  -8994991.96246  23171793.359    23171801.6154
 00  5 15  2 47  0.0000000  0  9 09 11 05 21 23 15 29 30 25
  23680490.181    -3960506.649 7  -3071265.72945  23680497.246    23680505.7554
  24546500.985     -909014.105 7   -694026.42545  24546496.814    24546505.7494
  22415962.390   -11962575.307 8  -9109835.28546  22415960.013    22415968.8114
  20158751.698   -25738490.953 9 -20038573.13448  20158755.669    20158763.8594
  21588950.781   -17283259.771 8 -13450652.54947  21588953.339    21588962.2114
  21563770.280   -14127599.857 8 -10966148.01047  21563772.529    21563781.6194
  20602668.236   -22243083.732 9 -17318537.95948  20602671.104    20602678.6644
  22787474.423    -8843494.296 8  -6875340.29446  22787481.043    22787490.0984
  23154623.435   -11661174.882 8  -9065279.96446  23154627.646    23154636.4264
 00  5 15  2 47 30.0000000  0  9 09 11 05 21 23 15 29 30 25
  23700520.418    -3855297.092 8  -2989284.33245  23700517.495    23700527.2634
  24534877.028     -970045.424 7   -741583.22545  24534880.179    24534892.3744
  22412517.651   -11980641.439 8  -9123912.75346  22412521.743    22412530.8104
  20155708.496   -25754493.253 9 -20051042.45648  20155710.818    20155718.6104
  21600869.288   -17220632.738 9 -13401852.37347  21600870.854    21600880.1054
  21567192.369   -14109609.600 8 -10952129.63647  21567195.701    21567204.6244
  20600113.237   -22256506.973 9 -17328997.59748  20600116.818    20600124.2174
  22772180.859    -8923871.263 8  -6937971.63046  22772186.098    22772195.5884
  23137510.075   -11751147.186 8  -9135388.20646  23137506.028    23137515.7004
 00  5 15  2 48  0.0000000  0  9 09 11 05 21 23 15 29 30 25
  23720565.163    -3749959.589 8  -2907203.21745  23720562.813    23720572.4874
  24523350.771    -1030642.725 7   -788802.05445  24523351.173    24523360.1394
  22409184.931   -11998163.686 8  -9137566.43046  22409187.867    22409196.0044
  20152757.314   -25769999.812 9 -20063125.48748  20152760.146    20152767.5924
  21612858.027   -17157619.198 8 -13352751.00347  21612861.867    21612871.8114
  21570733.009   -14091000.073 8 -10937628.70147  21570736.884    21570745.5054
  20597598.002   -22269724.899 9 -17339297.26748  20597601.663    20597608.7964
  22756941.274    -9003949.785 8  -7000370.37146  22756946.740    22756956.3574
  23120426.566   -11840886.945 8  -9205315.24646  23120429.496    23120438.5444
 00  5 15  2 48 30.0000000  0  9 09 11 05 21 23 15 29 30 25
  23740623.186    -3644496.520 8  -2825024.28045  23740630.973    23740640.7864
  24511900.388    -1090804.039 7   -835681.12545  24511903.106    24511911.4534
  22405954.907   -12015140.671 8  -9150795.24246  22405957.308    22405965.0414
  20149900.956   -25785008.790 9 -20074820.79948  20149903.878    20149911.8174
  21624922.305   -17094219.677 8 -13303348.84147  21624926.304    21624935.9674
  21574394.259   -14071772.447 8 -10922646.12347  21574395.961    21574405.3104
  20595122.330   -22282737.677 9 -17349437.06748  20595125.269    20595132.5954
  22741760.336    -9083727.188 8  -7062534.49846  22741765.705    22741775.2734
  23103390.163   -11930393.034 8  -9275060.18946  23103397.061    23103407.1834
 00  5 15  2 49  0.0000000  0  9 09 11 05 21 23 15 29 30 25
  23760722.350    -3538910.345 8  -2742749.42545  23760724.199    23760733.6704
  24500532.834    -1150527.462 7   -882218.96145  24500538.235    24500547.3604
  22402826.328   -12031571.317 8  -9163598.32646  22402830.595    22402838.6624
  20147140.243   -25799518.040 9 -20086126.71448  20147142.823    20147150.6734
  21637062.028   -17030434.817 8 -13253646.41947  21637064.318    21637073.7484
  21578171.525   -14051927.873 8 -10907182.83047  21578172.322    21578181.8354
  20592683.980   -22295545.097 9 -17359416.85948  20592687.962    20592695.2104
  22726642.470    -9163200.163 8  -7124461.38346  22726642.960    22726651.7924
  23086406.878   -12019664.261 8  -9344622.12046  23086409.277    23086418.7994
 00  5 15  2 49 30.0000000  0  9 09 11 05 21 23 15 29 30 25
  23780836.263    -3433203.422 8  -2660380.44345  23780839.649    23780849.1774
  24489253.783    -1209811.282 7   -928414.15445  24489256.244    24489265.0554
  22399806.905   -12047454.546 8  -9175974.82046  22399807.395    22399816.5194
  20144474.279   -25813525.971 9 -20097041.99048  20144477.235    20144485.1024
  21649273.398   -16966265.203 8 -13203644.17447  21649275.265    21649285.0034
  21582062.455   -14031467.501 8 -10891239.69247  21582065.869    21582074.9784
  20590285.858   -22308147.111 9 -17369236.59048  20590289.809    20590297.1274
  22711575.085    -9242365.563 8  -7186148.59646  22711578.283    22711586.9514
  23069460.403   -12108699.017 8  -9413999.79346  23069467.164    23069475.7334
 00  5 15  2 50  0.0000000  0  9 09 11 05 21 23 15 29 30 25
  23800965.279    -3327378.208 8  -2577919.28445  23800977.994    23800988.0644
  24478054.084    -1268653.945 7   -974265.61645  24478059.234    24478067.2694
  22396889.050   -12062789.156 8  -9187923.83946  22396889.522    22396898.9134
  20141903.796   -25827031.556 9 -20107565.83448  20141907.202    20141915.1334
  21661559.360   -16901711.539 9 -13153342.66247  21661560.308    21661568.9334
  21586072.151   -14010392.418 8 -10874817.54447  21586075.626    21586084.8654
  20587927.827   -22320543.646 9 -17378896.20748  20587930.810    20587937.9284
  22696572.590    -9321220.462 8  -7247593.87846  22696572.463    22696581.3684
  23052566.384   -12197496.326 8  -9483192.45146  23052569.259    23052578.5714
 00  5 15  2 50 30.0000000  0  9 09 11 05 21 23 15 29 30 25
  23821138.638    -3221437.121 8  -2495367.85145  23821137.323    23821147.3004
  24466945.572    -1327053.833 7  -1019772.09845  24466945.345    24466953.7544
  22394072.500   -12077574.114 8  -9199444.55246  22394075.030    22394084.4084
  20139430.190   -25840033.045 9 -20117696.87248  20139432.968    20139441.1394
  21673915.341   -16836774.537 8 -13102742.45547  21673917.488    21673926.0394
  21590200.718   -13988703.947 8 -10857917.45447  21590202.952    21590212.8454
  20585607.354   -22332734.862 9 -17388395.82648  20585610.614    20585617.8714
  22681619.019    -9399761.875 8  -7308794.89546  22681626.130    22681636.6364
  23035713.158   -12286054.769 8  -9552198.96146  23035716.217    23035726.5944
 00  5 15  2 51  0.0000000  0  9 09 11 05 21 23 15 29 30 25
  23841309.350    -3115382.189 7  -2412727.70945  23841319.032    23841328.7874
  24455913.157    -1385008.880 7  -1064931.84845  24455916.693    24455926.7784
  22391364.782   -12091808.418 8  -9210536.17446  22391367.393    22391376.4004
  20137052.118   -25852528.994 9 -20127433.99048  20137055.022    20137063.2674
  21686344.210   -16771454.998 8 -13051844.16447  21686346.827    21686355.5904
  21594445.240   -13966403.474 8 -10840540.47547  21594447.390    21594456.4864
  20583327.873   -22344720.473 9 -17397735.24748  20583330.149    20583336.7934
  22666738.144    -9477986.692 8  -7369749.20746  22666741.060    22666750.8784
  23018898.891   -12374373.034 8  -9621018.32246  23018909.846    23018919.4654
 00  5 15  2 51 30.0000000  0  9 09 11 05 21 23 15 29 30 25
  23861527.406    -3009216.179 8  -2330001.07945  23861522.024    23861531.6724
  24444969.524    -1442517.665 7  -1109743.97045  24444973.353    24444984.6924
  22388760.751   -12105491.037 8  -9221197.93946  22388764.001    22388772.0094
  20134770.860   -25864518.011 9 -20136776.09748  20134773.755    20134781.8294
  21698846.078   -16705753.468 8 -13000648.25647  21698849.502    21698858.0004
  21598803.772   -13943492.291 8 -10822687.59347  21598806.720    21598816.9124
  20581086.082   -22356500.350 9 -17406914.35448  20581088.898    20581095.5764
  22651912.253    -9555891.826 8  -7430454.42946  22651916.715    22651924.7964
  23002146.335   -12462449.908 8  -9689649.57346  23002149.439    23002159.7134
 00  5 15  2 52  0.0000000  0  9 09 11 05 21 23 15 29 30 25
  23881747.583    -2902941.229 8  -2247189.51845  23881746.301    23881755.2244
  24434113.137    -1499578.424 7  -1154206.89245  24434115.411    24434124.7324
  22386260.029   -12118620.788 8  -9231428.87746  22386264.746    22386273.5234
  20132585.191   -25875998.655 9 -20145722.07548  20132589.037    20132597.1274
  21711427.948   -16639670.544 8 -12949155.15047  21711424.764    21711433.8124
  21603280.143   -13919971.527 8 -10804359.74547  21603282.894    21603292.1594
  20578883.331   -22368074.553 9 -17415933.19048  20578886.177    20578893.1324
  22637150.166    -9633474.159 8  -7490908.12246  22637152.440    22637161.2024
  22985431.240   -12550283.922 8  -9758091.62046  22985434.902    22985444.0854
 00  5 15  2 52 30.0000000  0  9 09 11 05 21 23 15 29 30 25
  23901987.639    -2796559.723 8  -2164294.94145  23901989.401    23901999.6854
  24423336.247    -1556189.509 7  -1198319.45145  24423342.055    24423351.4044
  22383871.529   -12131196.764 8  -9241228.32346  22383872.009    22383880.7034
  20130498.736   -25886969.313 9 -20154270.65948  20130501.312    20130509.4544
  21724069.680   -16573206.977 8 -12897365.42947  21724071.973    21724081.4444
  21607873.111   -13895842.398 8 -10785557.83347  21607874.485    21607883.6244
  20576719.887   -22379443.003 9 -17424791.70348  20576722.776    20576729.5644
  22622443.899    -9710730.643 8  -7551107.86046  22622450.582    22622459.9614
  22968762.558   -12637873.806 8  -9826343.39946  22968766.791    22968777.3304
 00  5 15  2 53  0.0000000  0  9 09 11 05 21 23 15 29 30 25
  23922252.213    -2690073.755 8  -2081318.89845  23922254.384    23922262.9234
  24412657.277    -1612349.242 7  -1242080.25645  24412655.710    24412666.6584
  22381583.348   -12143217.888 8  -9250595.41646  22381584.169    22381593.4494
  20128506.748   -25897428.525 9 -20162420.72348  20128511.137    20128519.2374
  21736789.774   -16506363.636 8 -12845279.77447  21736792.273    21736801.2234
  21612577.864   -13871106.088 8 -10766282.78347  21612581.466    21612591.4914
  20574595.234   -22390605.527 9 -17433489.76048  20574598.364    20574605.3814
  22607811.931    -9787658.160 8  -7611051.28746  22607811.860    22607821.4944
  22952147.816   -12725218.565 8  -9894404.19146  22952145.885    22952154.8894
 00  5 15  2 53 30.0000000  0  9 09 11 05 21 23 15 29 30 25
  23942531.777    -2583485.833 8  -1998263.42645  23942537.261    23942544.5314
  24402049.900    -1668056.210 7  -1285488.26245  24402056.370    24402063.7524
  22379400.444   -12154682.977 8  -9259529.21046  22379402.064    22379411.5054
  20126616.175   -25907374.633 9 -20170170.96448  20126618.466    20126626.6614
  21749581.755   -16439141.231 8 -12792898.72347  21749584.492    21749593.6404
  21617401.896   -13845764.229 8 -10746535.89647  21617404.279    21617413.7534
  20572509.419   -22401562.286 9 -17442027.46848  20572513.458    20572520.2344
  22593235.738    -9864253.992 8  -7670736.26246  22593236.789    22593245.5104
  22935566.159   -12812316.703 8  -9962272.80746  22935571.527    22935581.4544
 00  5 15  2 54  0.0000000  0  9 09 11 05 21 23 15 29 30 25
  23962832.927    -2476798.200 8  -1915130.26545  23962838.964    23962847.6194
  24391534.722    -1723308.457 7  -1328541.94745  24391540.043    24391549.0924
  22377323.779   -12165591.336 8  -9268029.19946  22377326.896    22377335.2374
  20124819.363   -25916806.516 9 -20177520.51748  20124823.429    20124831.5364
  21762445.690   -16371540.521 8 -12740222.89047  21762448.415    21762457.6544
  21622340.769   -13819818.278 8 -10726318.26847  21622342.274    21622350.7564
  20570465.057   -22412312.965 9 -17450404.60248  20570467.776    20570474.3834
  22578724.494    -9940514.815 8  -7730160.20146  22578724.386    22578733.1234
  22919038.688   -12899166.839 8 -10029948.16046  22919045.157    22919054.0584
 00  5 15  2 54 30.0000000  0  9 09 11 05 21 23 15 29 30 25
  23983154.048    -2370013.183 8  -1831921.19545  23983158.934    23983168.3544
  24381111.525    -1778104.695 7  -1371240.38145  24381112.534    24381123.0574
  22375352.356   -12175941.822 8  -9276094.49246  22375357.184    22375365.0204
  20123125.046   -25925722.740 9 -20184468.25648  20123126.960    20123134.9024
  21775381.618   -16303562.437 8 -12687252.99247  21775384.197    21775393.4824
  21627391.647   -13793269.607 8 -10705630.99547  21627393.942    21627403.0554
  20568457.790   -22422857.706 9 -17458621.27948  20568461.328    20568467.8464
  22564271.085   -10016437.864 8  -7789320.92546  22564276.020    22564285.7224
  22902563.078   -12985767.897 8 -10097429.43146  22902566.133    22902573.8184
 00  5 15  2 55  0.0000000  0  9 09 11 05 21 23 15 29 30 25
  24003494.841    -2263133.027 8  -1748638.00845  24003497.903    24003507.0264
  24370768.425    -1832443.365 7  -1413582.19845  24370774.421    24370783.0574
  22373486.705   -12185733.909 8  -9283724.65046  22373493.768    22373502.8704
  20121525.157   -25934122.083 9 -20191013.22948  20121528.962    20121536.5154
  21788385.594   -16235207.725 8 -12633989.63047  21788391.714    21788400.7844
  21632558.375   -13766119.827 8 -10684475.32347  21632559.964    21632569.1554
  20566490.166   -22433196.089 9 -17466677.13948  20566493.537    20566500.2744
  22549887.308   -10092019.612 8  -7848215.69046  22549893.327    22549902.0204
  22886131.578   -13072118.539 8 -10164715.57146  22886133.583    22886141.8164
 00  5 15  2 55 30.0000000  0  9 09 11 05 21 23 15 29 30 25
  24023851.114    -2156160.210 8  -1665282.61045  24023854.581    24023863.1664
  24360512.358    -1886322.573 7  -1455565.92145  24360518.231    24360529.4974
  22371735.281   -12194966.706 8  -9290919.01046  22371736.788    22371744.8894
  20120027.440   -25942002.956 9 -20197154.20148  20120029.172    20120036.8924
  21801467.510   -16166476.998 8 -12580433.25747  21801470.739    21801480.7074
  21637838.116   -13738370.349 8 -10662852.37147  21637840.632    21637849.7724
  20564561.293   -22443328.500 9 -17474572.51348  20564565.270    20564572.4334
  22535578.684   -10167257.490 8  -7906842.50246  22535576.386    22535585.2884
  22869746.740   -13158217.601 8 -10231805.66946  22869748.975    22869757.1714
 00  5 15  2 56  0.0000000  0  9 09 11 05 21 23 15 29 30 25
  24044231.442    -2049096.874 8  -1581856.67845  24044227.432    24044236.2894
  24350350.110    -1939740.978 7  -1497190.61245  24350355.302    24350364.0294
  22370084.237   -12203639.316 8  -9297676.87546  22370086.329    22370094.1624
  20118624.290   -25949363.944 9 -20202890.06948  20118628.368    20118636.5434
  21814617.811   -16097371.094 8 -12526584.53047  21814621.128    21814630.7044
  21643232.783   -13710022.662 8 -10640763.27047  21643235.286    21643243.9394
  20562672.075   -22453254.448 9 -17482307.00248  20562676.490    20562683.5224
  22521318.208   -10242148.434 8  -7965198.97446  22521324.943    22521333.8504
  22853405.799   -13244063.538 8 -10298698.51246  22853412.832    22853422.1894
 00  5 15  2 56 30.0000000  0  9 09 11 05 21 23 15 29 30 25
  24064613.962    -1941945.184 8  -1498361.92045  24064617.952    24064627.3814
  24340276.295    -1992696.847 7  -1538454.91945  24340277.950    24340287.6334
  22368538.868   -12211750.769 8  -9303997.46446  22368542.576    22368551.3044
  20117324.575   -25956204.078 9 -20208220.08448  20117326.685    20117335.0304
  21827840.538   -16027890.977 8 -12472444.21347  21827842.695    21827851.9094
  21648741.330   -13681078.404 8 -10618209.32147  21648743.037    21648752.0594
  20560825.123   -22462974.038 9 -17489880.69148  20560826.974    20560834.1704
  22507139.397   -10316689.531 8  -8023282.85046  22507139.756    22507149.5224
  22837123.315   -13329655.571 8 -10365393.51846  22837125.221    22837134.2774
 00  5 15  2 57  0.0000000  0  9 09 11 05 21 23 15 29 30 25
  24085016.452    -1834707.346 8  -1414799.99245  24085025.041    24085033.7634
  24330290.081    -2045189.073 7  -1579357.95645  24330289.164    24330298.0484
  22367102.087   -12219300.348 8  -9309880.22146  22367106.206    22367114.3854
  20116120.610   -25962521.534 9 -20213142.81348  20116124.586    20116132.6604
  21841133.817   -15958037.573 8 -12418013.03747  21841135.633    21841144.7634
  21654363.298   -13651538.997 8 -10595191.60747  21654364.714    21654373.1044
  20559013.643   -22472486.921 9 -17497293.31348  20559016.668    20559023.8424
  22493016.139   -10390877.699 8  -8081091.73146  22493023.092    22493031.3984
  22820880.362   -13414992.301 8 -10431889.56546  22820885.697    22820895.2104
 00  5 15  2 57 30.0000000  0  9 09 11 05 21 23 15 29 30 25
  24105445.651    -1727385.891 8  -1331172.91145  24105446.707    24105456.6244
  24320385.882    -2097215.968 7  -1619898.33245  24320389.137    24320396.6704
  22365774.753   -12226287.250 8  -9315324.52346  22365777.021    22365785.5754
  20115018.431   -25968315.236 9 -20217657.42048  20115022.193    20115030.2134
  21854496.695   -15887811.595 8 -12363291.54347  21854499.290    21854508.4644
  21660096.584   -13621405.973 8 -10571711.33147  21660098.211    21660106.5584
  20557241.378   -22481793.194 9 -17504544.94048  20557245.579    20557252.8224
  22478970.771   -10464709.786 8  -8138623.16446  22478973.618    22478981.6564
  22804691.411   -13500072.876 8 -10498186.02846  22804695.547    22804705.3824
 00  5 15  2 58  0.0000000  0  9 09 11 05 21 23 15 29 30 25
  24125886.611    -1619982.920 8  -1247482.35445  24125885.735    24125894.4684
  24310574.669    -2148776.056 7  -1660074.99645  24310578.660    24310586.3294
  22364557.316   -12232710.616 8  -9320329.70346  22364554.522    22364562.5254
  20114017.423   -25973583.565 9 -20221762.64148  20114019.644    20114027.8704
  21867928.808   -15817213.734 8 -12308280.28947  21867933.194    21867942.7064
  21665941.898   -13590681.081 8 -10547769.87847  21665944.996    21665953.6484
  20555512.174   -22490892.656 9 -17511635.43348  20555513.909    20555521.5234
  22464984.172   -10538182.972 8  -8195874.95046  22464991.196    22465000.1344
  22788551.850   -13584895.753 8 -10564281.67546  22788554.219    22788564.2814
 00  5 15  2 58 30.0000000  0  9 09 11 05 21 23 15 29 30 25
  24146330.434    -1512500.708 7  -1163730.03945  24146338.896    24146348.3304
  24300852.253    -2199867.883 7  -1699886.80345  24300855.335    24300863.0804
  22363438.426   -12238569.982 8  -9324895.42146  22363439.172    22363447.7354
  20113114.962   -25978325.853 9 -20225457.96248  20113117.307    20113125.4654
  21881436.087   -15746245.020 8 -12252980.04347  21881438.218    21881448.1614
  21671901.361   -13559365.929 8 -10523368.46947  21671903.474    21671913.0304
  20553818.704   -22499785.184 9 -17518564.69048  20553822.049    20553829.0764
  22451079.119   -10611294.534 8  -8252844.91746  22451079.461    22451088.1364
  22772460.289   -13669459.515 8 -10630175.42846  22772462.828    22772471.4824
 00  5 15  2 59  0.0000000  0  9 09 11 05 21 23 15 29 30 25
  24166800.947    -1404941.395 7  -1079917.68445  24166805.871    24166815.9324
  24291221.693    -2250490.075 7  -1739332.63645  24291220.278    24291229.5144
  22362425.086   -12243864.685 8  -9329021.12546  22362430.921    22362440.6544
  20112311.488   -25982540.415 9 -20228742.06748  20112315.208    20112323.4004
  21895009.827   -15674906.398 8 -12197391.54847  21895013.794    21895023.2854
  21677971.832   -13527462.351 8 -10498508.56447  21677974.562    21677984.0044
  20552165.901   -22508470.714 9 -17525332.63548  20552169.056    20552176.3784
  22437231.609   -10684041.127 8  -8309530.49046  22437235.652    22437244.0284
  22756418.947   -13753763.305 8 -10695866.61546  22756419.499    22756428.7674
 00  5 15  2 59 30.0000000  0  9 09 11 05 21 23 15 29 30 25
  24187284.497    -1297307.008 7   -996046.79445  24187288.430    24187297.3044
  24281673.216    -2300641.016 7  -1778411.32345  24281678.463    24281686.9094
  22361530.515   -12248594.162 8  -9332706.40746  22361531.208    22361540.0344
  20111611.797   -25986226.141 9 -20231614.09148  20111613.839    20111622.1574
  21908656.130   -15603198.625 8 -12141515.45547  21908659.154    21908668.8774
  21684156.248   -13494971.907 9 -10473191.35547  21684158.614    21684165.8974
  20550551.830   -22516949.168 9 -17531939.21848  20550555.812    20550563.2194
  22423458.701   -10756420.032 8  -8365929.57246  22423462.098    22423470.5264
  22740420.677   -13837805.959 8 -10761354.30946  22740426.931    22740435.7754
 00  5 15  3  0  0.0000000  0  9 09 11 05 21 23 15 29 30 25
  24207783.917    -1189599.980 7   -912119.29845  24207783.928    24207794.3864
  24272223.959    -2350319.400 8  -1817121.75245  24272224.020    24272234.0164
  22360737.121   -12252757.453 8  -9335950.50746  22360739.585    22360747.9444
  20111011.064   -25989381.541 9 -20234072.86848  20111013.391    20111021.7014
  21922374.918   -15531122.975 8 -12085352.70647  21922375.109    21922384.4394
  21690449.375   -13461896.034 8 -10447417.94647  21690452.517    21690461.0094
  20548980.187   -22525220.199 9 -17538384.18348  20548981.968    20548989.4824
  22409758.156   -10828428.487 8  -8422040.01646  22409759.507    22409767.5764
  22724479.998   -13921586.219 8 -10826637.53646  22724484.068    22724493.9774
 00  5 15  3  0 30.0000000  0  9 09 11 05 21 23 15 29 30 25
  24228280.308    -1081822.528 7   -828136.91745  24228294.211    24228302.9014
  24262861.133    -2399523.894 7  -1855462.91145  24262861.565    24262870.5404
  22360046.507   -12256354.166 8  -9338753.10846  22360054.530    22360063.1334
  20110510.615   -25992005.739 9 -20236117.72148  20110513.965    20110522.2774
  21936158.720   -15458680.216 8 -12028903.90947  21936160.575    21936169.7474
  21696851.894   -13428236.893 8 -10421190.06747  21696856.986    21696866.2274
  20547442.514   -22533283.725 9 -17544667.44848  20547447.703    20547454.6664
  22396125.802   -10900063.138 8  -8477859.16146  22396127.634    22396136.4654
  22708586.524   -14005103.145 8 -10891715.55946  22708591.005    22708599.4674
 00  5 15  3  1  0.0000000  0  9 09 11 05 21 23 15 29 30 25
  24248810.565     -973976.704 8   -744101.23145  24248816.952    24248825.3194
  24253584.586    -2448252.947 7  -1893433.57345  24253587.245    24253597.0834
  22359477.655   -12259383.752 8  -9341113.79546  22359478.053    22359487.0164
  20110111.463   -25994097.993 9 -20237748.06748  20110115.904    20110124.0424
  21950011.326   -15385871.196 8 -11972169.67247  21950015.441    21950024.6824
  21703371.901   -13393996.350 8 -10394509.15747  21703373.776    21703381.6914
  20545950.548   -22541139.861 9 -17550789.12348  20545952.860    20545959.9134
  22382567.653   -10971321.179 8  -8533384.85146  22382568.075    22382576.4864
  22692748.467   -14088355.458 8 -10956587.40446  22692748.842    22692756.7924
 00  5 15  3  1 30.0000000  0  9 09 11 05 21 23 15 29 30 25
  24269354.811     -866064.723 8   -660014.02545  24269351.705    24269359.6224
  24244402.613    -2496505.404 7  -1931032.84145  24244405.769    24244413.4694
  22359005.116   -12261845.493 8  -9343032.00746  22359009.738    22359018.1964
  20109816.085   -25995656.755 9 -20238962.70548  20109819.072    20109827.4984
  21963935.934   -15312696.983 8 -11915150.87747  21963940.574    21963949.7974
  21709995.598   -13359176.071 8 -10367376.47847  21709999.392    21710007.5904
  20544494.107   -22548788.104 9 -17556748.79948  20544497.287    20544504.3954
  22369073.830   -11042199.715 8  -8588614.84146  22369079.666    22369088.6074
  22676952.102   -14171341.912 8 -11021252.09646  22676957.486    22676964.6514
 00  5 15  3  2  0.0000000  0  9 09 11 05 21 23 15 29 30 25
  24289898.050     -758088.814 8   -575876.97545  24289899.250    24289907.2294
  24235310.323    -2544279.843 7  -1968259.70945  24235314.398    24235325.1604
  22358647.770   -12263738.776 8  -9344507.25146  22358649.666    22358657.5794
  20109621.018   -25996680.944 9 -20239760.78648  20109624.325    20109632.5444
  21977931.684   -15239158.494 8 -11857848.26247  21977934.197    21977943.6014
  21716732.194   -13323777.877 8 -10339793.49747  21716735.605    21716743.6004
  20543078.055   -22556228.628 9 -17562546.61548  20543081.397    20543088.4384
  22355663.848   -11112696.048 8  -8643546.98546  22355665.292    22355673.7694
  22661211.576   -14254061.298 8 -11085708.68546  22661215.797    22661224.4274
 00  5 15  3  2 30.0000000  0  9 09 11 05 21 23 15 29 30 25
  24310446.689     -650051.066 7   -491691.73745  24310457.288    24310465.5214
  24226316.978    -2591574.634 8  -2005112.77645  24226316.051    24226325.7864
  22358400.488   -12265063.205 8  -9345539.24446  22358398.231    22358405.8324
  20109528.896   -25997169.119 9 -20240141.19348  20109531.839    20109539.4984
  21991993.098   -15165256.765 8 -11800262.56747  21991997.173    21992007.1924
  21723579.469   -13287803.455 8 -10311761.49847  21723580.842    21723589.7434
  20541702.620   -22563461.022 9 -17568182.23848  20541705.210    20541712.0734
  22342312.705   -11182807.158 8  -8698178.95846  22342322.438    22342331.3674
  22645520.721   -14336512.829 8 -11149956.53546  22645525.800    22645534.1574
 00  5 15  3  3  0.0000000  0  9 09 11 05 21 23 15 29 30 25
  24331019.970     -541953.341 7   -407459.75145  24331027.588    24331037.1284
  24217400.774    -2638388.941 7  -2041591.46845  24217406.158    24217416.9384
  22358252.748   -12265818.181 8  -9346127.50446  22358253.576    22358261.9674
  20109537.965   -25997120.471 9 -20240103.29248  20109541.206    20109548.9474
  22006127.625   -15090992.816 8 -11742394.62747  22006129.325    22006139.0114
  21730532.107   -13251254.595 8 -10283281.89447  21730535.605    21730544.7934
  20540366.640   -22570484.949 9 -17573655.42748  20540368.851    20540375.3434
  22329051.325   -11252530.246 8  -8752508.59846  22329054.861    22329063.0854
  22629886.357   -14418695.296 8 -11213994.76147  22629888.015    22629896.2334
 00  5 15  3  3 30.0000000  0  9 09 11 05 21 23 15 29 30 25
  24351601.102     -433798.134 7   -323183.04045  24351610.202    24351618.5024
  24208587.900    -2684721.279 7  -2077694.62345  24208590.633    24208599.2504
  22358214.102   -12266003.247 8  -9346271.68746  22358217.962    22358226.5174
  20109649.133   -25996534.065 9 -20239646.36148  20109652.422    20109660.4334
  22020328.092   -15016367.532 8 -11684245.09947  22020329.934    22020339.8924
  21737597.270   -13214133.143 8 -10254356.11847  21737600.258    21737609.3304
  20539068.926   -22577300.877 9 -17578966.54348  20539071.622    20539078.4114
  22315855.934   -11321862.299 8  -8806533.54446  22315861.476    22315870.5994
  22614294.639   -14500607.574 8 -11277822.43447  22614300.162    22614309.0564
 00  5 15  3  4  0.0000000  0  9 09 11 05 21 23 15 29 30 25
  24372200.578     -325587.345 7   -238862.96645  24372200.823    24372210.7724
  24199868.219    -2730570.232 7  -2113421.09645  24199866.210    24199875.5224
  22358286.662   -12265618.065 8  -9345971.50846  22358291.041    22358300.3794
  20109862.934   -25995408.449 9 -20238769.25548  20109866.192    20109874.5834
  22034596.497   -14941382.049 8 -11625814.88847  22034599.275    22034609.1514
  21744769.799   -13176441.189 8 -10224985.78947  21744772.932    21744781.8444
  20537810.493   -22583908.324 9 -17584115.20748  20537813.807    20537820.9504
  22302744.484   -11390800.455 8  -8860251.55646  22302743.436    22302751.9604
  22598762.812   -14582248.319 8 -11341438.51547  22598764.553    22598773.1344
 00  5 15  3  4 30.0000000  0  9 09 11 05 21 23 15 29 30 25
  24392805.424     -217323.082 7   -154501.22845  24392802.741    24392812.4384
  24191224.335    -2775934.729 7  -2148770.10845  24191233.075    24191241.2334
  22358471.999   -12264662.005 8  -9345226.50746  22358473.675    22358482.3504
  20110181.506   -25993742.584 9 -20237471.17348  20110183.796    20110191.5274
  22048934.847   -14866037.357 8 -11567104.73247  22048936.674    22048946.4584
  21752051.354   -13138180.709 8 -10195172.45947  21752053.525    21752062.4864
  20536593.595   -22590306.966 9 -17589101.15348  20536596.391    20536603.3174
  22289693.238   -11459341.957 8  -8913660.48246  22289699.441    22289708.9544
  22583272.806   -14663616.658 8 -11404842.36047  22583280.726    22583288.6494
 00  5 15  3  5  0.0000000  0  9 09 11 05 21 23 15 29 30 25
  24413404.958     -109007.579 7    -70099.55745  24413414.388    24413424.2424
  24182690.369    -2820813.607 7  -2183740.70145  24182692.511    24182703.2274
  22358764.775   -12263135.083 8  -9344036.65446  22358764.659    22358772.0184
  20110600.854   -25991535.705 9 -20235751.52748  20110603.815    20110611.3904
  22063338.564   -14790334.566 8 -11508115.50246  22063341.995    22063352.7924
  21759439.747   -13099353.734 8 -10164917.70147  21759442.296    21759451.0014
  20535415.099   -22596496.942 9 -17593924.52948  20535418.467    20535425.2904
  22276729.961   -11527483.963 8  -8966758.09346  22276732.583    22276741.5014
  22567843.228   -14744711.444 8 -11468033.01547  22567847.915    22567857.0964
 00  5 15  3  5 30.0000000  0  9 09 11 05 21 23 15 29 30 25
  24434042.025        -642.897 7     14340.44945  24434034.939    24434045.3454
  24174243.450    -2865205.489 7  -2218331.77545  24174245.281    24174255.2804
  22359160.039   -12261036.784 8  -9342401.59846  22359163.512    22359171.6184
  20111123.323   -25988786.883 9 -20233609.58248  20111126.661    20111134.5134
  22077810.136   -14714274.886 8 -11448848.22646  22077816.056    22077825.7344
  21766934.944   -13059962.141 8 -10134222.98847  21766937.938    21766946.3094
  20534276.596   -22602477.692 9 -17598584.85448  20534280.225    20534287.1564
  22263841.996   -11595223.739 8  -9019542.29847  22263842.627    22263851.1684
  22552463.106   -14825531.614 8 -11531009.69547  22552468.894    22552477.5914
 00  5 15  3  6  0.0000000  0  9 09 11 05 21 23 15 29 30 25
  24454671.516      107768.917 7     98817.13445  24454665.169    24454675.1604
  24165876.500    -2909109.318 7  -2252542.61845  24165888.599    24165900.5634
  22359667.494   -12258366.737 8  -9340321.01546  22359671.933    22359679.1934
  20111750.458   -25985495.060 9 -20231044.52548  20111752.894    20111760.9054
  22092353.817   -14637859.375 8 -11389303.69146  22092357.288    22092367.8474
  21774538.415   -13020007.886 8 -10103089.84247  21774540.875    21774549.3834
  20533179.942   -22608249.250 9 -17603082.17248  20533182.021    20533189.1184
  22251028.169   -11662558.223 8  -9072010.69147  22251029.582    22251037.5564
  22537141.224   -14906076.255 8 -11593771.68547  22537141.168    22537150.0924
 00  5 15  3  6 30.0000000  0  9 09 11 05 21 23 15 29 30 25
  24475295.882      216225.834 7    183328.99745  24475303.352    24475314.2964
  24157633.210    -2952523.806 7  -2286372.10545  24157628.181    24157638.8804
  22360284.735   -12255124.560 8  -9337794.61846  22360288.324    22360296.8564
  20112478.072   -25981658.615 9 -20228055.09848  20112483.068    20112491.2564
  22106965.721   -14561089.049 8 -11329482.68346  22106966.532    22106976.1004
  21782246.988   -12979492.934 8 -10071519.78247  21782251.154    21782259.5804
  20532120.159   -22613811.359 9 -17607416.29148  20532123.607    20532130.8334
  22238289.452   -11729484.748 8  -9124161.18047  22238293.793    22238302.5484
  22521861.789   -14986344.447 8 -11656318.25547  22521866.304    22521875.8524
 00  5 15  3  7  0.0000000  0  9 09 11 05 21 23 15 29 30 25
  24495948.890      324725.697 7    267874.30445  24495949.248    24495960.3144
  24149459.587    -2995447.771 7  -2319819.30245  24149462.244    24149470.2974
  22361013.392   -12251309.996 8  -9334822.21146  22361015.223    22361021.7394
  20113314.689   -25977277.619 9 -20224641.34148  20113316.921    20113324.9464
  22121638.387   -14483965.013 8 -11269386.06146  22121642.725    22121652.2664
  21790064.839   -12938419.537 8 -10039514.54747  21790066.745    21790075.9794
  20531102.620   -22619163.924 9 -17611587.12848  20531105.100    20531112.4914
  22225637.070   -11796000.429 9  -9175991.54547  22225636.070    22225644.2084
  22506642.173   -15066335.034 8 -11718648.50247  22506645.330    22506653.5724
 00  5 15  3  7 30.0000000  0  9 09 11 05 21 23 15 29 30 25
  24516602.312      433266.271 7    352451.32745  24516605.629    24516615.5664
  24141380.681    -3037880.276 7  -2352883.60545  24141385.979    24141395.8614
  22361844.436   -12246922.691 8  -9331403.52146  22361848.933    22361857.6374
  20114251.169   -25972350.376 9 -20220801.94048  20114254.722    20114262.7024
  22136382.643   -14406488.413 8 -11209014.74146  22136386.399    22136396.0574
  21797987.840   -12896789.566 8 -10007075.65247  21797989.252    21797998.6584
  20530123.305   -22624306.639 9 -17615594.44348  20530126.743    20530133.8384
  22213052.087   -11862102.593 8  -9227499.65247  22213057.108    22213065.6774
  22491471.536   -15146046.696 8 -11780761.45147  22491476.084    22491485.1444
 00  5 15  3  8  0.0000000  0  9 09 11 05 21 23 15 29 30 25
  24537268.201      541845.945 7    437058.83445  24537268.314    24537277.8814
  24133401.271    -3079819.967 7  -2385563.94245  24133404.735    24133413.7394
  22362790.931   -12241962.587 8  -9327538.48346  22362792.764    22362801.7724
  20115292.680   -25966877.036 9 -20216537.02148  20115295.927    20115304.3994
  22151196.003   -14328660.336 8 -11148369.56046  22151197.018    22151205.8664
  21806015.764   -12854605.205 8  -9974204.72347  21806016.503    21806024.8674
  20529184.669   -22629239.508 9 -17619438.24648  20529188.371    20529195.0444
  22200556.582   -11927788.420 9  -9278683.34947  22200558.272    22200565.8384
  22476354.271   -15225478.520 8 -11842656.32547  22476360.705    22476369.7404
 00  5 15  3  8 30.0000000  0  9 09 11 05 21 23 15 29 30 25
  24557935.869      650462.566 7    521695.21445  24557938.725    24557946.6294
  24125510.712    -3121265.897 7  -2417859.49645  24125518.072    24125528.9684
  22363839.728   -12236429.525 8  -9323226.99146  22363845.440    22363854.8694
  20116438.842   -25960855.819 9 -20211845.18948  20116441.808    20116449.9944
  22166070.153   -14250481.887 8 -11087451.37046  22166073.680    22166083.2044
  21814144.496   -12811868.539 8  -9940903.43147  21814147.970    21814157.5804
  20528287.498   -22633962.174 9 -17623118.24948  20528289.231    20528296.7214
  22188132.227   -11993055.331 8  -9329540.59847  22188137.645    22188146.2824
  22461297.006   -15304629.455 8 -11904332.33047  22461299.165    22461308.5484
 00  5 15  3  9  0.0000000  0  9 09 11 05 21 23 15 29 30 25
  24578616.515      759114.047 7    606358.66445  24578613.111    24578622.5784
  24117732.152    -3162216.631 7  -2449769.12145  24117725.800    24117735.6914
  22365006.265   -12230323.239 8  -9318468.84346  22365007.929    22365016.0464
  20117689.555   -25954285.781 9 -20206725.69948  20117691.984    20117700.1624
  22181012.625   -14171954.297 8 -11026261.11846  22181016.087    22181026.6044
  21822381.839   -12768581.721 8  -9907173.47947  21822385.531    21822395.2704
  20527426.266   -22638474.350 9 -17626634.22348  20527430.550    20527437.8204
  22175793.354   -12057900.330 8  -9380069.09847  22175798.355    22175806.5304
  22446283.243   -15383498.539 8 -11965788.69547  22446290.622    22446299.5404
 00  5 15  3  9 30.0000000  0  9 09 11 05 21 23 15 29 30 25
  24599280.497      867798.359 7    691047.76945  24599295.637    24599304.7064
  24110017.366    -3202671.291 7  -2481292.25845  24110026.359    24110037.6564
  22366271.644   -12223643.652 8  -9313263.95446  22366278.468    22366287.3614
  20119043.809   -25947166.630 9 -20201178.34448  20119046.931    20119054.9304
  22196023.301   -14093078.737 8 -10964799.70546  22196026.406    22196035.9034
  21830727.064   -12724746.941 9  -9873016.52347  21830728.348    21830736.8284
  20526608.929   -22642776.021 9 -17629986.17748  20526611.827    20526619.1694
  22163537.635   -12122320.839 8  -9430266.84647  22163539.413    22163547.6494
  22431333.557   -15462085.082 8 -12027024.92047  22431336.109    22431344.7714
 00  5 15  3 10  0.0000000  0  9 09 11 05 21 23 15 29 30 25
  24619983.431      976513.711 7    775761.05945  24619982.357    24619992.6314
  24102420.666    -3242629.071 7  -2512428.20345  24102424.912    24102433.4764
  22367657.007   -12216390.481 8  -9307612.12746  22367659.580    22367667.8604
  20120503.084   -25939497.164 9 -20195202.16448  20120505.962    20120514.4074
  22211102.104   -14013856.507 8 -10903068.18846  22211102.406    22211112.5304
  21839171.533   -12680366.346 8  -9838434.25947  21839172.616    21839181.6054
  20525828.387   -22646866.848 9 -17633173.83048  20525833.062    20525840.8574
  22151357.109   -12186314.223 8  -9480131.76747  22151361.321    22151370.3764
  22416432.486   -15540388.027 8 -12088040.14347  22416435.376    22416444.4024
 00  5 15  3 10 30.0000000  0  9 09 11 05 21 23 15 29 30 25
  24640673.346     1085257.748 7    860496.63245  24640675.386    24640686.0324
  24094906.290    -3282088.808 7  -2543176.05945  24094914.355    24094925.0634
  22369148.154   -12208563.538 8  -9301513.21546  22369149.056    22369157.4844
  20122067.878   -25931276.672 9 -20188796.61848  20122070.759    20122078.8864
  22226244.830   -13934288.729 8 -10841067.40846  22226243.417    22226253.1644
  21847716.433   -12635442.210 8  -9803428.46647  21847720.445    21847730.7104
  20525090.896   -22650746.543 9 -17636196.97248  20525094.983    20525102.5004
  22139263.262   -12249877.427 8  -9529661.48147  22139265.384    22139274.5664
  22401587.299   -15618405.963 8 -12148833.27047  22401589.369    22401597.4384
 00  5 15  3 11  0.0000000  0  9 09 11 05 21 23 15 29 30 25
  24661382.751     1194028.688 7    945253.25645  24661374.275    24661384.4664
  24087495.107    -3321049.544 7  -2573535.06445  24087501.679    24087511.7094
  22370745.718   -12200162.686 8  -9294967.08046  22370747.511    22370756.0944
  20123738.798   -25922504.146 9 -20181960.89448  20123740.081    20123748.1874
  22241443.776   -13854376.489 8 -10778798.25246  22241450.488    22241460.4894
  21856370.762   -12589976.766 8  -9768000.88647  21856372.824    21856382.7654
  20524394.499   -22654415.032 9 -17639055.53248  20524396.832    20524404.3374
  22127249.325   -12313008.099 8  -9578854.18147  22127252.326    22127260.7714
  22386789.791   -15696138.215 8 -12209403.80447  22386797.176    22386805.7884
 00  5 15  3 11 30.0000000  0  8 11 05 21 23 15 29 30 25
  24080181.797    -3359510.168 7  -2603504.35345  24080182.982    24080191.8854
  22372450.743   -12191187.953 8  -9287973.75746  22372454.970    22372463.6854
  20125511.142   -25913179.096 9 -20174694.64548  20125514.476    20125522.6434
  22256717.370   -13774121.024 8 -10716261.67646  22256722.782    22256732.5534
  21865122.681   -12543972.156 8  -9732153.16447  21865126.848    21865136.9794
  20523735.131   -22657871.905 9 -17641749.20048  20523738.883    20523746.5714
  22115318.716   -12375703.401 8  -9627707.62647  22115321.756    22115330.3464
  22372057.152   -15773583.690 8 -12269750.90647  22372059.801    22372068.3104
 00  5 15  3 12  0.0000000  0  8 11 05 21 23 15 29 30 25
  24072957.801    -3397469.726 7  -2633083.24245  24072959.102    24072969.3344
  22374267.851   -12181639.292 8  -9280533.23446  22374272.418    22374280.0904
  20127391.776   -25903301.238 9 -20166997.63348  20127393.953    20127402.3404
  22272056.965   -13693523.672 8 -10653458.69546  22272059.595    22272069.2394
  21873981.334   -12497430.796 8  -9695887.18247  21873984.825    21873992.8494
  20523117.745   -22661117.209 9 -17644278.00848  20523121.419    20523128.6184
  22103474.287   -12437960.759 8  -9676219.79747  22103474.801    22103483.0974
  22357372.316   -15850741.593 8 -12329873.91847  22357377.142    22357385.7154
 00  5 15  3 12 30.0000000  0  8 11 05 21 23 15 29 30 25
  24065821.382    -3434927.370 7  -2662271.02045  24065830.064    24065841.4034
  22376193.036   -12171516.693 8  -9272645.50346  22376198.238    22376206.5204
  20129377.011   -25892869.084 9 -20158868.70548  20129379.270    20129387.5444
  22287463.286   -13612585.555 8 -10590390.14946  22287461.442    22287471.5304
  21882940.114   -12450354.908 8  -9659204.68247  21882942.424    21882950.8634
  20522541.489   -22664150.499 9 -17646641.60048  20522544.224    20522551.4214
  22091707.701   -12499777.389 8  -9724388.55447  22091711.199    22091719.3744
  22342748.476   -15927611.016 8 -12389772.13247  22342749.005    22342757.8004
 00  5 15  3 13  0.0000000  0  8 11 05 21 23 15 29 30 25
  24058790.482    -3471882.192 7  -2691067.02645  24058796.694    24058809.1814
  22378233.931   -12160820.148 8  -9264310.52746  22378234.056    22378241.9314
  20131466.415   -25881882.040 9 -20150307.37548  20131470.057    20131478.3614
  22302924.403   -13531307.909 8 -10527057.03446  22302927.456    22302937.9824
  21891997.675   -12402746.727 8  -9622107.41847  21892001.304    21892011.5314
  20522005.325   -22666971.606 9 -17648839.86648  20522007.615    20522014.4774
  22080028.678   -12561150.576 8  -9772211.75647  22080032.268    22080040.7924
  22328171.339   -16004190.765 8 -12449444.59047  22328176.369    22328184.9254
 00  5 15  3 13 30.0000000  0  8 11 05 21 23 15 29 30 25
  24051862.431    -3508333.034 7  -2719470.26745  24051861.589    24051873.1544
  22380374.828   -12149549.832 8  -9255528.47046  22380378.561    22380385.9444
  20133663.967   -25870340.171 9 -20141313.73648  20133666.325    20133674.6994
  22318457.258   -13449692.049 8 -10463460.39246  22318459.419    22318469.3814
  21901160.795   -12354608.515 8  -9584597.13747  21901162.292    21901171.8924
  20521507.742   -22669580.176 9 -17650872.51648  20521511.427    20521518.1254
  22068434.762   -12622077.837 8  -9819687.48447  22068438.747    22068446.9594
  22313657.023   -16080479.896 8 -12508890.64447  22313659.124    22313667.3684
 00  5 15  3 14  0.0000000  0  8 11 05 21 23 15 29 30 25
  24045020.241    -3544279.262 7  -2747480.29745  24045021.834    24045030.9734
  22382631.404   -12137705.619 8  -9246299.21446  22382632.631    22382640.6334
  20135966.514   -25858242.078 9 -20131886.68448  20135968.781    20135976.8194
  22334051.893   -13367739.428 8 -10399601.31346  22334054.933    22334064.5574
  21910419.288   -12305942.736 8  -9546675.74547  21910423.529    21910432.2014
  20521051.629   -22671976.220 9 -17652739.56148  20521055.130    20521062.4384
  22056927.977   -12682556.586 8  -9866813.71247  22056928.842    22056937.2734
  22299192.902   -16156477.639 8 -12568109.62547  22299197.387    22299205.1984
 00  5 15  3 14 30.0000000  0  8 11 05 21 23 15 29 30 25
  24038275.173    -3579719.948 7  -2775096.45845  24038277.302    24038289.1694
  22384993.036   -12125287.673 8  -9236622.88646  22384995.346    22385004.6574
  20138372.553   -25845587.457 9 -20122025.96248  20138376.829    20138385.1844
  22349707.285   -13285451.219 8 -10335480.75446  22349713.168    22349723.3774
  21919777.794   -12256751.776 8  -9508345.15947  21919783.417    21919793.0774
  20520637.487   -22674159.289 9 -17654440.65248  20520639.836    20520647.1144
  22045503.110   -12742584.188 8  -9913588.39047  22045505.990    22045513.9334
  22284788.662   -16232183.149 8 -12627100.89847  22284790.389    22284799.1494
 00  5 15  3 15  0.0000000  0  8 11 05 21 23 15 29 30 25
  24031628.379    -3614654.145 7  -2802317.88645  24031628.999    24031639.0884
  22387467.855   -12112296.156 8  -9226499.63546  22387467.280    22387476.5714
  20140887.881   -25832375.561 9 -20111731.02348  20140891.060    20140899.3044
  22365434.559   -13202828.697 8 -10271099.70046  22365435.797    22365446.7124
  21929245.026   -12207038.115 8  -9469607.24647  21929244.679    21929253.2484
  20520261.380   -22676129.209 9 -17655975.65748  20520264.899    20520272.2134
  22034168.439   -12802157.965 8  -9960009.44647  22034169.622    22034177.1524
  22270435.569   -16307595.841 8 -12685863.99947  22270440.250    22270448.2914
 00  5 15  3 15 30.0000000  0  8 11 05 21 23 15 29 30 25
  24025076.847    -3649081.135 7  -2829144.11245  24025078.335    24025088.6194
  22390048.625   -12098731.084 8  -9215929.45046  22390049.164    22390057.4104
  20143509.520   -25818605.809 9 -20101001.37548  20143511.466    20143519.7944
  22381216.382   -13119873.296 8 -10206459.28746  22381222.200    22381232.6174
  21938801.008   -12156804.121 8  -9430463.87547  21938803.374    21938812.4724
  20519927.449   -22677885.652 9 -17657344.31748  20519930.502    20519937.9754
  22022917.798   -12861275.696 8 -10006075.16347  22022920.263    22022927.9954
  22256144.631   -16382714.565 8 -12744398.03147  22256145.937    22256153.8434
 00  5 15  3 16  0.0000000  0  8 11 05 21 23 15 29 30 25
  24018625.372    -3683000.135 7  -2855574.51345  24018626.500    24018634.9764
  22392733.684   -12084592.823 8  -9204912.62846  22392739.184    22392747.7794
  20146236.128   -25804277.630 9 -20089836.58448  20146238.065    20146246.3774
  22397070.618   -13036586.238 8 -10141560.45346  22397071.580    22397081.3634
  21948458.302   -12106051.913 8  -9390916.72647  21948460.906    21948470.3024
  20519634.479   -22679428.232 9 -17658546.33248  20519637.003    20519644.3044
  22011755.272   -12919934.793 8 -10051783.51947  22011757.444    22011765.9764
  22241902.783   -16457537.957 8 -12802701.92947  22241907.366    22241915.9864
 00  5 15  3 16 30.0000000  0  8 11 05 21 23 15 29 30 25
  24012265.088    -3716410.103 7  -2881608.26945  24012266.743    24012276.2534
  22395541.038   -12069881.307 8  -9193449.10046  22395539.933    22395546.8084
  20149068.936   -25789390.247 9 -20078236.05848  20149070.695    20149079.2714
  22412976.396   -12952968.893 8 -10076404.24146  22412983.528    22412993.0894
  21958215.426   -12054784.412 8  -9350968.06947  21958217.226    21958226.0084
  20519381.669   -22680757.034 9 -17659581.76048  20519384.665    20519391.4024
  22000678.731   -12978132.137 8 -10097132.07247  22000682.418    22000690.7054
  22227724.061   -16532065.777 8 -12860775.49147  22227724.867    22227734.4074
 00  5 15  3 17  0.0000000  0  8 11 05 21 23 15 29 30 25
  24006001.536    -3749310.575 7  -2907245.02745  24006006.560    24006017.3014
  22398444.057   -12054596.696 8  -9181539.03446  22398447.535    22398456.0884
  20152007.325   -25773943.462 9 -20066199.63548  20152010.412    20152018.6634
  22428955.295   -12869022.560 8 -10010991.63446  22428957.696    22428967.9224
  21968066.921   -12003003.826 8  -9310619.58947  21968070.669    21968080.0564
  20519167.847   -22681871.492 9 -17660450.16348  20519172.136    20519179.5544
  21989692.519   -13035865.758 8 -10142119.27147  21989696.577    21989705.2334
  22213592.806   -16606296.762 8 -12918617.74947  22213599.173    22213607.7434
 00  5 15  3 17 30.0000000  0  8 11 05 21 23 15 29 30 25
  23999846.945    -3781700.713 7  -2932484.07845  23999842.559    23999851.8314
  22401455.947   -12038739.315 8  -9169182.63946  22401464.644    22401473.2064
  20155053.171   -25757936.493 9 -20053726.70948  20155056.529    20155064.4924
  22444994.032   -12784748.813 8  -9945323.95246  22444995.401    22445004.9804
  21978017.774   -11950712.680 8  -9269873.24347  21978021.514    21978030.2454
  20518998.628   -22682771.398 9 -17661151.38948  20519000.819    20519008.0114
  21978795.899   -13093132.915 9 -10186742.98247  21978799.028    21978807.1754
  22199527.424   -16680230.447 8 -12976228.37247  22199530.292    22199538.1064
 00  5 15  3 18  0.0000000  0  8 11 05 21 23 15 29 30 25
  23993764.517    -3813579.896 7  -2957324.98145  23993774.143    23993785.6484
  22404584.974   -12022309.402 8  -9156380.13646  22404590.766    22404600.5714
  20158205.555   -25741368.751 9 -20040816.82048  20158209.218    20158217.4544
  22461092.176   -12700148.806 8  -9879402.01246  22461094.371    22461103.5404
  21988068.168   -11897913.543 8  -9228731.08646  21988068.992    21988077.2314
  20518867.041   -22683456.532 9 -17661685.26948  20518870.407    20518877.4644
  21967988.328   -13149931.110 9 -10231001.28247  21967991.293    21967998.7174
  22185515.328   -16753865.868 8 -13033606.57547  22185517.872    22185526.3124
 00  5 15  3 18 30.0000000  0  8 11 05 21 23 15 29 30 25
  23987803.041    -3844947.293 7  -2981767.10145  23987807.130    23987816.4104
  22407820.203   -12005307.274 8  -9143131.71746  22407826.900    22407836.3004
  20161464.364   -25724240.300 9 -20027470.01548  20161468.810    20161476.7314
  22477251.037   -12615224.125 8  -9813227.12546  22477254.440    22477264.5324
  21998208.432   -11844608.852 8  -9187194.98747  21998212.568    21998221.6874
  20518777.302   -22683926.631 9 -17662051.57348  20518781.283    20518788.4134
  21957272.163   -13206257.696 9 -10274892.10647  21957272.262    21957280.5164
  22171556.204   -16827202.238 8 -13090751.75947  22171562.162    22171570.9914
 00  5 15  3 19  0.0000000  0  8 11 05 21 23 15 29 30 25
  23981930.122    -3875802.229 7  -3005809.87545  23981935.821    23981944.9494
  22411163.497   -11987732.984 8  -9129437.47546  22411171.385    22411180.2404
  20164833.814   -25706550.521 9 -20013685.81648  20164834.998    20164843.1544
  22493482.724   -12529975.863 8  -9746800.08146  22493477.193    22493486.6624
  22008448.440   -11790801.070 8  -9145266.87147  22008451.620    22008461.1164
  20518729.613   -22684181.273 9 -17662249.99748  20518732.742    20518739.9674
  21946637.498   -13262110.414 8 -10318413.67747  21946643.856    21946652.0144
  22157663.337   -16900238.527 8 -13147663.11347  22157664.026    22157672.3614
 00  5 15  3 19 30.0000000  0  8 11 05 21 23 15 29 30 25
  23976155.795    -3906144.046 7  -3029452.82845  23976160.905    23976171.0484
  22414622.194   -11969587.139 8  -9115297.85946  22414624.927    22414633.1004
  20168306.991   -25688298.918 9 -19999463.82648  20168308.218    20168316.3704
  22509759.345   -12444405.615 8  -9680122.10846  22509760.617    22509770.6314
  22018782.928   -11736492.834 8  -9102948.80147  22018786.279    22018795.3114
  20518721.429   -22684220.365 9 -17662280.46248  20518724.780    20518732.3154
  21936105.035   -13317486.898 8 -10361564.15247  21936105.541    21936113.4904
  22143819.916   -16972973.804 8 -13204339.91947  22143822.787    22143830.9764
 00  5 15  3 20  0.0000000  0  8 11 05 21 23 15 29 30 25
  23970481.502    -3935972.170 7  -3052695.51645  23970484.451    23970494.2034
  22418184.812   -11950870.189 8  -9100713.23646  22418186.577    22418193.8384
  20171884.233   -25669485.014 9 -19984803.69048  20171888.545    20171896.5454
  22526101.267   -12358514.877 8  -9613194.43646  22526104.656    22526115.1484
  22029214.175   -11681686.674 8  -9060242.74347  22029215.104    22029224.5084
  20518754.181   -22684043.503 9 -17662142.65648  20518758.809    20518765.9604
  21925655.309   -13372384.682 8 -10404341.61547  21925658.960    21925667.3244
  22130033.899   -17045407.475 8 -13260781.69447  22130038.814    22130047.4464
 00  5 15  3 20 30.0000000  0  8 11 05 21 23 15 29 30 25
  23964906.567    -3965286.098 8  -3075537.47345  23964907.659    23964915.6824
  22421854.809   -11931582.464 8  -9085683.84946  22421857.055    22421865.2354
  20175573.556   -25650108.915 9 -19969705.48548  20175575.830    20175583.8034
  22542508.493   -12272305.026 8  -9546018.10046  22542510.356    22542520.6304
  22039735.924   -11626385.354 8  -9017150.84147  22039738.367    22039748.4524
  20518830.835   -22683650.275 9 -17661836.24648  20518833.963    20518841.1914
  21915301.394   -13426801.173 9 -10446744.04547  21915304.025    21915312.1204
  22116308.847   -17117538.701 8 -13316987.80547  22116312.991    22116321.1014
 00  5 15  3 21  0.0000000  0  8 11 05 21 23 15 29 30 25
  23959418.350    -3994084.893 7  -3097978.02145  23959427.266    23959436.3454
  22425633.956   -11911724.126 8  -9070209.83146  22425635.464    22425643.7664
  20179367.445   -25630169.734 9 -19954168.52348  20179370.117    20179378.2304
  22558975.925   -12185777.547 8  -9478594.28046  22558976.411    22558987.1944
  22050353.234   -11570591.517 8  -8973675.15746  22050355.426    22050365.5964
  20518947.693   -22683040.648 9 -17661361.21848  20518949.639    20518957.1454
  21905036.171   -13480734.102 9 -10488769.68047  21905041.005    21905049.4884
  22102642.815   -17189366.593 9 -13372957.55347  22102645.257    22102652.9514
 00  5 15  3 21 30.0000000  0  8 11 05 21 23 15 29 30 25
  23954046.054    -4022368.163 8  -3120016.85645  23954044.707    23954053.8344
  22429518.950   -11891295.799 8  -9054291.64846  22429522.528    22429531.5614
  20183268.971   -25609667.488 9 -19938192.81248  20183271.371    20183279.5924
  22575503.078   -12098933.955 8  -9410924.13346  22575503.263    22575512.9714
  22061063.309   -11514307.614 8  -8929817.62846  22061065.624    22061075.6334
  20519102.431   -22682214.128 9 -17660717.18048  20519106.731    20519114.2544
  21894868.305   -13534181.064 9 -10530416.61747  21894870.511    21894878.2864
  22089031.438   -17260890.646 9 -13428690.54047  22089034.245    22089042.3894
 00  5 15  3 22  0.0000000  0  8 11 05 21 23 15 29 30 25
  23948757.151    -4050135.359 7  -3141653.59245  23948758.523    23948770.4414
  22433514.421   -11870297.943 8  -9037929.69546  22433518.854    22433526.9914
  20187277.030   -25588601.367 9 -19921777.71448  20187279.849    20187288.4464
  22592087.332   -12011775.640 8  -9343008.75046  22592089.053    22592098.5904
  22071865.686   -11457536.448 8  -8885580.40646  22071868.673    22071879.0574
  20519304.771   -22681170.492 9 -17659903.96348  20519306.157    20519312.7264
  21884793.088   -13587139.703 9 -10571683.03347  21884791.848    21884800.9024
  22075477.383   -17332109.763 9 -13484185.90947  22075481.171    22075489.6774
 00  5 15  3 22 30.0000000  0  8 11 05 21 23 15 29 30 25
  23943564.767    -4077386.075 7  -3162887.86845  23943573.179    23943584.6474
  22437618.771   -11848731.190 8  -9021124.42046  22437622.810    22437631.2434
  20191392.763   -25566971.407 9 -19904923.26448  20191396.168    20191404.7684
  22608733.632   -11924303.963 8  -9274849.23746  22608733.483    22608744.2894
  22082761.752   -11400280.479 8  -8840965.42647  22082765.303    22082774.9594
  20519543.795   -22679909.437 9 -17658921.32348  20519545.846    20519552.8284
  21874805.356   -13639607.540 8 -10612567.01947  21874807.915    21874816.2654
  22061984.984   -17403023.452 8 -13539443.30147  22061986.374    22061995.3644
 00  5 15  3 23  0.0000000  0  8 11 05 21 23 15 29 30 25
  23938486.477    -4104119.933 7  -3183719.46345  23938485.837    23938495.1414
  22441833.789   -11826595.903 8  -9003876.16146  22441835.048    22441844.0854
  20195616.635   -25544777.719 9 -19887629.55648  20195619.845    20195628.2314
  22625433.236   -11836520.557 8  -9206446.80646  22625438.092    22625449.0634
  22093748.340   -11342542.219 8  -8795974.62146  22093752.897    22093761.2514
  20519823.153   -22678430.515 9 -17657768.92948  20519827.027    20519834.4934
  21864913.604   -13691582.509 8 -10653066.95447  21864917.192    21864925.7774
  22048545.998   -17473631.084 8 -13594462.18247  22048549.953    22048558.6304
 00  5 15  3 23 30.0000000  0  8 11 05 21 23 15 29 30 25
  23933494.532    -4130336.059 7  -3204147.61845  23933498.940    23933507.8834
  22446151.269   -11803892.517 8  -8986185.21446  22446155.330    22446162.7904
  20199947.298   -25522019.677 9 -19869896.09548  20199950.431    20199958.8994
  22642201.971   -11748426.804 8  -9137802.54446  22642202.415    22642213.2574
  22104828.127   -11284324.517 8  -8750610.20846  22104831.487    22104839.8244
  20520145.521   -22676733.742 9 -17656446.77548  20520149.713    20520157.1484
  21855117.778   -13743062.179 8 -10693180.92647  21855121.185    21855129.5294
  22035169.895   -17543932.155 8 -13649242.20547  22035172.558    22035180.9724
 00  5 15  3 24  0.0000000  0  8 11 05 21 23 15 29 30 25
  23928605.849    -4156034.116 7  -3224172.08745  23928609.362    23928617.6064
  22450584.266   -11780621.578 8  -8968052.00146  22450584.457    22450591.4964
  20204384.940   -25498697.042 9 -19851722.69448  20204388.688    20204397.2074
  22659018.408   -11660024.274 8  -9068917.67146  22659024.856    22659035.4434
  22115997.170   -11225630.239 8  -8704874.45447  22116000.765    22116010.0014
  20520511.263   -22674818.224 9 -17654954.16548  20520514.368    20520521.6494
  21845414.575   -13794044.338 8 -10732907.21947  21845419.180    21845428.2494
  22021849.105   -17613925.076 9 -13703782.08447  22021853.632    22021861.7344
 00  5 15  3 24 30.0000000  0  8 11 05 21 23 15 29 30 25
  23923813.557    -4181213.515 8  -3243792.34545  23923818.148    23923825.4464
  22455115.798   -11756783.691 8  -8949477.02546  22455119.456    22455126.9004
  20208931.453   -25474809.731 9 -19833109.27148  20208934.401    20208942.7384
  22675900.010   -11571314.545 8  -8999793.42746  22675905.386    22675916.7654
  22127258.953   -11166461.835 8  -8658769.24747  22127259.543    22127269.7854
  20520917.629   -22672684.066 9 -17653291.20148  20520920.478    20520927.7154
  21835811.664   -13844526.547 8 -10772243.94047  21835812.838    21835821.5164
  22008591.124   -17683609.456 9 -13758081.54647  22008593.454    22008601.2994
 00  5 15  3 25  0.0000000  0  8 11 05 21 23 15 29 30 25
  23919121.885    -4205874.065 7  -3263008.35745  23919123.120    23919131.7734
  22459760.893   -11732379.462 8  -8930460.72046  22459763.307    22459771.3914
  20213584.423   -25450357.589 9 -19814055.72048  20213587.479    20213595.7994
  22692843.732   -11482299.236 8  -8930431.11346  22692844.947    22692856.0814
  22138605.691   -11106822.266 8  -8612296.92947  22138609.101    22138618.5694
  20521364.697   -22670330.789 9 -17651457.47748  20521368.413    20521375.3884
  21826302.308   -13894506.803 9 -10811189.55547  21826302.064    21826310.6354
  21995388.087   -17752984.686 9 -13812140.12547  21995391.779    21995399.7124
 00  5 15  3 25 30.0000000  0  8 11 05 21 23 15 29 30 25
  23914529.415    -4230015.361 7  -3281819.78645  23914530.083    23914539.4954
  22464512.752   -11707409.834 8  -8911003.86646  22464515.040    22464524.2014
  20218345.642   -25425340.665 9 -19794562.07448  20218348.200    20218356.4824
  22709841.160   -11392979.603 8  -8860831.65046  22709842.444    22709853.1444
  22150044.710   -11046714.109 8  -8565459.45346  22150046.915    22150056.7134
  20521854.202   -22667758.089 9 -17649452.77348  20521857.823    20521865.1044
  21816882.225   -13943982.606 9 -10849742.07547  21816887.694    21816894.9644
  21982245.212   -17822050.408 9 -13865957.53347  21982248.842    21982256.8054
 00  5 15  3 26  0.0000000  0  8 11 05 21 23 15 29 30 25
  23910036.816    -4253636.954 7  -3300226.22145  23910035.578    23910043.7764
  22469373.704   -11681875.117 8  -8891106.69346  22469374.667    22469382.8274
  20223212.398   -25399758.659 9 -19774628.07648  20223216.302    20223224.7514
  22726889.617   -11303357.295 8  -8790996.29746  22726896.855    22726907.9234
  22161571.518   -10986140.349 8  -8518259.16146  22161573.192    22161582.4254
  20522384.815   -22664965.738 9 -17647276.91948  20522389.433    20522396.4614
  21807564.667   -13992951.692 9 -10887899.75847  21807569.161    21807576.5304
  21969162.466   -17890805.385 8 -13919532.78847  21969164.610    21969173.1964
 00  5 15  3 26 30.0000000  0  8 11 05 21 23 15 29 30 25
  23905641.859    -4276738.446 8  -3318227.29745  23905639.145    23905648.5774
  22474337.173   -11655775.874 8  -8870769.62546  22474341.096    22474349.3284
  20228187.695   -25373611.323 9 -19754253.55348  20228191.754    20228200.5644
  22744005.402   -11213433.916 8  -8720926.36046  22744008.637    22744020.1764
  22173185.048   -10925103.711 8  -8470698.19646  22173188.257    22173198.3514
  20522959.663   -22661953.203 9 -17644929.49048  20522962.937    20522969.6814
  21798342.377   -14041412.363 9 -10925661.26947  21798346.652    21798355.0314
  21956136.682   -17959249.069 9 -13972865.46147  21956140.400    21956148.9354
 00  5 15  3 27  0.0000000  0  8 11 05 21 23 15 29 30 25
  23901334.390    -4299319.431 8  -3335822.80845  23901341.364    23901352.0364
  22479414.217   -11629112.793 8  -8849993.19246  22479415.294    22479422.9614
  20233272.380   -25346898.630 9 -19733438.47948  20233275.153    20233283.6444
  22761174.601   -11123211.283 8  -8650623.29146  22761178.112    22761189.0424
  22184887.482   -10863606.946 8  -8422778.69046  22184890.945    22184900.1734
  20523575.818   -22658720.236 9 -17642410.29948  20523578.132    20523585.1524
  21789217.839   -14089361.780 9 -10963024.40847  21789222.529    21789230.2014
  21943171.252   -18027381.138 9 -14025955.35547  21943175.424    21943183.5474
 00  5 15  3 27 30.0000000  0  8 11 05 21 23 15 29 30 25
  23897137.137    -4321379.808 8  -3353012.70145  23897143.643    23897152.3024
  22484593.596   -11601886.731 8  -8828778.06246  22484595.969    22484603.9644
  20238462.775   -25319620.848 9 -19712183.06548  20238466.108    20238474.3324
  22778398.359   -11032690.724 8  -8580088.03446  22778403.273    22778414.4154
  22196675.378   -10801652.748 8  -8374502.74747  22196681.362    22196691.0374
  20524234.009   -22655266.523 9 -17639719.08548  20524235.816    20524242.3784
  21780196.521   -14136798.036 9 -10999987.69547  21780195.590    21780203.5024
  21930269.286   -18095200.892 9 -14078801.88747  21930269.738    21930277.5694
 00  5 15  3 28  0.0000000  0  8 11 05 21 23 15 29 30 25
  23893044.953    -4342919.259 7  -3369796.74345  23893045.411    23893055.4024
  22489886.301   -11574098.475 8  -8807124.86646  22489883.631    22489892.1544
  20243762.174   -25291777.769 9 -19690487.15348  20243764.236    20243772.9254
  22795677.357   -10941873.826 8  -8509321.84246  22795684.994    22795696.4684
  22208555.028   -10739244.265 8  -8325872.82046  22208556.981    22208566.0014
  20524931.334   -22651591.673 9 -17636855.56548  20524934.827    20524941.5874
  21771262.941   -14183718.853 9 -11036549.34547  21771266.731    21771275.0504
  21917421.188   -18162707.439 9 -14131404.35347  21917424.189    21917431.6364
 00  5 15  3 28 30.0000000  0  8 11 05 21 23 15 29 30 25
  23889047.418    -4363937.408 8  -3386174.56145  23889046.219    23889056.1274
  22495276.936   -11545748.734 8  -8785034.14146  22495277.570    22495286.2954
  20249167.211   -25263369.018 9 -19668350.46448  20249170.244    20249178.7834
  22813013.926   -10850762.140 8  -8438325.89746  22813022.537    22813035.1384
  22220514.515   -10676384.387 8  -8276891.15746  22220518.860    22220528.0444
  20525673.145   -22647695.407 9 -17633819.51148  20525675.920    20525682.8044
  21762434.207   -14230122.239 9 -11072707.78147  21762436.532    21762444.0134
  21904635.203   -18229900.235 9 -14183762.32947  21904636.808    21904645.0794
 00  5 15  3 29  0.0000000  0  8 11 05 21 23 15 29 30 25
  23885143.298    -4384434.204 8  -3402146.13145  23885145.148    23885155.4074
  22500776.223   -11516837.958 8  -8762506.24546  22500779.326    22500787.6634
  20254682.562   -25234394.921 9 -19645773.24248  20254684.234    20254692.2514
  22830413.549   -10759357.241 8  -8367101.48446  22830417.446    22830429.6734
  22232563.111   -10613075.604 8  -8227559.70446  22232566.232    22232575.7814
  20526456.616   -22643577.226 9 -17630610.54048  20526459.622    20526466.6024
  21753703.782   -14276006.251 9 -11108461.53447  21753704.847    21753712.6034
  21891906.154   -18296778.453 9 -14235875.17547  21891910.394    21891918.5944
 00  5 15  3 29 30.0000000  0  8 11 05 21 23 15 29 30 25
  23881342.157    -4404409.255 8  -3417711.07245  23881344.635    23881354.3184
  22506383.180   -11487367.268 8  -8739542.06946  22506388.119    22506395.5284
  20260301.864   -25204855.782 9 -19622755.74748  20260305.364    20260313.3694
  22847865.036   -10667660.875 8  -8295649.88946  22847867.130    22847878.7914
  22244699.162   -10549320.894 8  -8177880.76546  22244697.681    22244707.0254
  20527281.376   -22639237.007 9 -17627228.55248  20527285.497    20527292.4284
  21745068.048   -14321368.558 9 -11143808.75047  21745072.650    21745080.2594
  21879241.133   -18363341.514 9 -14287742.46847  21879243.916    21879251.5974
 00  5 15  3 30  0.0000000  0  8 11 05 21 23 15 29 30 25
  23877637.554    -4423862.175 7  -3432869.13545  23877643.210    23877650.5734
  22512101.549   -11457337.690 8  -8716142.38046  22512103.468    22512109.9664
  20266029.675   -25174751.363 9 -19599297.79348  20266033.757    20266042.3094
  22865370.545   -10575674.662 8  -8223972.45146  22865371.674    22865383.3854
  22256911.763   -10485123.206 8  -8127856.64246  22256914.273    22256923.6654
  20528150.092   -22634673.979 9 -17623672.94648  20528153.510    20528160.6544
  21736533.649   -14366207.047 9 -11178747.78347  21736540.386    21736548.2414
  21866633.025   -18429588.990 9 -14339363.84547  21866638.154    21866645.7234
 00  5 15  3 30 30.0000000  0  8 11 05 21 23 15 29 30 25
  23874037.001    -4442793.104 7  -3447620.45045  23874038.598    23874048.9094
  22517921.105   -11426749.927 8  -8692307.75346  22517923.616    22517931.0244
  20271868.457   -25144082.110 9 -19575399.71148  20271870.051    20271878.4694
  22882923.968   -10483400.302 8  -8152070.48246  22882930.498    22882941.7854
  22269209.526   -10420485.586 8  -8077489.70046  22269214.344    22269224.0484
  20529061.079   -22629888.206 9 -17619943.76948  20529064.299    20529071.4434
  21728106.442   -14410519.917 9 -11213277.24947  21728108.041    21728115.6704
  21854089.689   -18495520.328 9 -14390738.87847  21854091.697    21854099.5954
 00  5 15  3 31  0.0000000  0  8 11 05 21 23 15 29 30 25
  23870535.125    -4461201.793 7  -3461964.83645  23870535.042    23870546.8644
  22523848.407   -11395604.822 8  -8668038.83146  22523849.819    22523858.2514
  20277810.282   -25112847.863 9 -19551061.37648  20277813.766    20277822.2414
  22900547.513   -10390839.480 8  -8079945.29146  22900544.714    22900556.6394
  22281597.637   -10355410.915 8  -8026782.22846  22281598.354    22281608.2224
  20530013.575   -22624879.164 9 -17616040.62048  20530017.524    20530024.7954
  21719774.457   -14454305.000 9 -11247395.45047  21719775.789    21719783.8544
  21841600.457   -18561134.639 9 -14441866.86147  21841604.831    21841613.1914
 00  5 15  3 31 30.0000000  0  8 11 05 21 23 15 29 30 25
  23867130.366    -4479087.906 7  -3475902.10445  23867133.074    23867141.3484
  22529880.764   -11363903.255 8  -8643336.29546  22529882.015    22529891.6644
  20283860.838   -25081048.773 9 -19526282.91748  20283864.804    20283873.5214
  22918205.582   -10297993.855 8  -8007598.20146  22918212.408    22918224.2954
  22294062.366   -10289901.888 8  -7975736.30646  22294063.845    22294073.5444
  20531008.668   -22619646.464 9 -17611963.19548  20531013.570    20531020.7034
  21711542.127   -14497560.227 9 -11281100.76247  21711544.619    21711552.9254
  21829175.657   -18626431.426 9 -14492747.44347  21829180.092    21829187.8674
 00  5 15  3 32  0.0000000  0  8 11 05 21 23 15 29 30 25
  23863817.247    -4496451.589 7  -3489432.20745  23863827.997    23863836.8494
  22536019.261   -11331646.168 8  -8618200.88746  22536020.511    22536029.5904
  20290020.307   -25048684.979 9 -19501064.42248  20290023.425    20290032.2204
  22935935.030   -10204865.187 8  -7935030.57146  22935935.104    22935946.5254
  22306607.395   -10223961.644 8  -7924354.34646  22306612.020    22306621.9314
  20532050.539   -22614189.736 9 -17607711.19848  20532052.305    20532058.9054
  21703413.950   -14540283.642 9 -11314391.69647  21703414.292    21703422.9634
  21816812.567   -18691410.380 9 -14543380.35247  21816814.753    21816822.3714
 00  5 15  3 32 30.0000000  0  8 11 05 21 23 15 29 30 25
  23860621.934    -4513292.686 8  -3502555.13045  23860623.610    23860633.7794
  22542263.706   -11298834.584 8  -8592633.41446  22542264.302    22542272.8274
  20296288.046   -25015756.771 9 -19475406.12648  20296289.777    20296298.1944
  22953709.479   -10111455.055 8  -7862243.63346  22953710.670    22953722.3044
  22319236.617   -10157593.100 8  -7872638.66246  22319240.775    22319251.3924
  20533130.031   -22608508.531 9 -17603284.28248  20533133.264    20533139.5404
  21695381.357   -14582473.387 9 -11347266.76147  21695386.006    21695393.9514
  21804507.471   -18756070.387 9 -14593764.72747  21804510.713    21804518.2934
 00  5 15  3 33  0.0000000  0  8 11 05 21 23 15 29 30 25
  23857509.153    -4529611.029 7  -3515270.67145  23857518.701    23857529.7574
  22548612.153   -11265469.367 8  -8566634.53746  22548613.652    22548621.5914
  20302659.006   -24982264.336 9 -19449308.16648  20302663.132    20302671.7334
  22971536.250   -10017765.106 8  -7789238.65446  22971538.399    22971551.0834
  22331952.576   -10090798.839 8  -7820591.23646  22331952.165    22331961.8814
  20534253.873   -22602602.617 9 -17598682.26248  20534256.830    20534263.5814
  21687457.378   -14624127.203 9 -11379724.23547  21687459.685    21687467.4724
  21792262.020   -18820411.394 9 -14643900.53847  21792266.442    21792274.9514
 00  5 15  3 33 30.0000000  0  8 11 05 21 23 15 29 30 25
  23854515.773    -4545406.694 7  -3527578.96345  23854512.795    23854522.2494
  22555067.963   -11231551.511 8  -8540205.03346  22555068.439    22555076.8084
  20309140.272   -24948207.802 9 -19422770.65048  20309143.851    20309152.4704
  22989420.884    -9923796.978 8  -7716016.88846  22989420.392    22989432.8874
  22344741.350   -10023582.115 8  -7768214.62246  22344743.696    22344752.3684
  20535420.684   -22596471.503 9 -17593904.75548  20535423.441    20535430.3614
  21679628.390   -14665243.648 9 -11411762.96747  21679635.118    21679643.0574
  21780081.045   -18884432.823 9 -14693787.33247  21780083.741    21780092.2554
 00  5 15  3 34  0.0000000  0  8 11 05 21 23 15 29 30 25
  23851598.197    -4560679.777 7  -3539480.10945  23851605.644    23851614.6164
  22561622.938   -11197081.927 8  -8513345.62246  22561628.251    22561635.3714
  20315728.368   -24913587.334 9 -19395793.71248  20315731.719    20315740.2724
  23007355.528    -9829552.300 8  -7642579.63446  23007354.701    23007367.1424
  22357613.271    -9955945.979 8  -7715511.16246  22357614.430    22357622.4744
  20536630.641   -22590114.931 9 -17588951.58048  20536633.252    20536640.2304
  21671908.401   -14705820.486 9 -11443381.22647  21671913.660    21671921.7504
  21767960.361   -18948133.888 9 -14743424.47747  21767961.439    21767968.9704
 00  5 15  3 34 30.0000000  0  8 11 05 21 23 15 29 30 25
  23848795.923    -4575430.288 7  -3550974.00945  23848797.788    23848809.4354
  22568291.676   -11162061.748 8  -8486057.16446  22568291.494    22568299.2154
  20322424.220   -24878403.709 9 -19368377.95148  20322426.925    20322435.5914
  23025337.502    -9735033.014 8  -7568928.45046  23025340.977    23025352.7604
  22370557.062    -9887893.445 8  -7662483.26046  22370563.405    22370573.2134
  20537883.505   -22583532.245 9 -17583822.21648  20537885.973    20537892.9784
  21664290.088   -14745856.090 9 -11474577.74147  21664295.439    21664303.0754
  21755897.290   -19011514.516 9 -14792811.95247  21755900.529    21755908.3894
 00  5 15  3 35  0.0000000  0  8 11 05 21 23 15 29 30 25
  23846080.410    -4589657.887 7  -3562060.45645  23846091.494    23846100.5054
  22575056.285   -11126492.015 8  -8458340.49346  22575059.633    22575067.6094
  20329226.405   -24842656.775 9 -19340523.26248  20329229.453    20329238.2074
  23043377.693    -9640241.034 8  -7495064.76746  23043380.043    23043390.7134
  22383589.566    -9819427.496 8  -7609133.22446  22383592.975    22383601.6604
  20539180.028   -22576723.462 9 -17578516.66148  20539181.610    20539188.2394
  21656775.717   -14785348.343 9 -11505350.87847  21656779.973    21656787.8654
  21743896.020   -19074573.962 9 -14841949.14647  21743900.407    21743908.6754
 00  5 15  3 35 30.0000000  0  8 11 05 21 23 15 29 30 25
  23843481.641    -4603362.598 7  -3572739.43245  23843484.191    23843492.9044
  22581932.702   -11090373.745 8  -8430196.36446  22581932.210    22581940.8354
  20336136.485   -24806346.844 9 -19312229.87448  20336139.151    20336147.8004
  23061473.220    -9545178.017 8  -7420989.88046  23061471.035    23061480.3714
  22396696.347    -9750551.054 8  -7555463.30846  22396699.895    22396708.0734
  20540517.126   -22569687.755 9 -17573034.28448  20540520.463    20540527.0324
  21649365.533   -14824295.373 9 -11535699.15547  21649368.335    21649376.2274
  21731957.825   -19137311.227 9 -14890835.28747  21731962.017    21731970.2584
 00  5 15  3 36  0.0000000  0  8 11 05 21 23 15 29 30 25
  23840971.038    -4616544.895 7  -3583011.29745  23840975.287    23840983.7674
  22588902.190   -11053707.993 8  -8401625.65346  22588910.000    22588919.3704
  20343152.366   -24769474.631 9 -19283498.32348  20343155.898    20343164.2214
  23079608.662    -9449845.535 8  -7346704.99546  23079611.918    23079622.4834
  22409878.977    -9681267.205 8  -7501475.93646  22409882.983    22409892.9064
  20541899.999   -22562425.072 9 -17567375.04548  20541902.436    20541908.9984
  21642060.574   -14862695.512 9 -11565621.28947  21642061.405    21642068.9414
  21720081.553   -19199726.332 9 -14939470.38547  21720084.658    21720093.2514
 00  5 15  3 36 30.0000000  0  8 11 05 21 23 15 29 30 25
  23838569.114    -4629204.448 8  -3592875.81445  23838568.490    23838574.7804
  22595994.075   -11016496.184 8  -8372629.44846  22595991.461    22596000.6964
  20350277.165   -24732040.163 9 -19254328.64948  20350279.479    20350288.0364
  23097796.366    -9354245.167 8  -7272211.40046  23097802.693    23097815.1814
  22423139.618    -9611578.926 8  -7447173.42446  22423145.158    22423154.1664
  20543324.605   -22554934.711 9 -17561538.39248  20543327.933    20543334.7464
  21634854.979   -14900547.063 9 -11595115.93947  21634858.022    21634866.2084
  21708265.533   -19261819.052 9 -14987854.28047  21708269.325    21708277.4754
 00  5 15  3 37  0.0000000  0  8 11 05 21 23 15 29 30 25
  23836255.448    -4641341.533 7  -3602333.09445  23836257.399    23836266.9424
  22603171.966   -10978739.288 8  -8343208.49846  22603176.789    22603184.8504
  20357507.822   -24694043.703 9 -19224721.02748  20357509.800    20357518.5494
  23116047.685    -9258378.899 8  -7197510.64646  23116046.510    23116058.7074
  22436480.273    -9541489.129 8  -7392558.03346  22436482.919    22436492.3314
  20544792.941   -22547216.587 9 -17555524.26848  20544796.513    20544803.4234
  21627757.673   -14937848.079 9 -11624181.60547  21627759.895    21627767.5864
  21696509.243   -19323588.676 9 -15035986.42347  21696514.732    21696522.9304
 00  5 15  3 37 30.0000000  0  8 11 05 21 23 15 29 30 25
  23834045.176    -4652956.395 7  -3611383.50445  23834047.749    23834056.3664
  22610463.990   -10940438.200 8  -8313363.47946  22610465.186    22610472.9724
  20364844.378   -24655486.157 9 -19194676.18548  20364847.136    20364855.9404
  23134339.862    -9162248.515 8  -7122604.07246  23134339.966    23134351.4134
  22449893.640    -9471001.013 8  -7337632.24646  22449896.815    22449906.0354
  20546304.667   -22539270.187 9 -17549332.26848  20546308.591    20546315.4204
  21620761.783   -14974596.754 9 -11652816.88347  21620766.941    21620774.2464
  21684819.902   -19385034.582 9 -15083866.31947  21684821.993    21684829.6674
 00  5 15  3 38  0.0000000  0  8 11 05 21 23 15 29 30 25
  23831931.508    -4664049.279 8  -3620027.24045  23831937.306    23831944.2504
  22617853.610   -10901594.580 8  -8283095.74046  22617856.420    22617864.7464
  20372288.032   -24616367.638 9 -19164194.23148  20372291.226    20372300.0524
  23152684.986    -9065855.749 8  -7047493.04146  23152683.387    23152694.5964
  22463383.982    -9400117.635 8  -7282398.48746  22463385.037    22463395.3764
  20547860.954   -22531094.894 9 -17542961.90248  20547864.084    20547871.0264
  21613875.030   -15010791.493 9 -11681020.51847  21613879.253    21613887.4564
  21673185.321   -19446156.308 9 -15131493.61447  21673191.004    21673198.7654
 00  5 15  3 38 30.0000000  0  8 11 05 21 23 15 29 30 25
  23829926.895    -4674620.300 7  -3628264.34245  23829923.380    23829930.7594
  22625350.350   -10862209.421 8  -8252405.99646  22625351.227    22625359.7954
  20379840.106   -24576688.652 9 -19133275.62048  20379841.806    20379850.6544
  23171070.386    -8969202.385 8  -6972178.97146  23171075.866    23171086.2624
  22476944.488    -9328842.321 8  -7226859.31146  22476947.653    22476958.6204
  20549460.698   -22522690.446 9 -17536412.97948  20549463.536    20549470.4894
  21607092.839   -15046430.556 9 -11708791.15247  21607097.242    21607105.2664
  21661615.168   -19506953.398 9 -15178867.93447  21661621.452    21661629.3504
 00  5 15  3 39  0.0000000  0  8 11 05 21 23 15 29 30 25
  23827998.036    -4684669.552 7  -3636094.86845  23828010.346    23828021.2534
  22632946.840   -10822283.722 8  -8221295.06046  22632948.956    22632957.8694
  20387495.914   -24536450.084 9 -19101920.98548  20387499.056    20387507.7884
  23189511.340    -8872290.200 8  -6896663.22845  23189516.949    23189530.0834
  22490583.468    -9257177.784 8  -7171016.83846  22490585.544    22490595.8104
  20551103.889   -22514056.457 9 -17529685.19748  20551106.816    20551113.4574
  21600414.904   -15081512.253 9 -11736127.48147  21600421.711    21600429.0414
  21650109.334   -19567425.376 9 -15225988.92547  21650114.266    21650122.3374
 00  5 15  3 39 30.0000000  0  8 11 05 21 23 15 29 30 25
  23826197.007    -4694197.207 8  -3643518.90845  23826199.459    23826207.7204
  22640641.017   -10781818.863 8  -8189763.99946  22640648.307    22640657.1284
  20395258.463   -24495652.255 9 -19070130.57148  20395262.609    20395271.6264
  23208010.262    -8775121.151 8  -6820947.30546  23208008.332    23208021.4894
  22504295.749    -9185127.481 8  -7114873.76546  22504296.157    22504306.0484
  20552791.419   -22505192.595 9 -17522778.28848  20552793.573    20552800.2334
  21593849.565   -15116034.911 9 -11763028.20447  21593852.007    21593859.9304
  21638666.960   -19627572.196 9 -15272856.52147  21638668.593    21638676.5104
 00  5 15  3 40  0.0000000  0  8 11 05 21 23 15 29 30 25
  23824481.159    -4703203.695 8  -3650536.84045  23824485.174    23824493.4214
  22648454.307   -10740815.948 8  -8157813.67046  22648450.774    22648459.7064
  20403129.243   -24454295.692 9 -19037904.79148  20403132.499    20403141.5594
  23226537.499    -8677697.046 8  -6745032.61946  23226547.688    23226559.9664
  22518076.413    -9112694.528 8  -7058432.54346  22518079.586    22518090.5614
  20554521.110   -22496098.185 9 -17515691.73448  20554524.032    20554530.8324
  21587387.360   -15149996.882 9 -11789492.01947  21587389.248    21587396.7434
  21627280.034   -19687393.205 9 -15319470.23747  21627284.746    21627292.9764
 00  5 15  3 40 30.0000000  0  8 11 05 21 23 15 29 30 25
  23822868.815    -4711689.327 8  -3657148.95045  23822870.268    23822878.7964
  22656353.017   -10699276.481 8  -8125445.26046  22656356.616    22656364.9354
  20411105.938   -24412380.547 9 -19005243.73448  20411109.054    20411117.5974
  23245132.491    -8580019.751 8  -6668920.62946  23245135.194    23245146.3124
  22531930.966    -9039881.854 8  -7001695.44746  22531934.362    22531945.5874
  20556295.527   -22486773.042 9 -17508425.38948  20556298.442    20556305.4134
  21581027.998   -15183396.311 9 -11815517.49847  21581033.777    21581040.4944
  21615960.105   -19746888.087 9 -15365829.84947  21615963.252    21615971.1104
 00  5 15  3 41  0.0000000  0  8 11 05 21 23 15 29 30 25
  23821348.980    -4719654.432 8  -3663355.51445  23821353.799    23821363.1624
  22664360.778   -10657201.770 8  -8092659.76846  22664363.334    22664371.1084
  20419189.082   -24369908.014 9 -18972148.32948  20419191.325    20419199.9274
  23263767.863    -8482090.939 8  -6592612.62945  23263770.384    23263782.2664
  22545856.081    -8966692.729 8  -6944664.99946  22545862.012    22545872.8434
  20558113.703   -22477216.683 9 -17500978.87848  20558117.076    20558124.0864
  21574782.571   -15216231.997 9 -11841103.68347  21574785.007    21574792.7674
  21604700.970   -19806056.282 9 -15411934.88247  21604704.385    21604711.4284
 00  5 15  3 41 30.0000000  0  8 11 05 21 23 15 29 30 25
  23819934.777    -4727099.030 8  -3669156.43045  23819938.520    23819946.3734
  22672470.446   -10614593.118 8  -8059458.20246  22672471.294    22672479.1094
  20427375.863   -24326878.076 9 -18938618.57648  20427379.953    20427388.2804
  23282452.402    -8383912.548 8  -6516110.19645  23282452.880    23282465.7144
  22559854.450    -8893130.294 8  -6887343.66346  22559860.239    22559871.1484
  20559976.621   -22467428.558 9 -17493351.77348  20559979.384    20559986.7574
  21568639.339   -15248502.371 9 -11866249.36547  21568643.730    21568651.8744
  21593504.550   -19864897.442 9 -15457785.09847  21593506.997    21593514.6244
 00  5 15  3 42  0.0000000  0  8 11 05 21 23 15 29 30 25
  23818612.240    -4734023.582 7  -3674552.09345  23818618.663    23818629.5254
  22680674.067   -10571451.617 8  -8025841.46846  22680680.090    22680689.3944
  20435668.969   -24283291.595 9 -18904655.14448  20435673.941    20435682.4194
  23301171.103    -8285486.240 8  -6439414.56046  23301183.301    23301195.1894
  22573929.616    -8819197.658 8  -6829733.85346  22573930.424    22573939.1454
  20561882.196   -22457408.519 9 -17485543.95348  20561886.305    20561893.5134
  21562609.042   -15280205.496 9 -11890953.03147  21562611.078    21562618.5784
  21582368.531   -19923410.959 9 -15503379.97547  21582371.688    21582379.8274
 00  5 15  3 42 30.0000000  0  8 11 05 21 23 15 29 30 25
  23817397.232    -4740428.488 7  -3679542.89045  23817400.675    23817408.7774
  22688986.646   -10527779.005 8  -7991810.87746  22688991.338    22688999.7854
  20444070.942   -24239149.040 9 -18870258.39848  20444074.231    20444082.4914
  23319957.858    -8186814.110 8  -6362527.37146  23319960.226    23319973.1514
  22588069.025    -8744897.781 8  -6771837.86346  22588069.748    22588078.4634
  20563835.622   -22447155.977 9 -17477554.96448  20563837.428    20563844.2274
  21556682.036   -15311340.132 9 -11915213.73247  21556686.444    21556694.2004
  21571292.987   -19981596.750 9 -15548719.48347  21571298.675    21571307.0484
 00  5 15  3 43  0.0000000  0  8 11 05 21 23 15 29 30 25
  23816276.724    -4746314.272 7  -3684129.19945  23816280.589    23816290.9264
  22697400.154   -10483576.736 8  -7957367.53246  22697402.955    22697411.2814
  20452579.058   -24194451.593 9 -18835429.28648  20452579.505    20452588.3224
  23338778.225    -8087897.849 8  -6285449.96946  23338782.846    23338795.1814
  22602277.903    -8670233.962 8  -6713658.27846  22602278.233    22602286.9874
  20565828.626   -22436670.521 9 -17469384.48348  20565832.397    20565839.3664
  21550865.912   -15341904.736 9 -11939030.24147  21550870.042    21550877.8014
  21560285.875   -20039454.569 9 -15593803.43947  21560289.057    21560297.5524
 00  5 15  3 43 30.0000000  0  8 11 05 21 23 15 29 30 25
  23815254.213    -4751681.136 7  -3688311.19045  23815259.496    23815269.0854
  22705912.571   -10438846.052 8  -7922512.46346  22705913.861    22705923.3424
  20461186.744   -24149199.806 9 -18800168.23348  20461190.661    20461199.6654
  23357648.418    -7988739.413 8  -6208183.81946  23357653.085    23357664.6564
  22616549.930    -8595209.455 8  -6655197.64046  22616554.190    22616563.7394
  20567868.313   -22425951.501 9 -17461031.99748  20567872.298    20567879.3184
  21545160.457   -15371897.986 9 -11962401.53547  21545162.218    21545169.9384
  21549336.924   -20096983.797 9 -15638631.37047  21549341.714    21549349.9974
